[[{"header":{"parameterUnit":"m.s-1","parameterCategory":1,"la1":31.0,"la2":29.5877,"lo1":-88.7671,"lo2":-86.6584,"dy":0.0162,"dx":0.0185,"nx":115,"ny":88,"refTime":"2026-05-04T12:00:00:Z","depth":0,"parameterNumber":2,"parameterNumberName":"U-component_of_WINDS"},"data":[0.0,0.0,0.0,0.0,0.0,0.0,0.0,0.0,0.0,0.0,0.0,0.0,0.0,0.0,0.0,0.0,0.0,0.0,0.0,0.0,0.0,0.0,0.0,0.0,0.0,0.0,0.0,0.0,0.0,0.0,0.0,0.0,0.0,0.0,0.0,0.0,0.0,0.0,0.0,0.0,0.0,0.0,0.0,0.0,0.0,0.0,0.0,0.0,0.0,0.0,0.0,0.0,0.0,0.0,0.0,0.0,0.0,0.0,0.0,0.0,0.0,0.0,0.0,0.0,0.0,0.0,0.0,0.0,0.0,0.0,0.0,0.0,0.0,0.0,0.0,0.0,0.0,0.0,0.0,0.0,0.0,0.0,0.0,0.0,0.0,0.0,0.0,0.0,0.0,0.0,0.0,0.0,0.0,0.0,0.0,0.0,0.0,0.0,0.0,0.0,0.0,0.0,0.0,0.0,0.0,0.0,0.0,0.0,0.0,0.0,0.0,0.0,0.0,0.0,0.0,0.0,0.0,0.0,0.0,0.0,0.0,0.0,0.0,0.0,0.0,0.0,0.0,0.0,0.0,0.0,0.0,0.0,0.0,0.0,0.0,0.0,0.0,0.0,0.0,0.0,0.0,0.0,0.0,0.0,0.0,0.0,0.0,0.0,0.0,0.0,0.0,0.0,0.0,0.0,0.0,0.0,0.0,0.0,0.0,0.0,0.0,0.0,0.0,0.0,0.0,0.0,0.0,0.0,0.0,0.0,0.0,0.0,0.0,0.0,0.0,0.0,0.0,0.0,0.0,0.0,0.0,0.0,0.0,0.0,0.0,0.0,0.0,0.0,0.0,0.0,0.0,0.0,0.0,0.0,0.0,0.0,0.0,0.0,0.0,0.0,0.0,0.0,0.0,0.0,0.0,0.0,0.0,0.0,0.0,0.0,0.0,0.0,0.0,0.0,0.0,0.0,0.0,0.0,0.0,0.0,0.0,0.0,0.0,0.0,0.0,0.0,0.0,0.0,0.0,0.0,0.0,0.0,0.0,0.0,0.0,0.0,0.0,0.0,0.0,0.0,0.0,0.0,0.0,0.0,0.0,0.0,0.0,0.0,0.0,0.0,0.0,0.0,0.0,0.0,0.0,0.0,0.0,0.0,0.0,0.0,0.0,0.0,0.0,0.0,0.0,0.0,0.0,0.0,0.0,0.0,0.0,0.0,0.0,0.0,0.0,0.0,0.0,0.0,0.0,0.0,0.0,0.0,0.0,0.0,0.0,0.0,0.0,0.0,0.0,0.0,0.0,0.0,0.0,0.0,0.0,0.0,0.0,0.0,0.0,0.0,0.0,0.0,0.0,0.0,0.0,0.0,0.0,0.0,0.0,0.0,0.0,0.0,0.0,0.0,0.0,0.0,0.0,0.0,0.0,0.0,0.0,0.0,0.0,0.0,0.0,0.0,0.0,0.0,0.0,0.0,0.0,0.0,0.0,0.0,0.0,0.0,0.0,0.0,0.0,0.0,0.0,0.0,0.0,0.0,0.0,0.0,0.0,0.0,0.0,0.0,0.0,0.0,0.0,0.0,0.0,0.0,0.0,0.0,0.0,0.0,0.0,0.0,0.0,0.0,0.0,0.0,0.0,0.0,0.0,0.0,0.0,0.0,0.0,0.0,0.0,0.0,0.0,0.0,0.0,0.0,0.0,0.0,0.0,0.0,0.0,0.0,0.0,0.0,0.0,0.0,0.0,0.0,0.0,0.0,0.0,0.0,0.0,0.0,0.0,0.0,0.0,0.0,0.0,0.0,0.0,0.0,0.0,0.0,0.0,0.0,0.0,0.0,0.0,0.0,0.0,0.0,0.0,0.0,0.0,0.0,0.0,0.0,0.0,0.0,0.0,0.0,0.0,0.0,0.0,0.0,0.0,0.0,0.0,0.0,0.0,0.0,0.0,0.0,0.0,0.0,0.0,0.0,0.0,0.0,0.0,0.0,0.0,0.0,0.0,0.0,0.0,0.0,0.0,0.0,0.0,0.0,0.0,0.0,0.0,0.0,0.0,0.0,0.0,0.0,0.0,0.0,0.0,0.0,0.0,0.0,0.0,0.0,0.0,0.0,0.0,0.0,0.0,0.0,0.0,0.0,0.0,0.0,0.0,0.0,0.0,0.0,0.0,0.0,0.0,0.0,0.0,0.0,0.0,0.0,0.0,0.0,0.0,0.0,0.0,0.0,0.0,0.0,0.0,0.0,0.0,0.0,0.0,0.0,0.0,0.0,0.0,0.0,0.0,0.0,0.0,0.0,0.0,0.0,0.0,0.0,0.0,0.0,0.0,0.0,0.0,0.0,0.0,0.0,0.0,0.0,0.0,0.0,0.0,0.0,0.0,0.0,0.0,0.0,0.0,0.0,0.0,0.0,0.0,0.0,0.0,0.0,0.0,0.0,0.0,0.0,0.0,0.0,0.0,0.0,0.0,0.0,0.0,0.0,0.0,0.0,0.0,0.0,0.0,0.0,0.0,0.0,0.0,0.0,0.0,0.0,0.0,0.0,0.0,0.0,0.0,0.0,0.0,0.0,0.0,0.0,0.0,0.0,0.0,0.0,0.0,0.0,0.0,0.0,0.0,0.0,0.0,0.0,0.0,0.0,0.0,0.0,0.0,0.0,0.0,0.0,0.0,0.0,0.0,0.0,0.0,0.0,0.0,0.0,0.0,0.0,0.0,0.0,0.0,0.0,0.0,0.0,0.0,0.0,0.0,0.0,0.0,0.0,0.0,0.0,0.0,0.0,0.0,0.0,0.0,0.0,0.0,0.0,0.0,0.0,0.0,0.0,0.0,0.0,0.0,0.0,0.0,0.0,0.0,0.0,0.0,0.0,0.0,0.0,0.0,0.0,0.0,0.0,0.0,0.0,0.0,0.0,0.0,0.0,0.0,0.0,0.0,0.0,0.0,0.0,0.0,0.0,0.0,0.0,0.0,0.0,0.0,0.0,0.0,0.0,0.0,0.0,0.0,0.0,0.0,0.0,0.0,0.0,0.0,0.0,0.0,0.0,0.0,0.0,0.0,0.0,0.0,0.0,0.0,0.0,0.0,0.0,0.0,0.0,0.0,0.0,0.0,0.0,0.0,0.0,0.0,0.0,0.0,0.0,0.0,0.0,0.0,0.0,0.0,0.0,0.0,0.0,0.0,0.0,0.0,0.0,0.0,0.0,0.0,0.0,0.0,0.0,0.0,0.0,0.0,0.0,0.0,0.0,0.0,0.0,0.0,0.0,0.0,0.0,0.0,0.0,0.0,0.0,0.0,0.0,0.0,0.0,0.0,0.0,0.0,0.0,0.0,0.0,0.0,0.0,0.0,0.0,0.0,0.0,0.0,0.0,0.0,0.0,0.0,0.0,0.0,0.0,0.0,0.0,0.0,0.0,0.0,0.0,0.0,0.0,0.0,0.0,0.0,0.0,0.0,0.0,0.0,0.0,0.0,0.0,0.0,0.0,0.0,0.0,0.0,0.0,0.0,0.0,0.0,0.0,0.0,0.0,0.0,0.0,0.0,0.0,0.0,0.0,0.0,0.0,0.0,0.0,0.0,0.0,0.0,0.0,0.0,0.0,0.0,0.0,0.0,0.0,0.0,0.0,0.0,0.0,0.0,0.0,0.0,0.0,0.0,0.0,0.0,0.0,0.0,0.0,0.0,0.0,0.0,0.0,0.0,0.0,0.0,0.0,0.0,0.0,0.0,0.0,0.0,0.0,0.0,0.0,0.0,0.0,0.0,0.0,0.0,0.0,0.0,0.0,0.0,0.0,0.0,0.0,0.0,0.0,0.0,0.0,0.0,0.0,0.0,0.0,0.0,0.0,0.0,0.0,0.0,0.0,0.0,0.0,0.0,0.0,0.0,0.0,0.0,0.0,0.0,0.0,0.0,0.0,0.0,0.0,0.0,0.0,0.0,0.0,0.0,0.0,0.0,0.0,0.0,0.0,0.0,0.0,0.0,0.0,0.0,0.0,0.0,0.0,0.0,0.0,0.0,0.0,0.0,0.0,0.0,0.0,0.0,0.0,0.0,0.0,0.0,0.0,0.0,0.0,0.0,0.0,0.0,0.0,0.0,0.0,0.0,0.0,0.0,0.0,0.0,0.0,0.0,0.0,0.0,0.0,0.0,0.0,0.0,0.0,0.0,0.0,0.0,0.0,0.0,0.0,0.0,0.0,0.0,0.0,0.0,0.0,0.0,0.0,0.0,0.0,0.0,0.0,0.0,0.0,0.0,0.0,0.0,0.0,0.0,0.0,-3.8176,0.0,0.0,0.0,0.0,0.0,0.0,0.0,0.0,0.0,0.0,0.0,0.0,0.0,0.0,0.0,0.0,0.0,0.0,0.0,0.0,0.0,0.0,0.0,0.0,0.0,0.0,0.0,0.0,0.0,0.0,0.0,0.0,0.0,0.0,0.0,0.0,0.0,0.0,0.0,0.0,0.0,0.0,0.0,0.0,0.0,0.0,0.0,0.0,0.0,0.0,0.0,0.0,0.0,0.0,0.0,0.0,0.0,0.0,0.0,0.0,0.0,0.0,0.0,0.0,0.0,0.0,0.0,0.0,0.0,0.0,0.0,0.0,0.0,0.0,0.0,0.0,0.0,0.0,0.0,0.0,0.0,0.0,0.0,0.0,0.0,0.0,0.0,0.0,0.0,0.0,0.0,0.0,0.0,0.0,0.0,0.0,0.0,0.0,0.0,0.0,0.0,0.0,0.0,0.0,0.0,0.0,0.0,0.0,0.0,0.0,-3.7102,-3.6312,-3.7077,-3.7951,-3.882,0.0,0.0,0.0,0.0,0.0,0.0,0.0,0.0,0.0,0.0,0.0,0.0,0.0,0.0,0.0,0.0,0.0,0.0,0.0,0.0,0.0,0.0,0.0,0.0,0.0,0.0,0.0,0.0,0.0,0.0,0.0,0.0,0.0,0.0,0.0,0.0,0.0,0.0,0.0,0.0,0.0,0.0,0.0,0.0,0.0,0.0,0.0,0.0,0.0,0.0,0.0,0.0,0.0,0.0,0.0,0.0,0.0,0.0,0.0,0.0,0.0,0.0,0.0,0.0,0.0,0.0,0.0,0.0,0.0,0.0,0.0,0.0,0.0,0.0,0.0,0.0,0.0,0.0,0.0,0.0,0.0,0.0,0.0,0.0,0.0,0.0,0.0,0.0,0.0,0.0,0.0,0.0,0.0,0.0,0.0,0.0,0.0,0.0,0.0,0.0,0.0,0.0,0.0,0.0,0.0,0.0,0.0,0.0,0.0,0.0,0.0,0.0,-3.7924,-3.8774,-3.967,0.0,0.0,0.0,0.0,0.0,0.0,0.0,0.0,0.0,0.0,0.0,0.0,0.0,0.0,0.0,0.0,0.0,0.0,0.0,0.0,0.0,0.0,0.0,0.0,0.0,0.0,0.0,0.0,0.0,0.0,0.0,0.0,0.0,0.0,0.0,0.0,0.0,0.0,0.0,0.0,0.0,0.0,0.0,0.0,0.0,0.0,0.0,0.0,0.0,0.0,0.0,0.0,0.0,0.0,0.0,0.0,0.0,0.0,0.0,0.0,0.0,0.0,0.0,0.0,0.0,0.0,0.0,0.0,0.0,0.0,0.0,0.0,0.0,0.0,0.0,0.0,0.0,0.0,0.0,0.0,0.0,0.0,0.0,0.0,0.0,0.0,0.0,0.0,0.0,0.0,0.0,0.0,0.0,0.0,0.0,0.0,0.0,0.0,0.0,0.0,0.0,0.0,0.0,0.0,0.0,0.0,0.0,0.0,0.0,0.0,-3.7168,-3.7899,-3.8736,0.0,-4.0552,0.0,0.0,0.0,0.0,0.0,0.0,0.0,0.0,0.0,0.0,0.0,0.0,0.0,0.0,0.0,0.0,0.0,0.0,0.0,0.0,0.0,0.0,0.0,0.0,0.0,0.0,0.0,0.0,0.0,0.0,0.0,0.0,0.0,0.0,0.0,0.0,0.0,0.0,0.0,0.0,0.0,0.0,0.0,0.0,0.0,0.0,0.0,0.0,0.0,0.0,0.0,0.0,0.0,0.0,0.0,0.0,0.0,0.0,0.0,0.0,0.0,0.0,0.0,0.0,0.0,0.0,0.0,0.0,0.0,0.0,0.0,0.0,0.0,0.0,0.0,0.0,0.0,0.0,0.0,0.0,0.0,0.0,0.0,0.0,0.0,0.0,0.0,0.0,0.0,0.0,0.0,0.0,0.0,0.0,0.0,0.0,0.0,0.0,0.0,0.0,0.0,0.0,0.0,0.0,0.0,0.0,0.0,0.0,0.0,0.0,-3.8892,-3.8777,-4.0084,-4.0545,0.0,0.0,0.0,0.0,0.0,0.0,0.0,0.0,0.0,0.0,0.0,0.0,0.0,0.0,0.0,0.0,0.0,0.0,0.0,0.0,0.0,0.0,0.0,0.0,0.0,0.0,0.0,0.0,0.0,0.0,0.0,0.0,0.0,0.0,0.0,0.0,0.0,0.0,0.0,0.0,0.0,0.0,0.0,0.0,0.0,0.0,0.0,0.0,0.0,0.0,0.0,0.0,0.0,0.0,0.0,0.0,0.0,0.0,0.0,0.0,0.0,0.0,0.0,0.0,0.0,0.0,0.0,0.0,0.0,0.0,0.0,0.0,0.0,0.0,0.0,0.0,0.0,0.0,0.0,0.0,0.0,0.0,0.0,0.0,0.0,0.0,0.0,0.0,0.0,0.0,0.0,0.0,0.0,0.0,0.0,0.0,0.0,0.0,0.0,0.0,0.0,0.0,0.0,0.0,0.0,0.0,0.0,0.0,0.0,0.0,-3.8799,-3.9861,-4.0015,-4.0962,-4.0946,-3.9721,0.0,0.0,0.0,0.0,0.0,0.0,0.0,0.0,0.0,0.0,0.0,0.0,0.0,0.0,0.0,0.0,0.0,0.0,0.0,0.0,0.0,0.0,0.0,0.0,0.0,0.0,0.0,0.0,0.0,0.0,0.0,0.0,0.0,0.0,0.0,0.0,0.0,0.0,0.0,0.0,0.0,0.0,0.0,0.0,0.0,0.0,0.0,0.0,0.0,0.0,0.0,0.0,0.0,0.0,0.0,0.0,0.0,0.0,0.0,0.0,0.0,0.0,0.0,0.0,0.0,0.0,0.0,0.0,0.0,0.0,0.0,0.0,0.0,0.0,0.0,0.0,0.0,0.0,0.0,0.0,0.0,0.0,0.0,0.0,0.0,0.0,0.0,0.0,0.0,0.0,0.0,0.0,0.0,0.0,0.0,0.0,0.0,0.0,0.0,0.0,0.0,0.0,0.0,0.0,0.0,0.0,0.0,0.0,0.0,-3.8861,-3.9277,-4.1585,-4.0969,-4.0569,0.0,0.0,0.0,0.0,0.0,0.0,0.0,0.0,0.0,0.0,0.0,0.0,0.0,0.0,0.0,0.0,0.0,0.0,0.0,0.0,0.0,0.0,0.0,0.0,0.0,0.0,0.0,0.0,0.0,0.0,0.0,0.0,0.0,0.0,0.0,0.0,0.0,0.0,0.0,0.0,0.0,0.0,0.0,0.0,0.0,0.0,0.0,0.0,0.0,0.0,0.0,0.0,0.0,0.0,0.0,0.0,0.0,0.0,0.0,0.0,0.0,0.0,0.0,0.0,0.0,0.0,0.0,0.0,0.0,0.0,0.0,0.0,0.0,0.0,0.0,0.0,0.0,0.0,0.0,0.0,0.0,0.0,0.0,0.0,0.0,0.0,0.0,0.0,0.0,0.0,0.0,0.0,0.0,0.0,0.0,0.0,0.0,0.0,0.0,0.0,0.0,0.0,0.0,0.0,0.0,0.0,0.0,0.0,0.0,-3.7238,-3.7738,-3.9738,-4.3124,-4.1046,-3.9985,0.0,0.0,0.0,0.0,0.0,0.0,0.0,0.0,0.0,0.0,0.0,0.0,0.0,0.0,0.0,0.0,0.0,0.0,0.0,0.0,0.0,0.0,0.0,0.0,0.0,0.0,0.0,0.0,0.0,0.0,0.0,0.0,0.0,0.0,0.0,0.0,0.0,0.0,0.0,0.0,0.0,0.0,0.0,0.0,0.0,0.0,0.0,0.0,0.0,0.0,0.0,0.0,0.0,0.0,0.0,0.0,0.0,0.0,0.0,0.0,0.0,0.0,0.0,0.0,0.0,0.0,0.0,0.0,0.0,0.0,0.0,0.0,0.0,0.0,0.0,0.0,0.0,0.0,0.0,0.0,0.0,0.0,0.0,0.0,0.0,0.0,0.0,0.0,0.0,0.0,0.0,0.0,0.0,0.0,0.0,0.0,0.0,0.0,0.0,0.0,0.0,0.0,0.0,0.0,0.0,0.0,0.0,0.0,0.0,-3.7538,0.0,-4.1046,-4.3662,-4.1431,-3.9969,0.0,0.0,0.0,0.0,0.0,0.0,0.0,0.0,0.0,0.0,0.0,0.0,0.0,0.0,0.0,0.0,0.0,0.0,0.0,0.0,0.0,0.0,0.0,0.0,0.0,0.0,0.0,0.0,0.0,0.0,0.0,0.0,0.0,0.0,0.0,0.0,0.0,0.0,0.0,0.0,0.0,0.0,0.0,0.0,0.0,0.0,0.0,0.0,0.0,0.0,0.0,0.0,0.0,0.0,0.0,0.0,0.0,0.0,0.0,0.0,0.0,0.0,0.0,0.0,0.0,0.0,0.0,0.0,0.0,0.0,0.0,0.0,0.0,0.0,0.0,0.0,0.0,0.0,0.0,0.0,0.0,0.0,0.0,0.0,0.0,0.0,0.0,0.0,0.0,0.0,0.0,0.0,0.0,0.0,0.0,0.0,0.0,0.0,0.0,0.0,0.0,0.0,0.0,0.0,0.0,0.0,0.0,0.0,-3.8385,-4.1538,-4.247,-4.2931,-4.3124,-4.22,-4.0585,0.0,0.0,0.0,0.0,0.0,0.0,0.0,0.0,0.0,0.0,0.0,0.0,0.0,0.0,0.0,0.0,0.0,0.0,0.0,0.0,0.0,0.0,0.0,0.0,0.0,0.0,0.0,0.0,0.0,0.0,0.0,0.0,0.0,0.0,0.0,0.0,0.0,0.0,0.0,0.0,0.0,0.0,0.0,0.0,0.0,0.0,0.0,0.0,0.0,0.0,0.0,0.0,0.0,0.0,0.0,0.0,0.0,0.0,0.0,0.0,0.0,0.0,0.0,0.0,0.0,0.0,0.0,0.0,0.0,0.0,0.0,0.0,0.0,0.0,0.0,0.0,0.0,0.0,0.0,0.0,0.0,0.0,0.0,0.0,0.0,0.0,0.0,0.0,0.0,0.0,0.0,0.0,0.0,0.0,0.0,0.0,0.0,0.0,0.0,0.0,0.0,0.0,0.0,0.0,0.0,0.0,0.0,0.0,0.0,-4.0893,-4.1162,-4.2439,-4.4586,-4.1739,-4.0546,0.0,0.0,0.0,0.0,0.0,0.0,0.0,0.0,0.0,0.0,0.0,0.0,0.0,0.0,0.0,0.0,0.0,0.0,0.0,0.0,0.0,0.0,0.0,0.0,0.0,0.0,0.0,0.0,0.0,0.0,0.0,0.0,0.0,0.0,0.0,0.0,0.0,0.0,0.0,0.0,0.0,0.0,0.0,0.0,0.0,0.0,0.0,0.0,0.0,0.0,0.0,0.0,0.0,0.0,0.0,0.0,0.0,0.0,0.0,0.0,0.0,0.0,0.0,0.0,0.0,0.0,0.0,0.0,0.0,0.0,0.0,0.0,0.0,0.0,0.0,0.0,0.0,0.0,0.0,0.0,0.0,0.0,0.0,0.0,0.0,0.0,0.0,0.0,0.0,0.0,0.0,0.0,0.0,0.0,0.0,0.0,0.0,0.0,0.0,0.0,0.0,0.0,0.0,0.0,0.0,0.0,0.0,0.0,0.0,-4.3316,-4.3316,-4.4047,-4.5556,-4.3017,-4.1623,-4.1623,0.0,0.0,0.0,0.0,0.0,0.0,0.0,0.0,0.0,0.0,0.0,0.0,0.0,0.0,0.0,0.0,0.0,0.0,0.0,0.0,0.0,0.0,0.0,0.0,0.0,0.0,0.0,0.0,0.0,0.0,0.0,0.0,0.0,0.0,0.0,0.0,0.0,0.0,0.0,0.0,0.0,0.0,0.0,0.0,0.0,0.0,0.0,0.0,0.0,0.0,0.0,0.0,0.0,0.0,0.0,0.0,0.0,0.0,0.0,0.0,0.0,0.0,0.0,0.0,0.0,0.0,0.0,0.0,0.0,0.0,0.0,0.0,0.0,0.0,0.0,0.0,0.0,0.0,0.0,0.0,0.0,0.0,0.0,0.0,0.0,0.0,0.0,0.0,0.0,0.0,0.0,0.0,0.0,0.0,0.0,0.0,0.0,0.0,0.0,0.0,0.0,0.0,0.0,0.0,0.0,0.0,0.0,0.0,-4.8279,-4.8432,-4.7702,-4.6056,-4.571,-4.3748,0.0,0.0,0.0,0.0,0.0,0.0,0.0,0.0,0.0,0.0,0.0,0.0,0.0,0.0,0.0,0.0,0.0,0.0,0.0,0.0,0.0,0.0,0.0,0.0,0.0,0.0,0.0,0.0,0.0,0.0,0.0,0.0,0.0,0.0,0.0,0.0,0.0,0.0,0.0,0.0,0.0,0.0,0.0,0.0,0.0,0.0,0.0,0.0,0.0,0.0,0.0,0.0,0.0,0.0,0.0,0.0,0.0,0.0,0.0,0.0,0.0,0.0,0.0,0.0,0.0,0.0,0.0,0.0,0.0,0.0,0.0,0.0,0.0,0.0,0.0,0.0,0.0,0.0,0.0,0.0,0.0,0.0,0.0,0.0,0.0,0.0,0.0,0.0,0.0,0.0,0.0,0.0,0.0,0.0,0.0,0.0,0.0,0.0,0.0,0.0,0.0,0.0,0.0,0.0,0.0,0.0,0.0,0.0,0.0,-5.0808,-5.2741,-5.2626,-5.0269,-4.724,-4.5094,0.0,0.0,0.0,0.0,0.0,0.0,0.0,0.0,0.0,0.0,0.0,0.0,0.0,0.0,0.0,0.0,0.0,0.0,0.0,0.0,0.0,0.0,0.0,0.0,0.0,0.0,0.0,0.0,0.0,0.0,0.0,0.0,0.0,0.0,0.0,0.0,0.0,0.0,0.0,0.0,0.0,0.0,0.0,0.0,0.0,0.0,0.0,0.0,0.0,0.0,0.0,0.0,0.0,0.0,0.0,0.0,0.0,0.0,0.0,0.0,0.0,0.0,0.0,0.0,0.0,0.0,0.0,0.0,0.0,0.0,0.0,0.0,0.0,0.0,0.0,0.0,0.0,0.0,0.0,0.0,0.0,0.0,0.0,0.0,0.0,0.0,0.0,0.0,0.0,0.0,0.0,0.0,0.0,0.0,0.0,0.0,0.0,0.0,0.0,0.0,0.0,0.0,0.0,0.0,0.0,0.0,0.0,0.0,-4.9586,-5.2923,-5.5472,-5.6242,-5.5115,-5.101,-4.7586,0.0,0.0,0.0,0.0,0.0,0.0,0.0,0.0,0.0,0.0,0.0,0.0,0.0,0.0,0.0,0.0,0.0,0.0,0.0,0.0,0.0,0.0,0.0,0.0,0.0,0.0,0.0,0.0,0.0,0.0,0.0,0.0,0.0,0.0,0.0,0.0,0.0,0.0,0.0,0.0,0.0,0.0,0.0,0.0,0.0,0.0,0.0,0.0,0.0,0.0,0.0,0.0,0.0,0.0,0.0,0.0,0.0,0.0,0.0,0.0,0.0,0.0,0.0,0.0,0.0,0.0,0.0,0.0,0.0,0.0,0.0,0.0,0.0,0.0,0.0,0.0,0.0,0.0,0.0,0.0,0.0,0.0,0.0,0.0,0.0,0.0,0.0,0.0,0.0,0.0,0.0,0.0,0.0,0.0,0.0,0.0,0.0,0.0,0.0,0.0,0.0,0.0,0.0,0.0,0.0,0.0,0.0,0.0,-5.1587,-5.4972,-5.7434,-5.905,-5.9588,-5.5357,-5.0356,0.0,0.0,0.0,0.0,0.0,0.0,0.0,0.0,0.0,0.0,0.0,0.0,0.0,0.0,0.0,0.0,0.0,0.0,0.0,0.0,0.0,0.0,0.0,0.0,0.0,0.0,0.0,0.0,0.0,0.0,0.0,0.0,0.0,0.0,0.0,0.0,0.0,0.0,0.0,0.0,0.0,0.0,0.0,0.0,0.0,0.0,0.0,0.0,0.0,0.0,0.0,0.0,0.0,0.0,0.0,0.0,0.0,0.0,0.0,0.0,0.0,0.0,0.0,0.0,0.0,0.0,0.0,0.0,0.0,0.0,0.0,0.0,0.0,0.0,0.0,0.0,0.0,0.0,0.0,0.0,0.0,0.0,0.0,0.0,0.0,0.0,0.0,0.0,0.0,0.0,0.0,0.0,0.0,0.0,0.0,0.0,0.0,0.0,0.0,0.0,0.0,0.0,0.0,0.0,0.0,0.0,0.0,0.0,-5.5049,-5.8357,-6.0281,-6.1358,-6.1512,-5.4867,-5.001,0.0,0.0,0.0,0.0,0.0,0.0,0.0,0.0,0.0,0.0,0.0,0.0,0.0,0.0,0.0,0.0,0.0,0.0,0.0,0.0,0.0,0.0,0.0,0.0,0.0,0.0,0.0,0.0,0.0,0.0,0.0,0.0,0.0,0.0,0.0,0.0,0.0,0.0,0.0,0.0,0.0,0.0,0.0,0.0,0.0,0.0,0.0,0.0,-4.0169,0.0,0.0,0.0,0.0,0.0,0.0,0.0,0.0,0.0,0.0,0.0,0.0,0.0,0.0,0.0,0.0,0.0,0.0,0.0,0.0,0.0,0.0,0.0,0.0,0.0,0.0,0.0,0.0,0.0,0.0,0.0,0.0,0.0,0.0,0.0,0.0,0.0,0.0,0.0,0.0,0.0,0.0,0.0,0.0,0.0,0.0,0.0,0.0,0.0,0.0,0.0,0.0,0.0,0.0,0.0,0.0,0.0,0.0,0.0,-5.5511,-5.8858,-6.0627,-6.1678,-6.187,-5.6203,-5.1664,0.0,0.0,0.0,0.0,0.0,0.0,0.0,0.0,0.0,0.0,0.0,0.0,0.0,0.0,0.0,0.0,0.0,0.0,0.0,0.0,0.0,0.0,0.0,0.0,0.0,0.0,0.0,0.0,0.0,0.0,0.0,0.0,0.0,0.0,0.0,0.0,0.0,0.0,0.0,0.0,0.0,0.0,0.0,0.0,0.0,0.0,0.0,0.0,0.0,0.0,0.0,0.0,0.0,0.0,0.0,0.0,0.0,0.0,0.0,0.0,0.0,0.0,0.0,0.0,0.0,0.0,0.0,0.0,0.0,0.0,0.0,0.0,0.0,0.0,0.0,0.0,0.0,0.0,0.0,0.0,0.0,0.0,0.0,0.0,0.0,0.0,0.0,0.0,0.0,0.0,0.0,0.0,0.0,0.0,0.0,0.0,0.0,0.0,0.0,0.0,0.0,0.0,0.0,0.0,0.0,0.0,0.0,-5.1548,-5.5164,-5.8742,-6.0281,-6.1331,-6.2024,-5.8088,-5.3933,-4.9779,0.0,0.0,0.0,0.0,0.0,0.0,0.0,0.0,0.0,0.0,0.0,0.0,0.0,0.0,0.0,0.0,0.0,0.0,0.0,0.0,0.0,0.0,0.0,0.0,0.0,0.0,0.0,0.0,0.0,0.0,0.0,0.0,0.0,0.0,0.0,0.0,0.0,0.0,-4.0215,-4.137,0.0,0.0,0.0,0.0,0.0,0.0,0.0,0.0,-4.2431,0.0,0.0,0.0,0.0,0.0,0.0,0.0,0.0,0.0,0.0,0.0,0.0,0.0,0.0,0.0,0.0,0.0,0.0,0.0,0.0,0.0,0.0,0.0,0.0,0.0,0.0,0.0,0.0,0.0,0.0,0.0,0.0,0.0,0.0,0.0,0.0,0.0,0.0,0.0,0.0,0.0,0.0,0.0,0.0,0.0,0.0,0.0,0.0,0.0,0.0,0.0,0.0,0.0,0.0,0.0,0.0,-5.2077,-5.3549,-5.6626,-6.1331,-6.1755,-6.1985,-6.1985,-5.8638,-5.479,-5.0664,0.0,0.0,0.0,0.0,0.0,0.0,0.0,0.0,0.0,0.0,0.0,0.0,0.0,0.0,0.0,0.0,0.0,0.0,0.0,0.0,0.0,0.0,0.0,0.0,0.0,0.0,0.0,0.0,0.0,0.0,0.0,0.0,0.0,0.0,0.0,0.0,0.0,0.0,0.0,-4.4171,-4.4509,0.0,0.0,0.0,0.0,0.0,0.0,0.0,0.0,-4.2569,0.0,0.0,0.0,0.0,0.0,0.0,0.0,0.0,0.0,0.0,0.0,0.0,0.0,0.0,0.0,0.0,0.0,0.0,0.0,0.0,0.0,0.0,0.0,0.0,0.0,0.0,0.0,0.0,0.0,0.0,0.0,0.0,0.0,0.0,0.0,0.0,0.0,0.0,0.0,0.0,0.0,0.0,0.0,0.0,0.0,0.0,0.0,0.0,0.0,0.0,0.0,0.0,0.0,0.0,0.0,-5.1818,-5.4895,-5.8088,-6.1293,-6.1435,-6.1447,-6.132,-5.7715,-5.4126,0.0,0.0,0.0,0.0,0.0,0.0,0.0,0.0,0.0,0.0,0.0,0.0,0.0,0.0,0.0,0.0,0.0,0.0,0.0,0.0,0.0,0.0,0.0,0.0,0.0,0.0,0.0,0.0,0.0,0.0,0.0,0.0,0.0,0.0,0.0,0.0,0.0,0.0,0.0,0.0,-4.4932,-4.5586,-4.7317,0.0,0.0,0.0,0.0,0.0,0.0,-4.3008,-4.2893,0.0,0.0,0.0,0.0,0.0,0.0,0.0,0.0,0.0,0.0,0.0,0.0,0.0,0.0,0.0,0.0,0.0,0.0,0.0,0.0,0.0,0.0,0.0,0.0,0.0,0.0,0.0,0.0,0.0,0.0,0.0,0.0,0.0,0.0,0.0,0.0,0.0,0.0,0.0,0.0,0.0,0.0,0.0,0.0,0.0,0.0,0.0,0.0,0.0,0.0,0.0,0.0,0.0,0.0,0.0,-5.101,-5.5434,-5.8858,-6.0935,-6.0896,-6.0781,-6.0704,-5.6857,-5.3472,0.0,0.0,0.0,0.0,0.0,0.0,0.0,0.0,0.0,0.0,0.0,0.0,0.0,0.0,0.0,0.0,0.0,0.0,0.0,0.0,0.0,0.0,0.0,0.0,0.0,0.0,0.0,0.0,0.0,0.0,0.0,0.0,0.0,0.0,0.0,0.0,0.0,0.0,0.0,0.0,0.0,-4.724,-4.8202,-4.6932,0.0,0.0,0.0,0.0,-4.4355,-4.4816,0.0,0.0,0.0,0.0,0.0,0.0,0.0,0.0,0.0,0.0,0.0,0.0,0.0,0.0,0.0,0.0,0.0,0.0,0.0,0.0,0.0,0.0,0.0,0.0,0.0,0.0,0.0,0.0,0.0,0.0,0.0,0.0,0.0,0.0,0.0,0.0,0.0,0.0,0.0,0.0,0.0,0.0,0.0,0.0,0.0,0.0,0.0,0.0,0.0,0.0,0.0,0.0,0.0,0.0,0.0,0.0,-5.1692,-5.4549,-5.7934,-6.1678,-6.1204,-6.0781,-6.0742,-5.7396,-5.4049,0.0,0.0,0.0,0.0,0.0,0.0,0.0,0.0,0.0,0.0,0.0,0.0,0.0,0.0,0.0,0.0,0.0,0.0,0.0,0.0,0.0,0.0,0.0,0.0,0.0,0.0,0.0,0.0,0.0,0.0,0.0,0.0,0.0,0.0,0.0,0.0,0.0,0.0,0.0,0.0,0.0,-5.0702,-4.9433,-4.7817,-4.6923,0.0,0.0,-4.7778,-4.8548,-5.0548,0.0,0.0,0.0,0.0,0.0,0.0,0.0,0.0,0.0,0.0,0.0,0.0,0.0,0.0,0.0,0.0,0.0,0.0,0.0,0.0,0.0,0.0,0.0,0.0,0.0,0.0,0.0,0.0,0.0,0.0,0.0,0.0,0.0,0.0,0.0,0.0,0.0,0.0,0.0,0.0,0.0,0.0,0.0,0.0,0.0,0.0,0.0,0.0,0.0,0.0,0.0,0.0,0.0,0.0,0.0,-4.8894,-5.1279,-5.6088,-5.9511,-6.1243,-6.1012,-6.055,-6.0089,-5.5857,-5.2202,0.0,0.0,0.0,0.0,0.0,0.0,0.0,0.0,0.0,0.0,0.0,0.0,0.0,0.0,0.0,0.0,0.0,0.0,0.0,0.0,0.0,0.0,0.0,0.0,0.0,0.0,0.0,0.0,0.0,0.0,0.0,0.0,0.0,0.0,0.0,0.0,0.0,0.0,0.0,0.0,0.0,0.0,-5.0779,-5.0202,0.0,0.0,0.0,-4.9548,-4.9433,0.0,0.0,0.0,0.0,0.0,0.0,0.0,0.0,0.0,0.0,0.0,0.0,0.0,0.0,0.0,0.0,0.0,0.0,0.0,0.0,0.0,0.0,0.0,0.0,0.0,0.0,0.0,0.0,0.0,0.0,0.0,0.0,0.0,0.0,0.0,0.0,0.0,0.0,0.0,0.0,0.0,0.0,0.0,0.0,0.0,0.0,0.0,0.0,0.0,0.0,0.0,0.0,0.0,0.0,0.0,0.0,0.0,-5.1087,-5.7473,-6.0896,-6.1089,-6.0704,-6.0165,-5.9435,-5.4972,0.0,0.0,0.0,0.0,0.0,0.0,0.0,0.0,0.0,0.0,0.0,0.0,0.0,0.0,0.0,0.0,0.0,0.0,0.0,0.0,0.0,0.0,0.0,0.0,0.0,0.0,0.0,-3.366,0.0,0.0,0.0,0.0,0.0,0.0,0.0,0.0,0.0,0.0,0.0,0.0,0.0,0.0,-5.0471,-5.1731,-5.2077,-5.2241,0.0,0.0,-5.1558,-5.1318,-5.2405,-5.1712,0.0,0.0,0.0,0.0,0.0,0.0,0.0,0.0,0.0,0.0,0.0,0.0,0.0,0.0,0.0,0.0,0.0,0.0,0.0,0.0,0.0,0.0,0.0,0.0,0.0,0.0,0.0,0.0,0.0,0.0,0.0,0.0,0.0,0.0,0.0,0.0,0.0,0.0,0.0,0.0,0.0,0.0,0.0,0.0,0.0,0.0,0.0,0.0,0.0,0.0,0.0,0.0,0.0,0.0,-5.0164,-5.1962,-5.7742,-6.1166,-6.1908,-6.0435,-5.955,-5.9435,-5.6126,-5.2356,0.0,0.0,0.0,0.0,0.0,0.0,0.0,0.0,0.0,0.0,0.0,0.0,0.0,0.0,0.0,0.0,0.0,0.0,0.0,0.0,0.0,0.0,0.0,0.0,0.0,0.0,0.0,0.0,0.0,0.0,0.0,0.0,0.0,0.0,0.0,0.0,0.0,0.0,0.0,0.0,0.0,-5.1769,-5.1885,-5.2615,-5.3933,0.0,-5.5241,-5.478,-5.6252,-5.8484,-5.7627,-5.0317,0.0,0.0,0.0,0.0,0.0,0.0,0.0,0.0,0.0,0.0,0.0,0.0,0.0,0.0,0.0,0.0,0.0,0.0,0.0,0.0,0.0,0.0,0.0,0.0,0.0,0.0,0.0,0.0,0.0,0.0,0.0,0.0,0.0,0.0,0.0,0.0,0.0,0.0,0.0,0.0,0.0,0.0,0.0,0.0,0.0,0.0,0.0,0.0,0.0,0.0,0.0,0.0,0.0,-4.8933,-5.1202,-5.7011,-6.0165,-6.0473,-5.9858,-5.9011,-5.7973,-5.5203,-5.1702,0.0,0.0,0.0,0.0,0.0,0.0,0.0,0.0,0.0,0.0,0.0,0.0,0.0,0.0,0.0,0.0,0.0,0.0,0.0,0.0,0.0,0.0,0.0,0.0,0.0,0.0,0.0,0.0,-3.6353,-3.6661,-3.7007,0.0,0.0,0.0,0.0,0.0,0.0,0.0,0.0,0.0,0.0,-5.2462,-5.401,-5.5472,0.0,0.0,-5.7242,-5.7049,-5.7703,-5.6819,-5.478,-5.0818,-4.8279,0.0,0.0,0.0,0.0,0.0,0.0,0.0,0.0,0.0,0.0,0.0,0.0,0.0,0.0,0.0,0.0,0.0,0.0,0.0,0.0,0.0,0.0,0.0,0.0,0.0,0.0,0.0,0.0,0.0,0.0,0.0,0.0,0.0,0.0,0.0,0.0,0.0,0.0,0.0,0.0,0.0,0.0,0.0,0.0,0.0,0.0,0.0,0.0,0.0,0.0,0.0,0.0,-4.8048,-5.0317,-5.6126,-5.9165,-5.9127,-5.8896,-5.8165,-5.6983,-5.4549,-5.1318,0.0,0.0,0.0,0.0,0.0,0.0,0.0,0.0,0.0,0.0,0.0,0.0,0.0,0.0,0.0,0.0,0.0,0.0,0.0,0.0,0.0,0.0,0.0,0.0,0.0,0.0,0.0,0.0,-3.7392,-3.7353,-3.7584,0.0,0.0,0.0,0.0,0.0,0.0,0.0,0.0,0.0,0.0,-5.351,-5.578,-5.7357,-5.8269,-5.8269,-5.7857,-5.7627,-5.7896,-5.5895,-5.3587,-5.1433,0.0,0.0,0.0,0.0,0.0,0.0,0.0,0.0,0.0,0.0,0.0,0.0,0.0,0.0,0.0,0.0,0.0,0.0,0.0,0.0,0.0,0.0,0.0,0.0,0.0,0.0,0.0,-4.0516,0.0,0.0,-4.0477,0.0,0.0,0.0,0.0,0.0,0.0,0.0,0.0,0.0,0.0,0.0,0.0,0.0,0.0,0.0,0.0,0.0,0.0,0.0,0.0,0.0,0.0,-4.774,-4.9471,-5.5318,-5.8319,-5.8319,-5.7473,-5.706,-5.6907,-5.4511,-5.1587,-4.8077,0.0,0.0,0.0,0.0,0.0,0.0,0.0,0.0,0.0,0.0,0.0,0.0,0.0,0.0,0.0,0.0,0.0,0.0,0.0,0.0,0.0,0.0,0.0,0.0,0.0,0.0,-3.6815,-3.6038,-3.5923,0.0,0.0,0.0,0.0,0.0,0.0,0.0,0.0,0.0,-4.8894,-5.2279,-5.5049,-5.6676,-5.7703,-5.8269,-5.8269,-5.6896,-5.6088,-5.6945,-5.6868,-5.578,0.0,0.0,0.0,0.0,0.0,0.0,0.0,0.0,0.0,0.0,0.0,0.0,0.0,0.0,0.0,0.0,0.0,0.0,0.0,0.0,0.0,0.0,0.0,0.0,0.0,0.0,0.0,-4.4085,-4.3017,0.0,0.0,0.0,0.0,0.0,0.0,0.0,0.0,0.0,0.0,0.0,-4.7663,-4.7124,0.0,0.0,0.0,0.0,0.0,0.0,0.0,0.0,0.0,0.0,0.0,0.0,-4.7432,-5.0327,-5.4972,-5.7434,-5.7434,-5.7137,-5.6483,-5.5357,-5.3933,-5.0818,-4.574,0.0,0.0,0.0,0.0,0.0,0.0,0.0,0.0,0.0,0.0,0.0,0.0,0.0,0.0,0.0,0.0,0.0,0.0,0.0,0.0,0.0,0.0,0.0,0.0,0.0,-3.82,0.0,0.0,0.0,0.0,0.0,0.0,0.0,0.0,0.0,0.0,0.0,-4.6441,-4.9817,-5.2202,-5.4241,-5.5895,-5.7357,-5.8269,0.0,0.0,0.0,0.0,0.0,0.0,0.0,0.0,0.0,0.0,0.0,0.0,0.0,0.0,-4.8971,-4.5047,-4.4085,-4.3978,-4.4278,0.0,0.0,0.0,0.0,0.0,0.0,0.0,0.0,0.0,0.0,0.0,0.0,0.0,0.0,-4.7009,-4.6432,-4.5316,0.0,0.0,0.0,0.0,0.0,0.0,0.0,0.0,-4.8634,-4.9817,-5.0317,-5.001,-4.9625,-4.9038,-4.7625,-4.4932,0.0,0.0,0.0,0.0,0.0,0.0,0.0,0.0,-4.7432,-5.0289,-5.4406,-5.656,-5.6522,-5.6291,-5.5588,-5.4511,-5.3087,-4.9817,-4.447,-4.2209,-3.9431,0.0,0.0,0.0,0.0,0.0,0.0,0.0,0.0,0.0,0.0,0.0,0.0,0.0,0.0,0.0,0.0,0.0,0.0,0.0,0.0,0.0,0.0,0.0,-3.8507,0.0,0.0,0.0,0.0,0.0,0.0,0.0,0.0,0.0,-4.497,-4.6471,-4.8519,-5.1597,-5.3203,-5.4587,-5.5934,0.0,0.0,0.0,0.0,0.0,0.0,0.0,-5.2395,-5.3472,-5.1625,-5.0394,-5.1654,-5.2626,-5.2664,-5.0981,0.0,0.0,-4.8163,-4.7394,-4.7548,-4.8125,-4.8894,-4.9586,-5.0202,-5.101,-5.1433,0.0,0.0,0.0,0.0,-4.6772,0.0,0.0,0.0,-4.9125,-4.9317,0.0,-4.8856,0.0,0.0,0.0,0.0,-4.5893,-4.8933,0.0,0.0,-5.4703,-5.5983,-5.4472,-5.3626,-5.3241,-5.3203,-5.2308,-5.0192,-4.6885,-4.2085,0.0,0.0,0.0,0.0,0.0,0.0,-4.7778,-4.9586,-5.3587,-5.5665,-5.5626,-5.4895,-5.4472,-5.4318,-5.1972,-4.8711,-4.4701,-4.4355,-4.2008,-3.7115,-3.6077,0.0,0.0,0.0,0.0,0.0,0.0,0.0,0.0,0.0,0.0,0.0,0.0,0.0,0.0,0.0,0.0,0.0,0.0,0.0,0.0,-3.7469,0.0,0.0,0.0,0.0,0.0,0.0,0.0,0.0,0.0,0.0,-4.6885,-4.9125,-5.1597,-5.4049,0.0,0.0,0.0,0.0,-5.6676,-5.5857,-5.5049,-5.4587,-5.4587,-5.4472,-5.4434,-5.4511,0.0,0.0,-5.2462,-5.2769,-5.2895,-5.1202,-5.2933,-5.428,-5.3318,-5.1818,-5.1356,-5.2779,-5.2549,-5.2692,-5.4126,-5.4934,-5.5549,-5.3147,0.0,0.0,0.0,0.0,-5.0123,-5.1613,-5.4241,-5.3741,-5.3126,-5.2356,-5.0702,0.0,0.0,0.0,0.0,0.0,0.0,-4.9708,-5.1488,-5.2717,-5.4017,-5.5318,-5.5088,-5.4972,-5.4934,-5.4164,-5.2626,-5.0423,-4.7817,-4.4085,-3.9515,0.0,0.0,0.0,0.0,-4.8894,-5.1164,-5.3587,-5.4857,-5.4818,-5.401,-5.328,-5.2654,-5.0779,-4.8894,-4.7048,-4.5855,-4.3739,-4.05,-3.8969,0.0,0.0,0.0,0.0,0.0,0.0,0.0,0.0,0.0,0.0,0.0,0.0,0.0,0.0,0.0,0.0,0.0,0.0,0.0,-3.6546,-3.693,-3.7231,0.0,0.0,0.0,0.0,0.0,0.0,0.0,0.0,0.0,-5.0154,-5.0587,-5.1395,0.0,0.0,-5.4703,-5.4318,-5.5318,-5.5972,-5.5742,-5.5511,0.0,-5.5357,-5.4357,-5.3972,-5.5164,-5.6049,-5.6165,-5.4818,-5.5318,-5.5549,-5.4444,-5.4857,-5.528,-5.5049,-5.4626,-5.4434,-5.4895,-5.5241,-5.5665,-5.6214,-5.6934,-5.7357,-5.8042,-5.4915,-5.1867,-5.1825,-5.3694,-5.3454,-5.4995,-5.7631,-5.7,-5.6319,-5.5588,-5.3944,-5.1972,-4.9856,-4.8827,0.0,0.0,0.0,-5.1156,-5.3311,-5.3332,-5.4171,-5.5626,-5.5703,-5.5703,-5.5665,-5.5203,-5.428,-5.2895,-5.1202,-4.824,-4.4124,0.0,-4.3209,-4.4624,-4.7278,-4.9548,-5.1395,-5.3126,-5.3972,-5.3972,-5.3126,-5.2279,-5.1433,-5.0433,-4.9356,-4.8125,-4.7124,-4.5432,-4.2893,-4.12,-3.8892,0.0,0.0,0.0,0.0,0.0,0.0,0.0,0.0,0.0,0.0,0.0,-3.3513,-3.1852,0.0,0.0,0.0,-3.4821,-3.6399,-3.8046,-3.8507,0.0,0.0,0.0,0.0,0.0,0.0,0.0,-4.5893,-4.7586,-4.9433,-5.1577,-5.1779,-5.2318,-5.3972,-5.4357,-5.4434,-5.4241,0.0,-5.5703,-5.5703,-5.5703,-5.5703,-5.5665,-5.4857,-5.4549,-5.5511,-5.6137,-5.6319,-5.5818,-5.6126,-5.6291,-5.5857,-5.5703,-5.5703,-5.5703,-5.5703,-5.5857,-5.6175,-5.6637,-5.706,-5.7434,-5.7934,-5.8127,-6.2065,-6.0201,-5.5476,-5.4877,-5.6919,-5.6272,-5.7789,-6.0556,-5.9065,-5.8781,-5.9281,-5.7703,-5.6126,-5.4423,-5.2092,0.0,-5.3289,-5.3278,-5.4095,-5.5577,-5.5671,-5.5703,-5.5703,-5.5703,-5.5703,-5.5703,-5.5703,-5.5241,-5.4318,-5.2779,-5.1125,-4.9394,-4.7086,-4.624,-4.6923,-4.8548,-4.9817,-5.0702,-5.2202,-5.301,-5.2972,-5.2231,-5.1385,-5.0635,-5.0596,-4.9779,-4.8077,-4.8009,-4.6894,-4.4509,-4.2816,-4.0777,-3.8315,0.0,0.0,0.0,0.0,0.0,0.0,0.0,0.0,0.0,0.0,0.0,0.0,0.0,0.0,0.0,-3.6815,0.0,-4.0554,-4.1431,0.0,0.0,0.0,-4.247,-4.3393,-4.4932,-4.6201,-4.7009,0.0,0.0,-5.1692,-5.2615,-5.3664,-5.528,-5.4972,-5.4818,-5.5511,-5.5626,-5.5703,-5.5703,-5.5703,-5.5703,-5.5703,-5.5626,-5.5588,-5.5665,-5.5703,-5.5742,-5.5703,-5.5703,-5.5703,-5.5703,-5.5703,-5.5703,-5.5703,-5.5703,-5.5945,-5.6676,-5.6868,-5.7088,-5.7742,-5.7934,-5.7896,-6.2132,-6.0596,-5.9355,-5.9189,-5.9688,-5.888,-5.9377,-6.0642,-5.9665,-5.8973,-5.8511,-5.7473,-5.6374,-5.5281,-5.4603,-5.4468,-5.4851,-5.484,-5.5095,-5.5508,-5.5558,-5.5615,-5.5703,-5.5703,-5.5703,-5.5703,-5.5703,-5.4934,-5.3549,-5.3126,-5.1702,-4.9471,-4.8779,-4.7971,-4.7,-4.8548,-4.9817,-5.0702,-5.1087,-5.1289,-5.1289,-5.1087,-5.0558,-4.975,-4.9702,-4.8894,-4.7278,-4.7154,-4.6586,-4.5325,-4.3701,-4.1893,-3.9977,-3.693,0.0,0.0,0.0,0.0,0.0,0.0,0.0,0.0,0.0,-3.6276,-3.2045,0.0,-3.7084,0.0,-3.9392,-4.1316,-4.2354,-4.2662,0.0,0.0,-4.5086,-4.5278,-4.674,-4.7855,-4.8586,-4.8779,-4.974,-5.0779,-5.1769,-5.2077,-5.2626,-5.3664,-5.4741,-5.5241,-5.4895,-5.5318,-5.5703,-5.5703,-5.5703,-5.5703,-5.5703,-5.5703,-5.5703,-5.5703,-5.5703,-5.5703,-5.5703,-5.5703,-5.5703,-5.5703,-5.5703,-5.5703,-5.5703,-5.5703,-5.5742,-5.5972,-5.6011,-5.6049,-5.628,-5.6357,-5.6357,-6.2209,-6.0734,-6.0734,-6.0734,-6.0695,-6.0234,-6.0311,-6.0669,-5.9846,-5.905,-5.8204,-5.6983,-5.6132,-5.5615,-5.5508,-5.5437,-5.5389,-5.5451,-5.5476,-5.5523,-5.5581,-5.5649,-5.5703,-5.5703,-5.5703,-5.5703,-5.5703,-5.5049,-5.3818,-5.3395,-5.2279,-5.051,-5.0164,-4.9317,-4.8086,-4.8548,-4.9086,-4.951,-4.9933,-5.0279,-5.0673,-5.0327,-4.9894,-4.9394,-4.9048,-4.8048,-4.6394,-4.6317,-4.574,-4.4547,-4.3585,-4.2277,-4.0593,-3.8738,-3.6969,0.0,0.0,0.0,0.0,0.0,0.0,0.0,0.0,0.0,0.0,0.0,-3.8892,-3.9623,-4.1662,-4.3431,-4.4662,-4.5124,-4.6047,-4.7817,-4.7586,-4.7826,-4.9125,-4.9663,-4.9981,-4.9971,-5.0394,-5.102,-5.1769,-5.1923,-5.2192,-5.3077,-5.401,-5.4587,-5.4549,-5.4895,-5.528,-5.5626,-5.5703,-5.5703,-5.5703,-5.5703,-5.5703,-5.5703,-5.5703,-5.5703,-5.5703,-5.5703,-5.5703,-5.5703,-5.5703,-5.5703,-5.5703,-5.5703,-5.5703,-5.5703,-5.5703,-5.5703,-5.5703,-5.5703,-5.5703,-6.2271,-6.0819,-6.0781,-6.0781,-6.0781,-6.0781,-6.0757,-6.0671,-5.9873,-5.8973,-5.805,-5.6423,-5.566,-5.5615,-5.5566,-5.5508,-5.5413,-5.5443,-5.5389,-5.5343,-5.538,-5.5434,-5.5549,-5.5549,-5.5588,-5.5703,-5.5588,-5.5126,-5.4318,-5.3433,-5.2538,-5.1577,-5.0894,-5.0087,-4.924,-4.8471,-4.8077,-4.8115,-4.8933,-4.974,-5.0481,-4.9663,-4.9202,-4.9048,-4.8259,-4.7066,-4.5518,-4.5458,-4.4803,-4.3355,-4.3278,-4.2508,-4.0939,-4.0516,-3.97,0.0,-3.7969,0.0,0.0,0.0,0.0,0.0,0.0,0.0,0.0,-3.9938,-4.0893,-4.2354,-4.397,-4.5586,-4.7077,-4.7971,-4.874,-4.9471,-4.9586,-4.9856,-5.0596,-5.0702,-5.0702,-5.0702,-5.0702,-5.0971,-5.1625,-5.1731,-5.2038,-5.2626,-5.2818,-5.3241,-5.4126,-5.4434,-5.4818,-5.5549,-5.5703,-5.5703,-5.5703,-5.5703,-5.5703,-5.5703,-5.5703,-5.5703,-5.5703,-5.5703,-5.5703,-5.5703,-5.5703,-5.5703,-5.5703,-5.5703,-5.5626,-5.5511,-5.5588,-5.5703,-5.5703,-5.5703,-5.5703,-6.2308,-6.0819,-6.0781,-6.0781,-6.0781,-6.0781,-6.0781,-6.0731,-5.9846,-5.8665,-5.7203,-5.6082,-5.5588,-5.5615,-5.5558,-5.5523,-5.5423,-5.4833,-5.4561,-5.4594,-5.3925,-5.3996,-5.4703,-5.4741,-5.5088,-5.5626,-5.5049,-5.428,-5.3433,-5.2538,-5.1385,-4.9894,-4.974,-4.9202,-4.8394,0.0,0.0,0.0,-4.8971,-4.9471,-4.9586,-4.8817,-4.8048,-4.7394,-4.6552,0.0,-4.4641,-4.4631,-4.4523,-4.4132,-4.4085,0.0,0.0,0.0,0.0,0.0,0.0,0.0,0.0,0.0,0.0,0.0,-4.2354,-4.1431,-4.0477,-4.347,-4.5615,-4.5932,-4.7432,-4.8548,-4.8894,-4.9702,-5.0279,-5.0442,-5.0442,-5.0519,-5.0702,-5.0702,-5.0702,-5.0702,-5.0702,-5.0741,-5.0933,-5.0933,-5.101,-5.1202,-5.1202,-5.1818,-5.328,-5.401,-5.4741,-5.5511,-5.5665,-5.5665,-5.5703,-5.5703,-5.5703,-5.5703,-5.5703,-5.5665,-5.5626,-5.5626,-5.5665,-5.5626,-5.5703,-5.5665,-5.5665,-5.5703,-5.5395,-5.4857,-5.5241,-5.5703,-5.5703,-5.5703,-5.5703,-6.232,-6.0819,-6.0781,-6.0781,0.0,-6.0781,-6.0781,-6.0742,-5.9896,-5.855,-5.6934,-5.6066,-5.5649,-5.5615,-5.5577,-5.5543,-5.5485,-5.4737,-5.4375,-5.4348,-5.3524,-5.3402,-5.3857,-5.3857,-5.4087,-5.4434,-5.4049,-5.3395,-5.2587,-5.2115,-5.1279,-5.0058,-5.0048,-4.9817,-4.9394,-4.9394,-4.9163,-4.874,-4.9163,-4.9394,-4.9356,-4.8548,-4.774,-4.6932,-4.6086,0.0,0.0,0.0,0.0,0.0,0.0,0.0,0.0,0.0,0.0,-4.1785,-4.1354,-4.147,-4.2316,-4.2816,-4.3778,-4.5432,-4.597,-4.547,-4.3816,-4.6009,-4.7663,-4.8086,-4.8933,-4.9586,-5.001,-5.0442,-5.0702,-5.0702,-5.0702,-5.0702,-5.0702,-5.0702,-5.0702,-5.0702,-5.0702,-5.0702,-5.0702,-5.0702,-5.0702,-5.0702,-5.0702,-5.1164,-5.2356,-5.3318,-5.428,-5.5434,-5.5318,-5.5241,-5.5626,-5.5703,-5.5511,-5.5241,-5.5088,-5.4934,-5.4511,-5.4472,-5.4472,-5.4472,-5.4472,-5.4472,-5.4472,-5.4472,-5.4318,-5.401,-5.4164,-5.4434,-5.4511,-5.5088,-5.5703,-6.232,-6.0819,-6.0781,-6.0781,-6.0781,-6.0781,-6.0781,-6.0742,-5.9704,0.0,0.0,-5.6099,-5.5682,-5.5638,-5.5643,-5.5572,-5.529,-5.4583,-5.4182,-5.3898,-5.3144,-5.2818,-5.2972,-5.2962,-5.3049,-5.3203,-5.3038,-5.2587,-5.1923,-5.1769,-5.1356,-5.075,-5.0702,-5.0702,-5.0702,-5.0702,-5.0366,-4.9663,-4.9317,-4.9163,-4.9163,-4.8202,-4.7355,-4.6663,-4.5877,-4.5117,-4.4523,-4.4537,-4.4208,-4.3524,-4.3583,-4.3547,-4.3373,-4.3948,-4.4316,-4.4355,-4.5133,-4.5671,-4.5825,-4.6624,-4.7201,-4.7346,-4.874,-4.8971,-4.7471,-4.8086,-4.8856,-4.9548,-4.9625,-4.9933,-5.0635,-5.0702,-5.0702,-5.0702,-5.0702,-5.0702,-5.0702,-5.0702,-5.0702,-5.0702,-5.0702,-5.0702,-5.0702,-5.0702,-5.0702,-5.0702,-5.0702,-5.0971,-5.1808,-5.2692,-5.3703,-5.478,-5.4587,-5.4511,-5.5011,-5.5164,-5.4972,-5.4395,-5.428,-5.401,-5.3433,-5.3203,-5.3203,-5.3356,-5.3203,-5.328,-5.3241,-5.3318,-5.3203,-5.3203,-5.3203,-5.3203,-5.3318,-5.428,-5.5126,-6.232,-6.0781,-6.0781,-6.0781,-6.0781,-6.0781,-6.0781,-6.0666,-5.9165,-5.7934,-5.6945,-5.6088,-5.5703,-5.5692,-5.5703,-5.5308,-5.4605,-5.3769,-5.2962,-5.2221,-5.1433,-5.1395,-5.2077,-5.2077,-5.2462,-5.3126,-5.2462,-5.2038,-5.1846,-5.1202,-5.0827,-5.0712,-5.0702,-5.0702,-5.0702,-5.0702,-5.0635,-5.0481,-4.9048,-4.8279,-4.8279,-4.674,-4.5902,-4.5757,-4.5117,-4.4691,-4.4498,-4.4691,-4.4669,-4.451,-4.5099,-4.5104,-4.4341,-4.4291,-4.4316,-4.4355,-4.5133,-4.5932,-4.6663,-4.7471,-4.824,-4.9009,-4.9971,-5.0096,-4.9202,-4.9817,-5.0404,-5.0519,-5.0471,-5.0558,-5.0702,-5.0702,-5.0702,-5.0702,-5.0702,-5.0702,-5.0702,-5.0702,-5.0702,-5.0702,-5.0702,-5.0702,-5.0702,-5.0702,-5.0702,-5.0702,-5.0702,-5.0971,-5.1741,-5.2664,-5.3203,-5.3472,-5.3472,-5.3433,-5.3703,-5.3587,-5.3587,-5.3433,-5.3395,-5.3318,-5.3049,-5.2972,-5.2972,-5.3126,-5.301,-5.3049,-5.3087,-5.3203,-5.3049,-5.301,-5.2972,-5.3049,-5.301,-5.3318,-5.3587,-6.232,-6.0858,-6.0781,-6.0781,-6.0781,-6.0781,-6.0781,-6.0666,-5.9511,-5.8473,-5.7588,-5.628,-5.5703,-5.5703,-5.5703,-5.5241,-5.4472,-5.3587,-5.2731,-5.1885,-5.1048,-5.0904,-5.1241,-5.1241,-5.1471,-5.1818,-5.1433,-5.1241,-5.1202,-5.0866,-5.0702,-5.0702,-5.0702,-5.0702,-5.0702,-5.0702,-5.0702,-5.0702,-4.9904,-4.9048,-4.8125,-4.7414,-4.6614,-4.5735,-4.5434,-4.5341,-4.5356,-4.5437,-4.5499,-4.5464,-4.577,-4.5725,-4.5233,-4.5155,-4.531,-4.5671,-4.6086,-4.6894,-4.8163,-4.9048,-4.9663,-5.0087,-5.0481,-5.0558,-5.0164,-5.0481,-5.0702,-5.0702,-5.0702,-5.0702,-5.0702,-5.0702,-5.0702,-5.0702,-5.0702,-5.0702,-5.0702,-5.0702,-5.0702,-5.0702,-5.0702,-5.0702,-5.0702,-5.0702,-5.0702,-5.0702,-5.0702,-5.0866,-5.1202,-5.1625,-5.2202,-5.2933,-5.2818,-5.2741,-5.3087,-5.3203,-5.301,-5.2577,-5.25,-5.2318,-5.1972,-5.1856,-5.1856,-5.1818,-5.1856,-5.1856,-5.1856,-5.1856,-5.1856,-5.1818,-5.1856,-5.1856,-5.1856,-5.1856,-5.2164,-6.232,-6.0819,-6.0781,-6.0781,-6.0781,-6.0781,-6.0781,-6.0704,-5.9858,-5.905,-5.8127,-5.6665,-5.5895,-5.5703,-5.5703,-5.5126,-5.4203,-5.351,-5.2615,-5.1625,-5.101,-5.0702,-5.0702,-5.0702,-5.0702,-5.0702,-5.0702,-5.0702,-5.0702,-5.0702,-5.0702,-5.0702,-5.0702,-5.0702,-5.0702,-5.0702,-5.0702,-5.0702,-5.0702,-4.9971,-4.8471,-4.8141,-4.7341,-4.6194,-4.5935,-4.5973,-4.6095,-4.6154,-4.6164,-4.6122,-4.6109,-4.6039,-4.5879,-4.5802,-4.6136,-4.681,-4.7066,-4.7932,-4.9548,-5.0289,-5.0702,-5.0702,-5.0702,-5.0702,-5.0702,-5.0702,-5.0702,-5.0702,-5.0702,-5.0702,-5.0702,-5.0702,-5.0702,-5.0702,-5.0702,-5.0702,-5.0702,-5.0702,-5.0702,-5.0702,-5.0702,-5.0702,-5.0702,-5.0702,-5.0702,-5.0702,-5.0818,-5.0971,-5.0981,-5.1125,-5.1856,-5.2549,-5.2462,-5.2192,-5.2818,-5.2885,-5.251,-5.1769,-5.1625,-5.1395,-5.0971,-5.0741,-5.0702,-5.0818,-5.0779,-5.0866,-5.0741,-5.0741,-5.0894,-5.1125,-5.1087,-5.0818,-5.0856,-5.0856,-5.1087,-6.232,-6.0896,-6.0781,-6.0781,-6.0781,-6.0781,-6.0781,-6.0704,-5.9896,-5.905,-5.8204,-5.728,-5.6445,-5.5742,-5.5703,-5.4857,-5.3395,-5.3241,-5.2356,-5.0933,-5.0741,-5.0702,-5.0702,-5.0702,-5.0702,-5.0702,-5.0702,-5.0702,-5.0702,-5.0702,-5.0702,-5.0702,-5.0702,-5.0702,-5.0702,-5.0702,-5.0702,-5.0702,-5.0702,-5.024,-4.9279,-4.7797,-4.699,-4.6907,-4.624,-4.5973,-4.6091,-4.6194,-4.6294,-4.6292,-4.617,-4.6095,-4.6064,-4.5902,-4.6141,-4.6962,-4.7636,-4.874,-5.0366,-5.0673,-5.0702,-5.0702,-5.0702,-5.0702,-5.0702,-5.0702,-5.0702,-5.0702,-5.0702,-5.0702,-5.0702,-5.0702,-5.0702,-5.0702,-5.0702,-5.0702,-5.0702,-5.0702,-5.0702,-5.0702,-5.0702,-5.0702,-5.0702,-5.0702,-5.0702,-5.0712,-5.1279,-5.1625,-5.1741,-5.2279,-5.2818,-5.301,-5.251,-5.2038,-5.2115,-5.2038,-5.1779,-5.1048,-5.0818,-5.0779,-5.0702,-5.0702,-5.0702,-5.0702,-5.0702,-5.0702,-5.0702,-5.0702,-5.0933,-5.1202,-5.1048,-5.0702,-5.0702,-5.0702,-5.0904,-6.232,-6.0819,-6.0781,-6.0781,-6.0781,-6.0781,-6.0781,-6.0742,-6.0435,-5.955,-5.8357,-5.7934,-5.7011,-5.5703,-5.5703,-5.478,-5.3241,-5.3203,-5.2279,-5.0779,-5.0702,-5.0702,-5.0702,-5.0702,-5.0702,-5.0702,-5.0702,-5.0702,-5.0702,-5.0702,-5.0702,-5.0702,-5.0702,-5.0702,-5.0702,-5.0702,-5.0702,-5.0702,-5.0702,-5.0279,-4.9375,-4.83,-4.7272,-4.638,-4.6052,-4.5939,-4.5983,-4.606,-4.6102,-4.6176,-4.6154,-4.6098,-4.6098,-4.5939,-4.6429,-4.7688,-4.8955,-4.9933,-5.0625,-5.0702,-5.0702,-5.0702,-5.0702,-5.0702,-5.0702,-5.0702,-5.0702,-5.0702,-5.0702,-5.0702,-5.0702,-5.0702,-5.0702,-5.0702,-5.0702,-5.0702,-5.0702,-5.0702,-5.0702,-5.0702,-5.0702,-5.0702,-5.0702,-5.0702,-5.0702,-5.0779,-5.1395,-5.1923,-5.2,-5.2615,-5.3356,-5.3818,-5.3626,-5.2972,-5.2231,-5.1923,-5.1548,-5.0971,-5.0702,-5.0702,-5.0702,-5.0702,-5.0702,-5.0702,-5.0702,-5.0702,-5.0702,-5.0702,-5.0818,-5.1135,-5.1087,-5.0702,-5.0702,-5.0702,-5.0702,-6.232,-6.0896,-6.0781,-6.0781,-6.0781,-6.0781,-6.0781,-6.0781,-6.0781,-5.9858,-5.8357,-5.8269,-5.7357,-5.5857,-5.5703,-5.478,-5.3318,-5.3203,-5.2279,-5.0818,-5.0702,-5.0702,-5.0702,-5.0702,-5.0702,-5.0702,-5.0702,-5.0702,-5.0702,-5.0702,-5.0702,-5.0702,-5.0702,-5.0702,-5.0702,-5.0702,-5.0702,-5.0673,-5.0481,-4.9933,-4.9067,-4.8287,-4.7334,-4.6225,-4.5938,-4.5886,-4.588,-4.5911,-4.5983,-4.6025,-4.6087,-4.6091,-4.6064,-4.5934,-4.6584,-4.8137,-4.9545,-5.0442,-5.0664,-5.0702,-5.0702,-5.0702,-5.0702,-5.0702,-5.0702,-5.0702,-5.0702,-5.0702,-5.0702,-5.0702,-5.0702,-5.0702,-5.0702,-5.0702,-5.0702,-5.0702,-5.0702,-5.0702,-5.0702,-5.0702,-5.0702,-5.0702,-5.0702,-5.0712,-5.075,-5.1087,-5.1741,-5.2423,-5.2654,-5.3395,-5.4164,-5.4741,-5.4818,-5.4087,-5.2615,-5.2318,-5.1856,-5.101,-5.0702,-5.0702,-5.0702,-5.0702,-5.0702,-5.0702,-5.0702,-5.0702,-5.0702,-5.0702,-5.0712,-5.074,-5.0758,-5.0747,-5.0786,-5.0764,-5.0756,-6.232,-6.0896,-6.0781,-6.0781,-6.0781,-6.0781,-6.0781,-6.0781,-6.0781,-5.9858,-5.8473,-5.8308,-5.7357,-5.5791,-5.5703,-5.478,-5.3356,-5.3164,-5.2318,-5.0866,-5.0712,-5.0702,-5.0702,-5.0702,-5.0702,-5.0702,-5.0702,-5.0702,-5.0702,-5.0702,-5.0702,-5.0702,-5.0702,-5.0702,-5.0702,-5.0702,-5.0702,-5.0635,-5.001,-4.9086,-4.824,-4.7441,-4.7028,-4.6769,-4.6194,-4.5835,-4.5903,-4.6009,-4.6017,-4.589,-4.6013,-4.6025,-4.5939,-4.5899,-4.6599,-4.8016,-4.9019,-4.9904,-5.0587,-5.0702,-5.0702,-5.0702,-5.0702,-5.0702,-5.0702,-5.0702,-5.0702,-5.0702,-5.0702,-5.0702,-5.0702,-5.0702,-5.0702,-5.0702,-5.0702,-5.0702,-5.0702,-5.0702,-5.0702,-5.0702,-5.0702,-5.0702,-5.0702,-5.0702,-5.1087,-5.1741,-5.2538,-5.3356,-5.4049,-5.4934,-5.5395,-5.5472,-5.5434,-5.5049,-5.3549,-5.3164,-5.2433,-5.1433,-5.0971,-5.0741,-5.0702,-5.0702,-5.0702,-5.0712,-5.0702,-5.0702,-5.0702,-5.0712,-5.0785,-5.0808,-5.0882,-5.089,-5.0911,-5.0913,-5.0905,-6.232,-6.0819,-6.0781,-6.0781,-6.0781,-6.0781,-6.0781,-6.0781,-6.0781,-6.0165,-5.9127,-5.855,-5.7627,-5.6522,-5.5934,-5.478,-5.3241,-5.2654,-5.2038,-5.1433,-5.0933,-5.0971,-5.1395,-5.0971,-5.0702,-5.0702,-5.0702,-5.0702,-5.0702,-5.0702,-5.0702,-5.0702,-5.0702,-5.0702,-5.0702,-5.0702,-5.0702,-5.0673,-5.0356,-4.9548,-4.824,-4.7808,-4.7199,-4.6141,-4.5841,-4.568,-4.5734,-4.5841,-4.5891,-4.5848,-4.5919,-4.5964,-4.5991,-4.6881,-4.7573,-4.8152,-4.9433,-5.0366,-5.0635,-5.0702,-5.0702,-5.0702,-5.0702,-5.0702,-5.0702,-5.0702,-5.0702,-5.0702,-5.0702,-5.0702,-5.0702,-5.0702,-5.0702,-5.0702,-5.0702,-5.0702,-5.0702,-5.0702,-5.0702,-5.0702,-5.0702,-5.0702,-5.0827,-5.1125,-5.1587,-5.1962,-5.3126,-5.4049,-5.4511,-5.5203,-5.5703,-5.5703,-5.5665,-5.5318,-5.428,-5.401,-5.351,-5.2241,-5.1433,-5.1087,-5.0933,-5.0741,-5.0702,-5.0702,-5.0693,-5.0693,-5.0702,-5.0799,-5.0858,-5.0883,-5.0949,-5.0998,-5.0996,-5.1011,-5.1011,-6.182,-6.0896,-6.0781,-6.0781,-6.0781,-6.0781,-6.0781,-6.0781,-6.0781,-6.0319,-5.9435,-5.8665,-5.7819,-5.6907,-5.5829,-5.4587,-5.3241,-5.2577,-5.2038,-5.1548,-5.1202,-5.1241,-5.1433,-5.1241,-5.0933,-5.075,-5.0702,-5.0702,-5.0702,-5.0702,-5.0702,-5.0702,-5.0702,-5.0702,-5.0702,-5.0702,-5.0702,-5.0673,-5.0442,-4.9548,-4.8269,-4.8077,-4.7278,-4.5941,-4.5864,-4.5855,-4.5633,-4.5719,-4.5778,-4.5757,-4.5835,-4.5846,-4.5951,-4.6822,-4.764,-4.8182,-4.9163,-5.0125,-5.0596,-5.0702,-5.0702,-5.0702,-5.0702,-5.0702,-5.0702,-5.0702,-5.0702,-5.0702,-5.0702,-5.0702,-5.0702,-5.0702,-5.0702,-5.0702,-5.0702,-5.0702,-5.0702,-5.0702,-5.0702,-5.0702,-5.0702,-5.0779,-5.1087,-5.1538,-5.2115,-5.2615,-5.3857,-5.4511,-5.4895,-5.528,-5.5703,-5.5703,-5.5703,-5.5472,-5.4972,-5.4857,-5.3857,-5.2549,-5.1856,-5.151,-5.1001,-5.0798,-5.0712,-5.074,-5.074,-5.073,-5.0756,-5.0851,-5.0896,-5.0959,-5.1047,-5.1123,-5.1094,-5.1089,-5.1099,-6.0858,-6.0781,-6.0781,-6.0781,-6.0781,-6.0781,-6.0781,-6.0781,-6.0781,-6.0358,-5.9627,-5.8742,-5.7973,-5.6907,-5.5626,-5.4203,-5.3433,-5.3164,-5.2318,-5.1048,-5.151,-5.1471,-5.0971,-5.151,-5.1356,-5.075,-5.0702,-5.0702,-5.0702,-5.0702,-5.0702,-5.0702,-5.0702,-5.0702,-5.0702,-5.0702,-5.0702,-5.0558,-5.0019,-4.9125,-4.824,-4.8202,-4.7432,-4.5979,-4.6432,-4.6471,-4.571,-4.5758,-4.5742,-4.5654,-4.5734,-4.5734,-4.5662,-4.5928,-4.6479,-4.7894,-4.824,-4.9086,-5.0433,-5.0702,-5.0702,-5.0702,-5.0702,-5.0702,-5.0702,-5.0702,-5.0702,-5.0702,-5.0702,-5.0702,-5.0702,-5.0702,-5.0702,-5.0702,-5.0702,-5.0702,-5.0702,-5.0702,-5.0702,-5.0712,-5.0789,-5.1087,-5.1615,-5.2115,-5.2769,-5.3857,-5.4472,-5.4857,-5.5395,-5.5626,-5.5665,-5.5703,-5.5703,-5.5549,-5.5588,-5.5511,-5.4049,-5.2769,-5.2318,-5.1895,-5.1116,-5.0758,-5.0808,-5.0841,-5.0811,-5.0803,-5.0875,-5.0952,-5.102,-5.1118,-5.1178,-5.1211,-5.1225,-5.1229,-5.1281,-6.0781,-6.0781,-6.0781,-6.0781,-6.0781,-6.0781,-6.0781,-6.0781,-6.0781,-6.0666,-6.0242,-5.9511,-5.8665,-5.778,-5.6703,-5.5434,-5.4087,-5.3472,-5.2587,-5.1702,-5.1808,-5.1818,-5.1625,-5.1769,-5.151,-5.0827,-5.0702,-5.0702,-5.0702,-5.0702,-5.0702,-5.0702,-5.0702,-5.0702,-5.0702,-5.0702,-5.0702,-5.0673,-5.0442,-4.9856,-4.9086,-4.9009,-4.8163,-4.674,-4.6769,-4.674,-4.6479,-4.6067,-4.5765,-4.5642,-4.5719,-4.5734,-4.583,-4.6701,-4.7548,-4.8125,-4.9279,-5.0019,-5.0558,-5.0702,-5.0702,-5.0702,-5.0702,-5.0702,-5.0702,-5.0702,-5.0702,-5.0702,-5.0702,-5.0702,-5.0702,-5.0702,-5.0702,-5.0702,-5.0702,-5.0702,-5.0712,-5.0702,-5.0702,-5.0779,-5.1164,-5.1625,-5.2077,-5.2702,-5.378,-5.4395,-5.4934,-5.5434,-5.5626,-5.5703,-5.5703,-5.5703,-5.5703,-5.5703,-5.5703,-5.5598,-5.4762,-5.3677,-5.3119,-5.2483,-5.1652,-5.1197,-5.12,-5.102,-5.0981,-5.0939,-5.0998,-5.1081,-5.117,-5.1211,-5.1275,-5.1302,-5.1367,-5.1369,-5.1364,-6.0781,-6.0781,-6.0781,-6.0781,-6.0781,-6.0781,-6.0781,-6.0781,-6.0781,-6.0781,-6.0627,-5.9896,-5.905,-5.8242,-5.7407,-5.606,-5.4549,-5.3895,-5.3038,-5.2115,-5.2269,-5.2385,-5.2308,-5.2,-5.1471,-5.0827,-5.0702,-5.0702,-5.0702,-5.0702,-5.0702,-5.0702,-5.0702,-5.0702,-5.0702,-5.0702,-5.0702,-5.0702,-5.0664,-5.0279,-4.9663,-4.9702,-4.9048,-4.7663,-4.7663,-4.7663,-4.7364,-4.6891,-4.6629,-4.6553,-4.6621,-4.6629,-4.6669,-4.7518,-4.824,-4.874,-4.951,-5.0327,-5.0635,-5.0702,-5.0702,-5.0702,-5.0702,-5.0702,-5.0702,-5.0702,-5.0702,-5.0702,-5.0702,-5.0702,-5.0702,-5.0702,-5.0702,-5.0702,-5.0702,-5.0702,-5.075,-5.0971,-5.1125,-5.1356,-5.1895,-5.2395,-5.3087,-5.3587,-5.4664,-5.4895,-5.5357,-5.5703,-5.5703,-5.5703,-5.5714,-5.5714,-5.5703,-5.5703,-5.5703,-5.557,-5.536,-5.4689,-5.4053,-5.3288,-5.2489,-5.2322,-5.2291,-5.1662,-5.1453,-5.1152,-5.1156,-5.1203,-5.1294,-5.1347,-5.1352,-5.1362,-5.1373,-5.1375,-5.1371,-6.0781,-6.0781,-6.0781,-6.0781,-6.0781,-6.0781,-6.0781,-6.0781,-6.0781,-6.0781,-6.0627,-6.0012,-5.9204,-5.8357,-5.7599,-5.6357,-5.4857,-5.4434,-5.3664,-5.2769,-5.2895,-5.328,-5.3203,-5.2346,-5.1548,-5.0971,-5.0741,-5.0702,-5.0702,-5.0702,-5.0702,-5.0702,-5.0702,-5.0702,-5.0702,-5.0702,-5.0702,-5.0702,-5.0702,-5.0289,-4.9625,-5.0202,-4.9894,-4.8317,-4.8817,-4.8856,-4.8279,-4.8229,-4.8191,-4.8086,-4.7921,-4.791,-4.8073,-4.8152,-4.8634,-4.924,-4.9433,-5.0019,-5.0519,-5.0702,-5.0702,-5.0702,-5.0702,-5.0702,-5.0702,-5.0702,-5.0702,-5.0702,-5.0702,-5.0702,-5.0702,-5.0702,-5.0702,-5.0779,-5.0894,-5.0894,-5.0856,-5.151,-5.1933,-5.2125,-5.2741,-5.351,-5.4203,-5.4472,-5.4972,-5.5395,-5.5665,-5.5665,-5.5703,-5.5714,-5.5675,-5.5696,-5.5717,-5.5728,-5.5748,-5.575,-5.5548,-5.5343,-5.4821,-5.4195,-5.3409,-5.3222,-5.313,-5.2563,-5.2044,-5.1693,-5.1486,-5.1623,-5.1518,-5.1403,-5.1408,-5.1412,-5.1453,-5.1531,-5.1765,-6.0781,-6.0781,-6.0781,-6.0781,-6.0781,-6.0781,-6.0781,-6.0781,-6.0781,-6.0781,-6.0742,-6.0589,-5.9935,-5.9127,-5.8319,-5.7357,-5.6214,-5.5088,-5.4395,-5.3933,-5.401,-5.4164,-5.3818,-5.2615,-5.1808,-5.15,-5.101,-5.0702,-5.0702,-5.0702,-5.0702,-5.0702,-5.0702,-5.0702,-5.0702,-5.0702,-5.0702,-5.0702,-5.0702,-5.0635,-5.0442,-5.0519,-5.0164,-4.924,-4.9279,-4.9317,-4.9134,-4.9701,-4.9373,-4.8265,-4.8188,-4.8188,-4.836,-4.8804,-4.9239,-4.9481,-5.0019,-5.0394,-5.0635,-5.0702,-5.0702,-5.0702,-5.0702,-5.0702,-5.0702,-5.0702,-5.0702,-5.0702,-5.0702,-5.0712,-5.0712,-5.0741,-5.0971,-5.1471,-5.1664,-5.1664,-5.1741,-5.2308,-5.2846,-5.2933,-5.3626,-5.4241,-5.4549,-5.4972,-5.5395,-5.5626,-5.5703,-5.5703,-5.5703,-5.5707,-5.5738,-5.576,-5.5789,-5.5789,-5.5808,-5.5845,-5.5822,-5.5805,-5.5518,-5.5185,-5.4402,-5.3818,-5.3777,-5.3535,-5.3166,-5.2793,-5.2491,-5.2425,-5.2078,-5.1804,-5.1726,-5.1843,-5.1804,-5.1843,-5.2312,-6.0781,-6.0781,-6.0781,-6.0781,-6.0781,-6.0781,-6.0781,-6.0781,-6.0781,-6.0781,-6.0781,-6.0781,-6.0319,-5.9473,-5.9011,-5.8127,-5.6945,-5.5972,-5.5164,-5.4511,-5.4472,-5.4472,-5.4241,-5.3318,-5.2615,-5.1885,-5.1433,-5.1048,-5.0741,-5.0702,-5.0702,-5.0702,-5.0702,-5.0702,-5.0702,-5.0702,-5.0702,-5.0702,-5.0702,-5.0702,-5.0702,-5.0702,-5.0481,-5.001,-4.9942,-4.9961,-5.0082,-5.0512,-5.0126,-4.9136,-4.9089,-4.9281,-4.9337,-4.9717,-4.9989,-4.9961,-5.0452,-5.0664,-5.0702,-5.0702,-5.0702,-5.0702,-5.0702,-5.0702,-5.0702,-5.0702,-5.0702,-5.0702,-5.0702,-5.0856,-5.1202,-5.151,-5.1933,-5.2395,-5.2779,-5.2818,-5.2538,-5.3241,-5.3664,-5.3933,-5.4434,-5.5011,-5.5011,-5.5434,-5.5626,-5.5703,-5.5703,-5.5703,-5.5714,-5.5738,-5.5798,-5.5843,-5.5921,-5.5946,-5.5962,-5.5994,-5.6029,-5.6039,-5.6047,-5.5794,-5.5347,-5.4633,-5.4523,-5.4455,-5.4223,-5.3912,-5.3522,-5.3249,-5.3132,-5.2858,-5.2546,-5.2468,-5.2585,-5.2624,-5.3055,-6.0781,-6.0781,-6.0781,-6.0781,-6.0781,-6.0781,-6.0781,-6.0781,-6.0781,-6.0781,-6.0781,-6.0781,-6.0396,-5.9665,-5.9473,-5.8627,-5.7214,-5.6868,-5.5945,-5.5049,-5.4626,-5.4549,-5.4741,-5.4395,-5.3549,-5.25,-5.2077,-5.151,-5.1048,-5.0818,-5.0702,-5.0702,-5.0702,-5.0702,-5.0702,-5.0702,-5.0702,-5.0702,-5.0702,-5.0702,-5.0702,-5.0702,-5.0635,-5.0596,-5.051,-5.0586,-5.07,-5.0844,-5.0496,-4.9688,-5.0392,-5.065,-5.0774,-5.0778,-5.0713,-5.0675,-5.0696,-5.0738,-5.0712,-5.073,-5.0731,-5.0721,-5.0702,-5.0702,-5.0702,-5.0702,-5.0789,-5.0971,-5.0818,-5.1279,-5.201,-5.2779,-5.3203,-5.3433,-5.4049,-5.4164,-5.3818,-5.4126,-5.4626,-5.4664,-5.528,-5.5588,-5.5703,-5.5703,-5.5703,-5.5703,-5.5714,-5.5707,-5.5758,-5.5808,-5.5887,-5.6017,-5.6037,-5.6084,-5.6104,-5.6116,-5.6191,-5.6285,-5.6414,-5.6313,-5.6196,-5.574,-5.5511,-5.5318,-5.5201,-5.481,-5.4264,-5.4108,-5.4068,-5.3717,-5.3288,-5.3561,-5.3873,-5.3873,-5.4108,-6.0781,-6.0781,-6.0781,-6.0781,-6.0781,-6.0781,-6.0781,-6.0781,-6.0781,-6.0781,-6.0781,-6.0781,-6.0666,-6.0435,-5.9819,-5.8934,-5.7973,-5.7319,-5.6395,-5.5511,-5.4741,-5.4934,-5.5126,-5.4857,-5.4318,-5.3587,-5.2462,-5.1846,-5.1538,-5.1048,-5.0702,-5.0702,-5.0702,-5.0702,-5.0702,-5.0702,-5.0702,-5.0712,-5.0673,-5.0731,-5.0702,-5.0702,-5.0712,-5.0702,-5.0702,-5.0702,-5.0767,-5.0835,-5.0789,-5.0734,-5.083,-5.1058,-5.1041,-5.1029,-5.0966,-5.094,-5.0913,-5.0896,-5.089,-5.0841,-5.0791,-5.0702,-5.0721,-5.0702,-5.0702,-5.075,-5.1048,-5.1433,-5.1664,-5.2049,-5.2856,-5.3703,-5.4126,-5.4357,-5.4857,-5.5329,-5.5214,-5.528,-5.5357,-5.5434,-5.5549,-5.5703,-5.5703,-5.5724,-5.5724,-5.5714,-5.5717,-5.5758,-5.5808,-5.587,-5.6024,-5.6116,-5.6197,-5.6241,-5.6266,-5.6281,-5.6355,-5.6432,-5.6548,-5.6604,-5.6528,-5.645,-5.6138,-5.6138,-5.6255,-5.5747,-5.5083,-5.5005,-5.4966,-5.4498,-5.4147,-5.4342,-5.4576,-5.4771,-5.5005,-6.0781,-6.0781,-6.0781,-6.0781,-6.0781,-6.0781,-6.0781,-6.0781,-6.0781,-6.0781,-6.0781,-6.0781,-6.0781,-6.0781,-6.0281,-5.9665,-5.8704,-5.755,-5.6522,-5.5742,-5.5241,-5.5318,-5.5549,-5.5241,-5.4895,-5.4434,-5.3664,-5.2808,-5.2,-5.1471,-5.1087,-5.0702,-5.0702,-5.0702,-5.0702,-5.0712,-5.0702,-5.0702,-5.0767,-5.0821,-5.0799,-5.0827,-5.0851,-5.0813,-5.0859,-5.0883,-5.0945,-5.1017,-5.1086,-5.1142,-5.1203,-5.1207,-5.1142,-5.1123,-5.1069,-5.1053,-5.1025,-5.0984,-5.0952,-5.0913,-5.0874,-5.0773,-5.073,-5.0943,-5.1125,-5.1279,-5.1664,-5.2279,-5.2577,-5.2856,-5.3741,-5.4549,-5.4972,-5.5088,-5.5434,-5.5707,-5.5778,-5.5738,-5.5703,-5.5703,-5.5665,-5.5703,-5.5714,-5.5738,-5.5738,-5.5738,-5.5904,-5.5946,-5.5913,-5.6017,-5.6128,-5.6261,-5.6333,-5.6406,-5.6432,-5.6485,-5.6491,-5.6506,-5.6558,-5.6604,-5.6565,-5.6565,-5.6565,-5.6567,-5.6528,-5.645,-5.5942,-5.5903,-5.5786,-5.5669,-5.5435,-5.5279,-5.5318,-5.5669,-5.5864,-6.0781,-6.0781,-6.0781,-6.0781,-6.0781,-6.0781,-6.0781,-6.0781,-6.0781,-6.0781,-6.0781,-6.0781,-6.0781,-6.0781,-6.0781,-6.0242,-5.905,-5.778,-5.6522,-5.5742,-5.5626,-5.5626,-5.5665,-5.5549,-5.5318,-5.4703,-5.4395,-5.3587,-5.2702,-5.1962,-5.151,-5.0971,-5.0712,-5.0712,-5.0702,-5.0712,-5.0702,-5.0758,-5.0841,-5.0905,-5.0918,-5.0959,-5.099,-5.0984,-5.0984,-5.1014,-5.1074,-5.1126,-5.1222,-5.1362,-5.138,-5.135,-5.1285,-5.1195,-5.1142,-5.1152,-5.1142,-5.1074,-5.1025,-5.0966,-5.0913,-5.0921,-5.0978,-5.1212,-5.1654,-5.2038,-5.2587,-5.3126,-5.3587,-5.3933,-5.4626,-5.5164,-5.5549,-5.5626,-5.5665,-5.5768,-5.5855,-5.5818,-5.5758,-5.5738,-5.5768,-5.5778,-5.5808,-5.5808,-5.5827,-5.5856,-5.6009,-5.6175,-5.6149,-5.6175,-5.6339,-5.6371,-5.6475,-5.6836,-5.6932,-5.7055,-5.7026,-5.7146,-5.7072,-5.6918,-5.684,-5.6643,-5.6643,-5.6604,-5.6567,-5.6528,-5.6528,-5.6333,-5.6372,-5.6604,-5.6448,-5.6018,-5.6174,-5.6565,-5.6528,-6.0781,-6.0781,-6.0781,-6.0781,-6.0781,-6.0781,-6.0781,-6.0781,-6.0781,-6.0781,-6.0781,-6.0781,-6.0781,-6.0781,-6.0781,-5.9973,-5.8627,-5.755,-5.6599,-5.5818,-5.5703,-5.5703,-5.5703,-5.5703,-5.5549,-5.5357,-5.4934,-5.4318,-5.3664,-5.2702,-5.2087,-5.1664,-5.1087,-5.0779,-5.0779,-5.0683,-5.0758,-5.0841,-5.0898,-5.0913,-5.0986,-5.1079,-5.1094,-5.1045,-5.104,-5.104,-5.1079,-5.117,-5.1207,-5.1225,-5.1355,-5.1406,-5.1355,-5.1357,-5.1321,-5.1318,-5.1305,-5.1236,-5.1187,-5.1053,-5.0966,-5.103,-5.137,-5.1713,-5.2117,-5.2617,-5.3417,-5.4187,-5.4821,-5.5301,-5.5483,-5.5651,-5.5686,-5.5724,-5.5728,-5.5808,-5.587,-5.5973,-5.5995,-5.6081,-5.6025,-5.5891,-5.5926,-5.6084,-5.6264,-5.6428,-5.668,-5.6775,-5.6781,-5.6695,-5.6679,-5.6647,-5.6597,-5.7068,-5.7499,-5.7656,-5.7775,-5.8124,-5.805,-5.7699,-5.7465,-5.6918,-5.6721,-5.684,-5.676,-5.6565,-5.6604,-5.6604,-5.6604,-5.6604,-5.6604,-5.6604,-5.6604,-5.6604,-5.6604,-6.0781,-6.0781,-6.0781,-6.0781,-6.0781,-6.0781,-6.0781,-6.0781,-6.0781,-6.0781,-6.0781,-6.0781,-6.0781,-6.0781,-6.0781,-5.9858,-5.855,-5.7934,-5.6934,-5.5972,-5.5703,-5.5703,-5.5703,-5.5703,-5.5703,-5.5588,-5.528,-5.4857,-5.4472,-5.3741,-5.2972,-5.2433,-5.1741,-5.1318,-5.1202,-5.0904,-5.0842,-5.0914,-5.0966,-5.1003,-5.1086,-5.121,-5.1219,-5.1203,-5.1193,-5.1229,-5.1218,-5.1232,-5.1297,-5.1305,-5.1362,-5.1373,-5.1379,-5.1384,-5.139,-5.1389,-5.1385,-5.1379,-5.1316,-5.1222,-5.1273,-5.1735,-5.2026,-5.2615,-5.3235,-5.394,-5.4436,-5.5186,-5.545,-5.5789,-5.5798,-5.5873,-5.5891,-5.5836,-5.5873,-5.597,-5.6167,-5.6518,-5.6673,-5.6699,-5.6393,-5.6255,-5.6124,-5.6361,-5.6712,-5.7014,-5.7313,-5.7424,-5.7451,-5.7439,-5.7427,-5.752,-5.758,-5.7855,-5.8324,-5.8441,-5.8714,-5.9026,-5.8948,-5.8597,-5.8207,-5.7738,-5.7426,-5.7348,-5.7113,-5.6799,-5.6604,-5.6604,-5.6604,-5.6604,-5.6604,-5.6604,-5.6604,-5.6604,-5.6604,-6.0781,-6.0781,-6.0781,-6.0781,-6.0781,-6.0781,-6.0781,-6.0781,-6.0781,-6.0781,-6.0781,-6.0781,-6.0781,-6.0781,-6.0627,-5.9973,-5.855,-5.8396,-5.7357,-5.6242,-5.578,-5.5703,-5.5703,-5.5703,-5.5703,-5.5665,-5.5626,-5.5357,-5.4895,-5.4434,-5.4049,-5.3433,-5.2626,-5.2164,-5.2058,-5.152,-5.1189,-5.1132,-5.1047,-5.1094,-5.1252,-5.1359,-5.1403,-5.1395,-5.1393,-5.1385,-5.1371,-5.1369,-5.1369,-5.1369,-5.1373,-5.1375,-5.1377,-5.1385,-5.139,-5.1391,-5.1391,-5.1472,-5.1624,-5.1596,-5.1905,-5.2632,-5.2819,-5.3638,-5.4396,-5.4902,-5.538,-5.6018,-5.6089,-5.5978,-5.5986,-5.6029,-5.6029,-5.6056,-5.6223,-5.6496,-5.6796,-5.7225,-5.7741,-5.7566,-5.6986,-5.6959,-5.7175,-5.7264,-5.7725,-5.7896,-5.818,-5.8301,-5.8361,-5.8532,-5.8546,-5.8705,-5.8829,-5.8946,-5.9183,-5.93,-5.9651,-6.0041,-5.9807,-5.9417,-5.9026,-5.8636,-5.8324,-5.7855,-5.7426,-5.7113,-5.6879,-5.6604,-5.6604,-5.6604,-5.6604,-5.6604,-5.6604,-5.6604,-5.6604,-6.0781,-6.0781,-6.0781,-6.0781,-6.0781,-6.0781,-6.0781,-6.0781,-6.0781,-6.0781,-6.0781,-6.0781,-6.0781,-6.0781,-6.0781,-6.0204,-5.9358,-5.855,-5.7742,-5.6714,-5.6011,-5.5703,-5.5703,-5.5703,-5.5703,-5.5714,-5.5714,-5.5665,-5.5367,-5.4867,-5.4559,-5.4213,-5.3569,-5.3069,-5.3013,-5.234,-5.207,-5.2069,-5.153,-5.1256,-5.1328,-5.1406,-5.1405,-5.1404,-5.14,-5.1394,-5.1387,-5.138,-5.1377,-5.1375,-5.1375,-5.1375,-5.1377,-5.1384,-5.1393,-5.1396,-5.1475,-5.171,-5.2294,-5.2394,-5.276,-5.3574,-5.4103,-5.4621,-5.5108,-5.5604,-5.5984,-5.6114,-5.6164,-5.6146,-5.6161,-5.6179,-5.6161,-5.6439,-5.678,-5.7157,-5.7559,-5.824,-5.8757,-5.8955,-5.8577,-5.8593,-5.8728,-5.8737,-5.8788,-5.891,-5.9053,-5.917,-5.9329,-5.9568,-5.9649,-5.9766,-5.9844,-5.9961,-6.0117,-6.0237,-6.0393,-6.0898,-6.0627,-6.0237,-5.9963,-5.9534,-5.8753,-5.8324,-5.7894,-5.7426,-5.7035,-5.684,-5.6682,-5.6604,-5.6604,-5.6604,-5.6604,-5.6604,-5.6606,-6.0781,-6.0781,-6.0781,-6.0781,-6.0781,-6.0781,-6.0781,-6.0781,-6.0781,-6.0781,-6.0781,-6.0781,-6.0781,-6.0781,-6.0781,-6.0319,-5.9473,-5.8704,-5.7819,-5.6983,-5.6203,-5.5703,-5.5703,-5.5703,-5.5703,-5.5724,-5.5745,-5.5756,-5.5602,-5.5486,-5.5217,-5.5101,-5.4438,-5.4005,-5.3966,-5.329,-5.2758,-5.229,-5.1745,-5.1401,-5.1367,-5.1406,-5.1406,-5.1405,-5.1404,-5.1438,-5.1393,-5.1387,-5.138,-5.1377,-5.1375,-5.1375,-5.1379,-5.1428,-5.1552,-5.214,-5.2145,-5.2342,-5.2654,-5.3086,-5.3789,-5.4414,-5.5,-5.5281,-5.5738,-5.6095,-5.6358,-5.6433,-5.6347,-5.6316,-5.6359,-5.6386,-5.6683,-5.7026,-5.7498,-5.7996,-5.8493,-5.9251,-5.9814,-6.0011,-6.0165,-6.0104,-6.0002,-5.9846,-5.9807,-5.9865,-6.0154,-6.0508,-6.0661,-6.082,-6.082,-6.0781,-6.082,-6.0861,-6.1015,-6.1132,-6.1054,-6.1366,-6.1366,-6.1017,-6.0939,-6.0471,-5.9651,-5.9143,-5.8909,-5.8285,-5.7465,-5.6957,-5.676,-5.6682,-5.6604,-5.6604,-5.6604,-5.6606,-5.6606,-6.0781,-6.0781,-6.0781,-6.0781,-6.0781,-6.0781,-6.0781,-6.0781,-6.0781,-6.0781,-6.0781,-6.0781,-6.0781,-6.0781,-6.0742,-6.0473,-5.9858,-5.8973,-5.8127,-5.728,-5.6483,-5.5983,-5.5791,-5.5714,-5.5735,-5.5735,-5.5787,-5.5845,-5.5855,-5.5788,-5.575,-5.5817,-5.522,-5.494,-5.4743,-5.4189,-5.3539,-5.2894,-5.2483,-5.2226,-5.2187,-5.2148,-5.1992,-5.1835,-5.1717,-5.1637,-5.1435,-5.1393,-5.1389,-5.1773,-5.1498,-5.1496,-5.173,-5.1898,-5.2061,-5.265,-5.3006,-5.3476,-5.3711,-5.4062,-5.4765,-5.5312,-5.5664,-5.5937,-5.6326,-5.6484,-5.646,-5.6558,-5.6504,-5.6482,-5.6521,-5.6699,-5.7159,-5.7701,-5.8254,-5.8775,-5.9367,-6.0107,-6.061,-6.0803,-6.0995,-6.1262,-6.1134,-6.0898,-6.082,-6.0822,-6.1176,-6.1607,-6.1686,-6.1607,-6.1529,-6.1297,-6.133,-6.133,-6.1447,-6.1642,-6.1681,-6.172,-6.172,-6.1642,-6.1408,-6.1134,-6.0549,-6.0198,-5.9846,-5.9143,-5.8324,-5.7543,-5.684,-5.6721,-5.6604,-5.6604,-5.6606,-5.6608,-5.661,-6.0781,-6.0781,-6.0781,-6.0781,-6.0781,-6.0781,-6.0781,-6.0781,-6.0781,-6.0781,-6.0781,-6.0781,-6.0781,-6.0781,-6.0781,-6.0742,-6.0627,-5.9819,-5.8934,-5.8127,-5.7368,-5.656,-5.6148,-5.5938,-5.5853,-5.5787,-5.5865,-5.5895,-5.5905,-5.5943,-5.5924,-5.5876,-5.5709,-5.5807,-5.5548,-5.4943,-5.4349,-5.3811,-5.3551,-5.3516,-5.3516,-5.3476,-5.3242,-5.2734,-5.2538,-5.2264,-5.1482,-5.1634,-5.1942,-5.256,-5.2129,-5.2049,-5.2518,-5.2605,-5.2804,-5.3277,-5.414,-5.4648,-5.4961,-5.5117,-5.5586,-5.6211,-5.6445,-5.6367,-5.6562,-5.6601,-5.6601,-5.664,-5.668,-5.6754,-5.6909,-5.7262,-5.7884,-5.847,-5.9134,-5.972,-6.027,-6.0856,-6.1323,-6.1552,-6.1627,-6.1702,-6.1697,-6.1381,-6.1297,-6.1258,-6.1303,-6.1696,-6.1697,-6.1658,-6.1697,-6.1618,-6.161,-6.1644,-6.1644,-6.1722,-6.169,-6.169,-6.169,-6.1727,-6.1647,-6.1371,-6.1139,-6.0863,-6.0395,-5.9809,-5.9222,-5.8599,-5.7896,-5.6996,-5.6645,-5.6805,-5.6692,-5.6618,-5.6619,-6.0781,-6.0781,-6.0781,-6.0781,-6.0781,-6.0781,-6.0781,-6.0781,-6.0781,-6.0781,-6.0781,-6.0781,-6.0781,-6.0781,-6.0781,-6.0781,-6.0666,-5.9896,-5.9358,-5.8896,-5.8165,-5.7319,-5.6802,-5.6449,-5.6365,-5.601,-5.5943,-5.5943,-5.5991,-5.6016,-5.6062,-5.6048,-5.6079,-5.6087,-5.5856,-5.548,-5.5003,-5.4706,-5.4297,-5.4023,-5.3984,-5.3984,-5.3828,-5.3555,-5.3476,-5.3359,-5.3084,-5.3005,-5.3197,-5.3271,-5.3111,-5.3227,-5.3383,-5.3467,-5.3744,-5.4098,-5.4999,-5.5508,-5.5976,-5.6055,-5.6289,-5.6406,-5.6601,-5.6601,-5.6601,-5.664,-5.6601,-5.6719,-5.7148,-5.7383,-5.7539,-5.8203,-5.8906,-5.9413,-5.9961,-6.0586,-6.1055,-6.1484,-6.1639,-6.1636,-6.1673,-6.1711,-6.1707,-6.1663,-6.1658,-6.1655,-6.1701,-6.1705,-6.1707,-6.1707,-6.1705,-6.1704,-6.1699,-6.1697,-6.1696,-6.1697,-6.1699,-6.1697,-6.1697,-6.1696,-6.1694,-6.1692,-6.146,-6.1221,-6.1063,-6.0592,-6.0126,-5.9699,-5.8994,-5.8094,-5.7473,-5.7166,-5.6974,-5.6821,-5.69,-6.0781,-6.0781,-6.0781,-6.0781,-6.0781,-6.0781,-6.0781,-6.0781,-6.0781,-6.0781,-6.0781,-6.0781,-6.0781,-6.0781,-6.0781,-6.0781,-6.0666,-6.0204,-5.9819,-5.9358,-5.8858,-5.8176,-5.767,-5.7405,-5.7253,-5.6656,-5.6377,-5.6432,-5.6527,-5.6195,-5.6146,-5.6206,-5.6269,-5.6275,-5.6119,-5.5844,-5.5604,-5.5463,-5.5195,-5.4765,-5.4805,-5.4844,-5.4609,-5.4492,-5.4375,-5.414,-5.3906,-5.3749,-5.4021,-5.4136,-5.4133,-5.4131,-5.425,-5.4448,-5.4722,-5.5155,-5.5586,-5.5976,-5.6406,-5.6601,-5.6601,-5.6601,-5.6601,-5.6601,-5.664,-5.6797,-5.7109,-5.7148,-5.7773,-5.8281,-5.8359,-5.9023,-5.9609,-6.0078,-6.0625,-6.1172,-6.1367,-6.168,-6.168,-6.1679,-6.1717,-6.1715,-6.1714,-6.1711,-6.171,-6.1707,-6.1709,-6.1712,-6.1714,-6.1714,-6.1712,-6.1711,-6.1708,-6.1708,-6.1708,-6.1707,-6.1705,-6.1704,-6.1704,-6.1705,-6.1705,-6.1704,-6.1702,-6.1545,-6.1385,-6.1301,-6.103,-6.0645,-5.9939,-5.9152,-5.8572,-5.7994,-5.7995,-5.7881,-5.7767,-6.0781,-6.0781,-6.0781,-6.0781,-6.0781,-6.0781,-6.0781,-6.0781,-6.0781,-6.0781,-6.0781,-6.0781,-6.0781,-6.0781,-6.0781,-6.0781,-6.0781,-6.0666,-6.0319,-5.9742,-5.9588,-5.9007,-5.8561,-5.8294,-5.8219,-5.822,-5.7753,-5.7319,-5.7345,-5.6945,-5.6597,-5.6386,-5.6478,-5.6416,-5.6328,-5.6422,-5.645,-5.6458,-5.6365,-5.6289,-5.6211,-5.6133,-5.5781,-5.543,-5.5273,-5.5,-5.4648,-5.4531,-5.4805,-5.5115,-5.4724,-5.4801,-5.519,-5.5271,-5.535,-5.5467,-5.6133,-5.6484,-5.6601,-5.6601,-5.6601,-5.668,-5.6719,-5.6836,-5.6875,-5.7305,-5.789,-5.793,-5.8672,-5.9101,-5.9414,-5.9844,-6.0312,-6.0664,-6.1211,-6.1484,-6.164,-6.1719,-6.1719,-6.1719,-6.1718,-6.1717,-6.1716,-6.1716,-6.1716,-6.1716,-6.1716,-6.1717,-6.1717,-6.1719,-6.1719,-6.1716,-6.1715,-6.1714,-6.1714,-6.1711,-6.171,-6.1719,-6.171,-6.1712,-6.1712,-6.171,-6.1709,-6.1709,-6.1627,-6.1506,-6.1588,-6.1592,-6.0808,-6.0065,-5.9481,-5.9015,-5.9016,-5.8867,-5.8594,-6.0781,-6.0781,-6.0781,-6.0781,-6.0781,-6.0781,-6.0781,-6.0781,-6.0781,-6.0781,-6.0781,-6.0781,-6.0781,-6.0781,-6.0781,-6.0781,-6.0781,-6.0781,-6.0473,-6.0396,-6.0292,-5.9865,-5.9408,-5.9163,-5.9031,-5.8615,-5.8256,-5.8249,-5.8273,-5.7859,-5.7567,-5.7361,-5.6932,-5.6554,-5.6512,-5.6558,-5.6559,-5.6559,-5.6562,-5.6601,-5.6601,-5.6562,-5.6445,-5.6133,-5.6094,-5.5898,-5.5547,-5.5508,-5.5703,-5.6015,-5.5546,-5.574,-5.6053,-5.6093,-5.6092,-5.6133,-5.6562,-5.6601,-5.6601,-5.6601,-5.6601,-5.6797,-5.7109,-5.7344,-5.7539,-5.8281,-5.8633,-5.8906,-5.9531,-5.9883,-6.0117,-6.0781,-6.1211,-6.1289,-6.1601,-6.164,-6.1719,-6.1719,-6.1719,-6.1719,-6.1718,-6.1719,-6.1719,-6.1719,-6.1719,-6.1719,-6.1719,-6.1719,-6.1718,-6.1719,-6.1719,-6.1719,-6.1718,-6.1718,-6.1719,-6.1719,-6.1719,-6.1719,-6.1719,-6.1718,-6.1717,-6.1716,-6.1715,-6.1714,-6.1711,-6.1709,-6.1711,-6.1674,-6.1481,-6.0974,-6.0349,-5.9765,-5.9531,-5.9336,-5.9023,-6.0781,-6.0781,-6.0781,-6.0781,-6.0781,-6.0781,-6.0781,-6.0781,-6.0781,-6.0781,-6.0781,-6.0781,-6.0781,-6.0781,-6.0781,-6.0781,-6.0781,-6.0781,-6.0781,-6.0781,-6.0804,-6.0465,-6.0211,-6.0092,-6.0007,-5.9478,-5.9219,-5.916,-5.9207,-5.9026,-5.8655,-5.8186,-5.7734,-5.75,-5.7187,-5.6875,-5.6601,-5.6601,-5.6601,-5.6601,-5.6601,-5.6601,-5.6601,-5.6562,-5.6562,-5.6523,-5.6562,-5.6601,-5.6601,-5.6601,-5.6601,-5.6601,-5.6601,-5.6601,-5.6601,-5.6601,-5.6601,-5.6601,-5.6601,-5.707,-5.7109,-5.7148,-5.7656,-5.8008,-5.8398,-5.914,-5.9492,-5.9844,-6.039,-6.0664,-6.0937,-6.164,-6.164,-6.168,-6.168,-6.1719,-6.1719,-6.1719,-6.1719,-6.1719,-6.1719,-6.1719,-6.1719,-6.1719,-6.1719,-6.1719,-6.1719,-6.1719,-6.1719,-6.1719,-6.1719,-6.1719,-6.1719,-6.1719,-6.1719,-6.1719,-6.1719,-6.1719,-6.1719,-6.1719,-6.1719,-6.1718,-6.1718,-6.1719,-6.1719,-6.1719,-6.1719,-6.164,-6.1562,-6.1445,-6.1171,-6.0625,-6.0156,-5.9961,-5.9805,-6.0781,-6.0781,-6.0781,-6.0781,-6.0781,-6.0781,-6.0781,-6.0781,-6.0781,-6.0781,-6.0781,-6.0781,-6.0781,-6.0781,-6.0781,-6.0781,-6.0781,-6.0781,-6.0827,-6.0827,-6.0861,-6.0811,-6.0905,-6.0848,-6.0752,-6.0755,-6.0553,-6.0161,-6.0224,-5.9614,-5.9245,-5.914,-5.8867,-5.8476,-5.789,-5.7461,-5.6992,-5.6758,-5.6601,-5.6601,-5.6601,-5.6601,-5.6601,-5.6601,-5.6601,-5.6601,-5.6601,-5.6601,-5.6601,-5.6601,-5.6601,-5.6601,-5.6601,-5.6601,-5.6601,-5.6601,-5.6601,-5.664,-5.6914,-5.7461,-5.8008,-5.8086,-5.8164,-5.8555,-5.914,-5.9922,-6.0351,-6.0625,-6.1055,-6.1367,-6.168,-6.168,-6.168,-6.1719,-6.1719,-6.1719,-6.1719,-6.1719,-6.1719,-6.1719,-6.1719,-6.1719,-6.1719,-6.1719,-6.1719,-6.1719,-6.1719,-6.1719,-6.1719,-6.1719,-6.1719,-6.1719,-6.1719,-6.1719,-6.1719,-6.1719,-6.1719,-6.1719,-6.1719,-6.1719,-6.1719,-6.1719,-6.1719,-6.1719,-6.1719,-6.1719,-6.1719,-6.1719,-6.168,-6.1601,-6.1484,-6.1367,-6.0859,-6.1055,-6.1055,-6.0781,-6.0781,-6.0781,-6.0781,-6.0781,-6.0781,-6.0781,-6.0781,-6.0781,-6.0781,-6.0781,-6.0781,-6.0781,-6.0781,-6.0781,-6.0793,-6.0781,-6.0816,-6.0871,-6.0902,-6.0923,-6.1057,-6.1112,-6.1159,-6.1239,-6.1267,-6.1201,-6.1013,-6.0981,-6.0351,-6.0,-6.0,-5.9648,-5.918,-5.8867,-5.8555,-5.7734,-5.7031,-5.6836,-5.6719,-5.668,-5.664,-5.664,-5.6601,-5.6601,-5.6601,-5.6601,-5.6601,-5.6601,-5.6601,-5.6601,-5.6601,-5.6601,-5.6601,-5.6601,-5.6601,-5.668,-5.6836,-5.7422,-5.7773,-5.8359,-5.9297,-5.957,-5.9726,-6.0234,-6.0703,-6.1211,-6.1328,-6.1406,-6.164,-6.1719,-6.1719,-6.1719,-6.1719,-6.1719,-6.1719,-6.1719,-6.1719,-6.1719,-6.1719,-6.1719,-6.1719,-6.1719,-6.1719,-6.1719,-6.1719,-6.1719,-6.1719,-6.1719,-6.1719,-6.1719,-6.1719,-6.1719,-6.1719,-6.1719,-6.1719,-6.1719,-6.1719,-6.1719,-6.1719,-6.1719,-6.1719,-6.1719,-6.1719,-6.1719,-6.1719,-6.1719,-6.1719,-6.1719,-6.1719,-6.164,-6.168,-6.1719,-6.1719,-6.1719,-6.0781,-6.0781,-6.0781,-6.0781,-6.0804,-6.0845,-6.0888,-6.0867,-6.0827,-6.0781,-6.0781,-6.0781,-6.0781,-6.0804,-6.0834,-6.0856,-6.0804,-6.0973,-6.1048,-6.0963,-6.1018,-6.1158,-6.1259,-6.1295,-6.1378,-6.146,-6.1546,-6.149,-6.1484,-6.1289,-6.0937,-6.0898,-6.0351,-6.0,-5.9726,-5.9492,-5.8906,-5.8008,-5.7422,-5.7148,-5.7031,-5.6836,-5.664,-5.668,-5.668,-5.668,-5.668,-5.668,-5.664,-5.664,-5.6601,-5.6601,-5.6601,-5.6601,-5.6914,-5.6992,-5.7187,-5.7656,-5.8281,-5.8828,-5.9492,-6.0156,-6.0703,-6.0898,-6.0976,-6.1328,-6.1523,-6.164,-6.168,-6.1719,-6.1719,-6.1719,-6.1719,-6.1719,-6.1719,-6.1719,-6.1719,-6.1719,-6.1719,-6.1719,-6.1719,-6.1719,-6.1719,-6.1719,-6.1719,-6.1719,-6.1719,-6.1719,-6.1719,-6.1719,-6.1719,-6.1719,-6.1719,-6.1719,-6.1719,-6.1719,-6.1719,-6.1719,-6.1719,-6.1719,-6.1719,-6.1719,-6.1719,-6.1719,-6.1719,-6.1719,-6.1719,-6.1719,-6.1719,-6.1719,-6.1719,-6.1719,-6.1719,-6.1719,-6.1719,-6.0793,-6.0827,-6.0839,-6.0823,-6.085,-6.0935,-6.102,-6.1002,-6.0892,-6.085,-6.085,-6.0861,-6.0856,-6.0871,-6.0964,-6.0964,-6.0993,-6.1112,-6.1196,-6.1056,-6.1161,-6.1289,-6.1387,-6.1387,-6.1474,-6.1554,-6.1618,-6.164,-6.168,-6.1562,-6.1484,-6.1719,-6.1562,-6.1133,-6.0586,-6.0508,-6.0078,-5.9492,-5.8711,-5.8242,-5.7851,-5.7344,-5.6797,-5.6914,-5.6992,-5.6992,-5.6953,-5.6875,-5.6758,-5.6758,-5.6875,-5.6992,-5.7031,-5.7109,-5.75,-5.7734,-5.7969,-5.8515,-5.914,-5.9687,-6.0156,-6.0742,-6.1211,-6.1406,-6.1523,-6.1562,-6.168,-6.1719,-6.1719,-6.1719,-6.1719,-6.1719,-6.1719,-6.1719,-6.1719,-6.1719,-6.1719,-6.1719,-6.1719,-6.1719,-6.1719,-6.1719,-6.1719,-6.1719,-6.1953,-6.1836,-6.1719,-6.1719,-6.1914,-6.1914,-6.1836,-6.1836,-6.1719,-6.1719,-6.1719,-6.1719,-6.1719,-6.1719,-6.1719,-6.1719,-6.1719,-6.1719,-6.1719,-6.1719,-6.1719,-6.1719,-6.1719,-6.1719,-6.1719,-6.1719,-6.1719,-6.1719,-6.1719,-6.1719,-6.1719,-6.0856,-6.0945,-6.1053,-6.1036,-6.0964,-6.1095,-6.1135,-6.1174,-6.1167,-6.1126,-6.1077,-6.1126,-6.1087,-6.1027,-6.1135,-6.1204,-6.1225,-6.1253,-6.1328,-6.1295,-6.1378,-6.1446,-6.1532,-6.1557,-6.1616,-6.1672,-6.1678,-6.168,-6.1719,-6.1719,-6.1719,-6.1719,-6.1719,-6.1484,-6.1289,-6.1289,-6.1055,-6.0703,-6.0156,-5.9414,-5.8984,-5.8828,-5.8594,-5.8515,-5.8476,-5.8359,-5.8398,-5.8437,-5.8086,-5.7812,-5.832,-5.8515,-5.8594,-5.8515,-5.8633,-5.8867,-5.8906,-5.9375,-5.9922,-6.043,-6.0742,-6.1172,-6.1562,-6.164,-6.1719,-6.1719,-6.1719,-6.1719,-6.1719,-6.1719,-6.1719,-6.1719,-6.1719,-6.1719,-6.1719,-6.1719,-6.1719,-6.1719,-6.1719,-6.1719,-6.1719,-6.1758,-6.1797,-6.1953,-6.2148,-6.207,-6.1836,-6.1836,-6.2305,-6.2422,-6.2226,-6.2109,-6.1758,-6.1719,-6.1719,-6.1719,-6.1719,-6.1719,-6.1719,-6.1719,-6.1719,-6.1719,-6.1719,-6.1719,-6.1719,-6.1719,-6.1719,-6.1719,-6.1719,-6.1719,-6.1719,-6.1719,-6.1719,-6.1719,-6.1719,-6.103,-6.1095,-6.1189,-6.1182,-6.1128,-6.1259,-6.1328,-6.1351,-6.1447,-6.1427,-6.1298,-6.1298,-6.1266,-6.12,-6.1356,-6.1373,-6.1378,-6.1452,-6.1471,-6.1449,-6.1515,-6.1584,-6.164,-6.168,-6.1676,-6.168,-6.1719,-6.1719,-6.1719,-6.1719,-6.1719,-6.1719,-6.1719,-6.1719,-6.1719,-6.1719,-6.1719,-6.164,-6.1133,-6.0703,-6.0078,-5.9726,-5.9297,-5.9219,-5.9219,-5.9258,-5.9219,-5.9219,-5.8945,-5.8633,-5.8906,-5.9023,-5.9062,-5.9023,-5.9336,-5.9609,-5.9805,-6.0117,-6.0664,-6.1015,-6.1172,-6.1562,-6.1719,-6.1719,-6.1719,-6.1719,-6.1719,-6.1719,-6.1719,-6.1719,-6.1719,-6.1719,-6.1719,-6.1719,-6.1719,-6.1719,-6.1719,-6.1719,-6.1719,-6.1719,-6.1953,-6.2461,-6.2617,-6.3086,-6.3242,-6.332,-6.293,-6.2812,-6.3086,-6.3047,-6.2812,-6.2578,-6.2305,-6.1875,-6.1719,-6.1719,-6.1719,-6.1719,-6.1719,-6.1719,-6.1719,-6.1719,-6.1719,-6.1719,-6.1719,-6.1719,-6.1719,-6.1719,-6.1719,-6.1719,-6.1719,-6.1719,-6.1719,-6.1719,-6.1719,-6.1179,-6.1193,-6.1272,-6.1272,-6.1279,-6.1427,-6.1517,-6.1545,-6.164,-6.1647,-6.1576,-6.1426,-6.1344,-6.1398,-6.146,-6.1431,-6.1456,-6.1566,-6.158,-6.1582,-6.1634,-6.164,-6.168,-6.1719,-6.168,-6.168,-6.1719,-6.1719,-6.1719,-6.1719,-6.1719,-6.1719,-6.1719,-6.1719,-6.1719,-6.1719,-6.1719,-6.1719,-6.1523,-6.164,-6.1055,-6.0351,-5.9922,-5.9648,-5.9531,-5.9492,-5.9531,-5.9531,-5.9531,-5.9375,-5.9453,-5.9648,-5.9805,-5.9922,-6.0156,-6.043,-6.0586,-6.0976,-6.1406,-6.1523,-6.1601,-6.1719,-6.1719,-6.1719,-6.1719,-6.1719,-6.1719,-6.1719,-6.1719,-6.1719,-6.1719,-6.1719,-6.1719,-6.1758,-6.1758,-6.1875,-6.1914,-6.1953,-6.1992,-6.1992,-6.2539,-6.3125,-6.3476,-6.3945,-6.4219,-6.4336,-6.4375,-6.4414,-6.4297,-6.3906,-6.3594,-6.3359,-6.3125,-6.2617,-6.207,-6.1758,-6.1797,-6.1719,-6.1719,-6.1719,-6.1719,-6.1719,-6.1719,-6.1719,-6.1719,-6.1719,-6.1719,-6.1719,-6.1719,-6.1719,-6.1719,-6.1719,-6.1719,-6.1719,-6.1719,-6.1186,-6.1207,-6.1474,-6.1534,-6.1447,-6.1595,-6.1666,-6.1674,-6.1697,-6.1702,-6.1657,-6.1668,-6.1582,-6.1543,-6.1627,-6.164,-6.1601,-6.168,-6.168,-6.1679,-6.168,-6.168,-6.1719,-6.1719,-6.1719,-6.1719,-6.1719,-6.1719,-6.1719,-6.1719,-6.1719,-6.1719,-6.1719,-6.1719,-6.1719,-6.1719,-6.1719,-6.1719,-6.1719,-6.1719,-6.1719,-6.1328,-6.1367,-6.1211,-6.1211,-6.1211,-6.1211,-6.125,-6.0781,-6.043,-6.0195,-6.0508,-6.0742,-6.0898,-6.1094,-6.1094,-6.125,-6.1367,-6.168,-6.1719,-6.1719,-6.1719,-6.1719,-6.1719,-6.1719,-6.1719,-6.1719,-6.1719,-6.1719,-6.1719,-6.1719,-6.1719,-6.1719,-6.1836,-6.1875,-6.2344,-6.2617,-6.2812,-6.293,-6.3281,-6.375,-6.4023,-6.4101,-6.4531,-6.4844,-6.4922,-6.4844,-6.4883,-6.5273,-6.4883,-6.4453,-6.4258,-6.4023,-6.3437,-6.289,-6.207,-6.1914,-6.1797,-6.1719,-6.1719,-6.1719,-6.1719,-6.1719,-6.1719,-6.1719,-6.1719,-6.1719,-6.1719,-6.1719,-6.1719,-6.1719,-6.1719,-6.1719,-6.1719,-6.1719]},{"header":{"parameterUnit":"m.s-1","parameterCategory":1,"la1":31.0,"la2":29.5877,"lo1":-88.7671,"lo2":-86.6584,"dy":0.0162,"dx":0.0185,"nx":115,"ny":88,"refTime":"2026-05-04T12:00:00:Z","depth":0,"parameterNumber":3,"parameterNumberName":"V-component_of_WINDS"},"data":[0.0,0.0,0.0,0.0,0.0,0.0,0.0,0.0,0.0,0.0,0.0,0.0,0.0,0.0,0.0,0.0,0.0,0.0,0.0,0.0,0.0,0.0,0.0,0.0,0.0,0.0,0.0,0.0,0.0,0.0,0.0,0.0,0.0,0.0,0.0,0.0,0.0,0.0,0.0,0.0,0.0,0.0,0.0,0.0,0.0,0.0,0.0,0.0,0.0,0.0,0.0,0.0,0.0,0.0,0.0,0.0,0.0,0.0,0.0,0.0,0.0,0.0,0.0,0.0,0.0,0.0,0.0,0.0,0.0,0.0,0.0,0.0,0.0,0.0,0.0,0.0,0.0,0.0,0.0,0.0,0.0,0.0,0.0,0.0,0.0,0.0,0.0,0.0,0.0,0.0,0.0,0.0,0.0,0.0,0.0,0.0,0.0,0.0,0.0,0.0,0.0,0.0,0.0,0.0,0.0,0.0,0.0,0.0,0.0,0.0,0.0,0.0,0.0,0.0,0.0,0.0,0.0,0.0,0.0,0.0,0.0,0.0,0.0,0.0,0.0,0.0,0.0,0.0,0.0,0.0,0.0,0.0,0.0,0.0,0.0,0.0,0.0,0.0,0.0,0.0,0.0,0.0,0.0,0.0,0.0,0.0,0.0,0.0,0.0,0.0,0.0,0.0,0.0,0.0,0.0,0.0,0.0,0.0,0.0,0.0,0.0,0.0,0.0,0.0,0.0,0.0,0.0,0.0,0.0,0.0,0.0,0.0,0.0,0.0,0.0,0.0,0.0,0.0,0.0,0.0,0.0,0.0,0.0,0.0,0.0,0.0,0.0,0.0,0.0,0.0,0.0,0.0,0.0,0.0,0.0,0.0,0.0,0.0,0.0,0.0,0.0,0.0,0.0,0.0,0.0,0.0,0.0,0.0,0.0,0.0,0.0,0.0,0.0,0.0,0.0,0.0,0.0,0.0,0.0,0.0,0.0,0.0,0.0,0.0,0.0,0.0,0.0,0.0,0.0,0.0,0.0,0.0,0.0,0.0,0.0,0.0,0.0,0.0,0.0,0.0,0.0,0.0,0.0,0.0,0.0,0.0,0.0,0.0,0.0,0.0,0.0,0.0,0.0,0.0,0.0,0.0,0.0,0.0,0.0,0.0,0.0,0.0,0.0,0.0,0.0,0.0,0.0,0.0,0.0,0.0,0.0,0.0,0.0,0.0,0.0,0.0,0.0,0.0,0.0,0.0,0.0,0.0,0.0,0.0,0.0,0.0,0.0,0.0,0.0,0.0,0.0,0.0,0.0,0.0,0.0,0.0,0.0,0.0,0.0,0.0,0.0,0.0,0.0,0.0,0.0,0.0,0.0,0.0,0.0,0.0,0.0,0.0,0.0,0.0,0.0,0.0,0.0,0.0,0.0,0.0,0.0,0.0,0.0,0.0,0.0,0.0,0.0,0.0,0.0,0.0,0.0,0.0,0.0,0.0,0.0,0.0,0.0,0.0,0.0,0.0,0.0,0.0,0.0,0.0,0.0,0.0,0.0,0.0,0.0,0.0,0.0,0.0,0.0,0.0,0.0,0.0,0.0,0.0,0.0,0.0,0.0,0.0,0.0,0.0,0.0,0.0,0.0,0.0,0.0,0.0,0.0,0.0,0.0,0.0,0.0,0.0,0.0,0.0,0.0,0.0,0.0,0.0,0.0,0.0,0.0,0.0,0.0,0.0,0.0,0.0,0.0,0.0,0.0,0.0,0.0,0.0,0.0,0.0,0.0,0.0,0.0,0.0,0.0,0.0,0.0,0.0,0.0,0.0,0.0,0.0,0.0,0.0,0.0,0.0,0.0,0.0,0.0,0.0,0.0,0.0,0.0,0.0,0.0,0.0,0.0,0.0,0.0,0.0,0.0,0.0,0.0,0.0,0.0,0.0,0.0,0.0,0.0,0.0,0.0,0.0,0.0,0.0,0.0,0.0,0.0,0.0,0.0,0.0,0.0,0.0,0.0,0.0,0.0,0.0,0.0,0.0,0.0,0.0,0.0,0.0,0.0,0.0,0.0,0.0,0.0,0.0,0.0,0.0,0.0,0.0,0.0,0.0,0.0,0.0,0.0,0.0,0.0,0.0,0.0,0.0,0.0,0.0,0.0,0.0,0.0,0.0,0.0,0.0,0.0,0.0,0.0,0.0,0.0,0.0,0.0,0.0,0.0,0.0,0.0,0.0,0.0,0.0,0.0,0.0,0.0,0.0,0.0,0.0,0.0,0.0,0.0,0.0,0.0,0.0,0.0,0.0,0.0,0.0,0.0,0.0,0.0,0.0,0.0,0.0,0.0,0.0,0.0,0.0,0.0,0.0,0.0,0.0,0.0,0.0,0.0,0.0,0.0,0.0,0.0,0.0,0.0,0.0,0.0,0.0,0.0,0.0,0.0,0.0,0.0,0.0,0.0,0.0,0.0,0.0,0.0,0.0,0.0,0.0,0.0,0.0,0.0,0.0,0.0,0.0,0.0,0.0,0.0,0.0,0.0,0.0,0.0,0.0,0.0,0.0,0.0,0.0,0.0,0.0,0.0,0.0,0.0,0.0,0.0,0.0,0.0,0.0,0.0,0.0,0.0,0.0,0.0,0.0,0.0,0.0,0.0,0.0,0.0,0.0,0.0,0.0,0.0,0.0,0.0,0.0,0.0,0.0,0.0,0.0,0.0,0.0,0.0,0.0,0.0,0.0,0.0,0.0,0.0,0.0,0.0,0.0,0.0,0.0,0.0,0.0,0.0,0.0,0.0,0.0,0.0,0.0,0.0,0.0,0.0,0.0,0.0,0.0,0.0,0.0,0.0,0.0,0.0,0.0,0.0,0.0,0.0,0.0,0.0,0.0,0.0,0.0,0.0,0.0,0.0,0.0,0.0,0.0,0.0,0.0,0.0,0.0,0.0,0.0,0.0,0.0,0.0,0.0,0.0,0.0,0.0,0.0,0.0,0.0,0.0,0.0,0.0,0.0,0.0,0.0,0.0,0.0,0.0,0.0,0.0,0.0,0.0,0.0,0.0,0.0,0.0,0.0,0.0,0.0,0.0,0.0,0.0,0.0,0.0,0.0,0.0,0.0,0.0,0.0,0.0,0.0,0.0,0.0,0.0,0.0,0.0,0.0,0.0,0.0,0.0,0.0,0.0,0.0,0.0,0.0,0.0,0.0,0.0,0.0,0.0,0.0,0.0,0.0,0.0,0.0,0.0,0.0,0.0,0.0,0.0,0.0,0.0,0.0,0.0,0.0,0.0,0.0,0.0,0.0,0.0,0.0,0.0,0.0,0.0,0.0,0.0,0.0,0.0,0.0,0.0,0.0,0.0,0.0,0.0,0.0,0.0,0.0,0.0,0.0,0.0,0.0,0.0,0.0,0.0,0.0,0.0,0.0,0.0,0.0,0.0,0.0,0.0,0.0,0.0,0.0,0.0,0.0,0.0,0.0,0.0,0.0,0.0,0.0,0.0,0.0,0.0,0.0,0.0,0.0,0.0,0.0,0.0,0.0,0.0,0.0,0.0,0.0,0.0,0.0,0.0,0.0,0.0,0.0,0.0,0.0,0.0,0.0,0.0,0.0,0.0,0.0,0.0,0.0,0.0,0.0,0.0,0.0,0.0,0.0,0.0,0.0,0.0,0.0,0.0,0.0,0.0,0.0,0.0,0.0,0.0,0.0,0.0,0.0,0.0,0.0,0.0,0.0,0.0,0.0,0.0,0.0,0.0,0.0,0.0,0.0,0.0,0.0,0.0,0.0,0.0,0.0,0.0,0.0,0.0,0.0,0.0,0.0,0.0,0.0,0.0,0.0,0.0,0.0,0.0,0.0,0.0,0.0,0.0,0.0,0.0,0.0,0.0,0.0,0.0,0.0,0.0,0.0,0.0,0.0,0.0,0.0,0.0,0.0,0.0,0.0,0.0,0.0,0.0,0.0,0.0,0.0,0.0,0.0,0.0,0.0,0.0,0.0,0.0,0.0,0.0,0.0,0.0,0.0,0.0,0.0,0.0,0.0,0.0,0.0,0.0,0.0,0.0,0.0,0.0,0.0,0.0,0.0,0.0,0.0,0.0,0.0,0.0,0.0,0.0,0.0,0.0,0.0,0.0,0.0,0.0,0.0,0.0,0.0,0.0,0.0,0.0,0.0,0.0,0.0,0.0,0.0,0.0,0.0,0.0,0.0,0.0,0.0,0.0,0.0,0.0,0.0,0.0,0.0,0.0,0.0,0.0,0.0,0.0,0.0,0.0,0.0,0.0,0.0,-0.5663,0.0,0.0,0.0,0.0,0.0,0.0,0.0,0.0,0.0,0.0,0.0,0.0,0.0,0.0,0.0,0.0,0.0,0.0,0.0,0.0,0.0,0.0,0.0,0.0,0.0,0.0,0.0,0.0,0.0,0.0,0.0,0.0,0.0,0.0,0.0,0.0,0.0,0.0,0.0,0.0,0.0,0.0,0.0,0.0,0.0,0.0,0.0,0.0,0.0,0.0,0.0,0.0,0.0,0.0,0.0,0.0,0.0,0.0,0.0,0.0,0.0,0.0,0.0,0.0,0.0,0.0,0.0,0.0,0.0,0.0,0.0,0.0,0.0,0.0,0.0,0.0,0.0,0.0,0.0,0.0,0.0,0.0,0.0,0.0,0.0,0.0,0.0,0.0,0.0,0.0,0.0,0.0,0.0,0.0,0.0,0.0,0.0,0.0,0.0,0.0,0.0,0.0,0.0,0.0,0.0,0.0,0.0,0.0,0.0,0.0,-0.5959,-0.5954,-0.5872,-0.5841,-0.5845,0.0,0.0,0.0,0.0,0.0,0.0,0.0,0.0,0.0,0.0,0.0,0.0,0.0,0.0,0.0,0.0,0.0,0.0,0.0,0.0,0.0,0.0,0.0,0.0,0.0,0.0,0.0,0.0,0.0,0.0,0.0,0.0,0.0,0.0,0.0,0.0,0.0,0.0,0.0,0.0,0.0,0.0,0.0,0.0,0.0,0.0,0.0,0.0,0.0,0.0,0.0,0.0,0.0,0.0,0.0,0.0,0.0,0.0,0.0,0.0,0.0,0.0,0.0,0.0,0.0,0.0,0.0,0.0,0.0,0.0,0.0,0.0,0.0,0.0,0.0,0.0,0.0,0.0,0.0,0.0,0.0,0.0,0.0,0.0,0.0,0.0,0.0,0.0,0.0,0.0,0.0,0.0,0.0,0.0,0.0,0.0,0.0,0.0,0.0,0.0,0.0,0.0,0.0,0.0,0.0,0.0,0.0,0.0,0.0,0.0,0.0,0.0,-0.6261,-0.6141,-0.5973,0.0,0.0,0.0,0.0,0.0,0.0,0.0,0.0,0.0,0.0,0.0,0.0,0.0,0.0,0.0,0.0,0.0,0.0,0.0,0.0,0.0,0.0,0.0,0.0,0.0,0.0,0.0,0.0,0.0,0.0,0.0,0.0,0.0,0.0,0.0,0.0,0.0,0.0,0.0,0.0,0.0,0.0,0.0,0.0,0.0,0.0,0.0,0.0,0.0,0.0,0.0,0.0,0.0,0.0,0.0,0.0,0.0,0.0,0.0,0.0,0.0,0.0,0.0,0.0,0.0,0.0,0.0,0.0,0.0,0.0,0.0,0.0,0.0,0.0,0.0,0.0,0.0,0.0,0.0,0.0,0.0,0.0,0.0,0.0,0.0,0.0,0.0,0.0,0.0,0.0,0.0,0.0,0.0,0.0,0.0,0.0,0.0,0.0,0.0,0.0,0.0,0.0,0.0,0.0,0.0,0.0,0.0,0.0,0.0,0.0,-0.6512,-0.664,-0.6613,0.0,-0.6151,0.0,0.0,0.0,0.0,0.0,0.0,0.0,0.0,0.0,0.0,0.0,0.0,0.0,0.0,0.0,0.0,0.0,0.0,0.0,0.0,0.0,0.0,0.0,0.0,0.0,0.0,0.0,0.0,0.0,0.0,0.0,0.0,0.0,0.0,0.0,0.0,0.0,0.0,0.0,0.0,0.0,0.0,0.0,0.0,0.0,0.0,0.0,0.0,0.0,0.0,0.0,0.0,0.0,0.0,0.0,0.0,0.0,0.0,0.0,0.0,0.0,0.0,0.0,0.0,0.0,0.0,0.0,0.0,0.0,0.0,0.0,0.0,0.0,0.0,0.0,0.0,0.0,0.0,0.0,0.0,0.0,0.0,0.0,0.0,0.0,0.0,0.0,0.0,0.0,0.0,0.0,0.0,0.0,0.0,0.0,0.0,0.0,0.0,0.0,0.0,0.0,0.0,0.0,0.0,0.0,0.0,0.0,0.0,0.0,0.0,-0.6858,-0.6837,-0.6843,-0.6694,0.0,0.0,0.0,0.0,0.0,0.0,0.0,0.0,0.0,0.0,0.0,0.0,0.0,0.0,0.0,0.0,0.0,0.0,0.0,0.0,0.0,0.0,0.0,0.0,0.0,0.0,0.0,0.0,0.0,0.0,0.0,0.0,0.0,0.0,0.0,0.0,0.0,0.0,0.0,0.0,0.0,0.0,0.0,0.0,0.0,0.0,0.0,0.0,0.0,0.0,0.0,0.0,0.0,0.0,0.0,0.0,0.0,0.0,0.0,0.0,0.0,0.0,0.0,0.0,0.0,0.0,0.0,0.0,0.0,0.0,0.0,0.0,0.0,0.0,0.0,0.0,0.0,0.0,0.0,0.0,0.0,0.0,0.0,0.0,0.0,0.0,0.0,0.0,0.0,0.0,0.0,0.0,0.0,0.0,0.0,0.0,0.0,0.0,0.0,0.0,0.0,0.0,0.0,0.0,0.0,0.0,0.0,0.0,0.0,0.0,-0.671,-0.6984,-0.7011,-0.7039,-0.6898,-0.6647,0.0,0.0,0.0,0.0,0.0,0.0,0.0,0.0,0.0,0.0,0.0,0.0,0.0,0.0,0.0,0.0,0.0,0.0,0.0,0.0,0.0,0.0,0.0,0.0,0.0,0.0,0.0,0.0,0.0,0.0,0.0,0.0,0.0,0.0,0.0,0.0,0.0,0.0,0.0,0.0,0.0,0.0,0.0,0.0,0.0,0.0,0.0,0.0,0.0,0.0,0.0,0.0,0.0,0.0,0.0,0.0,0.0,0.0,0.0,0.0,0.0,0.0,0.0,0.0,0.0,0.0,0.0,0.0,0.0,0.0,0.0,0.0,0.0,0.0,0.0,0.0,0.0,0.0,0.0,0.0,0.0,0.0,0.0,0.0,0.0,0.0,0.0,0.0,0.0,0.0,0.0,0.0,0.0,0.0,0.0,0.0,0.0,0.0,0.0,0.0,0.0,0.0,0.0,0.0,0.0,0.0,0.0,0.0,0.0,-0.6809,-0.6926,-0.7333,-0.7224,-0.7017,0.0,0.0,0.0,0.0,0.0,0.0,0.0,0.0,0.0,0.0,0.0,0.0,0.0,0.0,0.0,0.0,0.0,0.0,0.0,0.0,0.0,0.0,0.0,0.0,0.0,0.0,0.0,0.0,0.0,0.0,0.0,0.0,0.0,0.0,0.0,0.0,0.0,0.0,0.0,0.0,0.0,0.0,0.0,0.0,0.0,0.0,0.0,0.0,0.0,0.0,0.0,0.0,0.0,0.0,0.0,0.0,0.0,0.0,0.0,0.0,0.0,0.0,0.0,0.0,0.0,0.0,0.0,0.0,0.0,0.0,0.0,0.0,0.0,0.0,0.0,0.0,0.0,0.0,0.0,0.0,0.0,0.0,0.0,0.0,0.0,0.0,0.0,0.0,0.0,0.0,0.0,0.0,0.0,0.0,0.0,0.0,0.0,0.0,0.0,0.0,0.0,0.0,0.0,0.0,0.0,0.0,0.0,0.0,0.0,-0.6566,-0.6654,-0.7007,-0.7604,-0.7238,-0.696,0.0,0.0,0.0,0.0,0.0,0.0,0.0,0.0,0.0,0.0,0.0,0.0,0.0,0.0,0.0,0.0,0.0,0.0,0.0,0.0,0.0,0.0,0.0,0.0,0.0,0.0,0.0,0.0,0.0,0.0,0.0,0.0,0.0,0.0,0.0,0.0,0.0,0.0,0.0,0.0,0.0,0.0,0.0,0.0,0.0,0.0,0.0,0.0,0.0,0.0,0.0,0.0,0.0,0.0,0.0,0.0,0.0,0.0,0.0,0.0,0.0,0.0,0.0,0.0,0.0,0.0,0.0,0.0,0.0,0.0,0.0,0.0,0.0,0.0,0.0,0.0,0.0,0.0,0.0,0.0,0.0,0.0,0.0,0.0,0.0,0.0,0.0,0.0,0.0,0.0,0.0,0.0,0.0,0.0,0.0,0.0,0.0,0.0,0.0,0.0,0.0,0.0,0.0,0.0,0.0,0.0,0.0,0.0,0.0,-0.6661,0.0,-0.7238,-0.7699,-0.7305,-0.7048,0.0,0.0,0.0,0.0,0.0,0.0,0.0,0.0,0.0,0.0,0.0,0.0,0.0,0.0,0.0,0.0,0.0,0.0,0.0,0.0,0.0,0.0,0.0,0.0,0.0,0.0,0.0,0.0,0.0,0.0,0.0,0.0,0.0,0.0,0.0,0.0,0.0,0.0,0.0,0.0,0.0,0.0,0.0,0.0,0.0,0.0,0.0,0.0,0.0,0.0,0.0,0.0,0.0,0.0,0.0,0.0,0.0,0.0,0.0,0.0,0.0,0.0,0.0,0.0,0.0,0.0,0.0,0.0,0.0,0.0,0.0,0.0,0.0,0.0,0.0,0.0,0.0,0.0,0.0,0.0,0.0,0.0,0.0,0.0,0.0,0.0,0.0,0.0,0.0,0.0,0.0,0.0,0.0,0.0,0.0,0.0,0.0,0.0,0.0,0.0,0.0,0.0,0.0,0.0,0.0,0.0,0.0,0.0,-0.6811,-0.7371,-0.7489,-0.757,-0.7604,-0.7441,-0.7156,0.0,0.0,0.0,0.0,0.0,0.0,0.0,0.0,0.0,0.0,0.0,0.0,0.0,0.0,0.0,0.0,0.0,0.0,0.0,0.0,0.0,0.0,0.0,0.0,0.0,0.0,0.0,0.0,0.0,0.0,0.0,0.0,0.0,0.0,0.0,0.0,0.0,0.0,0.0,0.0,0.0,0.0,0.0,0.0,0.0,0.0,0.0,0.0,0.0,0.0,0.0,0.0,0.0,0.0,0.0,0.0,0.0,0.0,0.0,0.0,0.0,0.0,0.0,0.0,0.0,0.0,0.0,0.0,0.0,0.0,0.0,0.0,0.0,0.0,0.0,0.0,0.0,0.0,0.0,0.0,0.0,0.0,0.0,0.0,0.0,0.0,0.0,0.0,0.0,0.0,0.0,0.0,0.0,0.0,0.0,0.0,0.0,0.0,0.0,0.0,0.0,0.0,0.0,0.0,0.0,0.0,0.0,0.0,0.0,-0.721,-0.7258,-0.7435,-0.7862,-0.736,-0.7149,0.0,0.0,0.0,0.0,0.0,0.0,0.0,0.0,0.0,0.0,0.0,0.0,0.0,0.0,0.0,0.0,0.0,0.0,0.0,0.0,0.0,0.0,0.0,0.0,0.0,0.0,0.0,0.0,0.0,0.0,0.0,0.0,0.0,0.0,0.0,0.0,0.0,0.0,0.0,0.0,0.0,0.0,0.0,0.0,0.0,0.0,0.0,0.0,0.0,0.0,0.0,0.0,0.0,0.0,0.0,0.0,0.0,0.0,0.0,0.0,0.0,0.0,0.0,0.0,0.0,0.0,0.0,0.0,0.0,0.0,0.0,0.0,0.0,0.0,0.0,0.0,0.0,0.0,0.0,0.0,0.0,0.0,0.0,0.0,0.0,0.0,0.0,0.0,0.0,0.0,0.0,0.0,0.0,0.0,0.0,0.0,0.0,0.0,0.0,0.0,0.0,0.0,0.0,0.0,0.0,0.0,0.0,0.0,0.0,-0.7638,-0.7638,-0.7767,-0.7982,-0.7537,-0.7339,-0.7339,0.0,0.0,0.0,0.0,0.0,0.0,0.0,0.0,0.0,0.0,0.0,0.0,0.0,0.0,0.0,0.0,0.0,0.0,0.0,0.0,0.0,0.0,0.0,0.0,0.0,0.0,0.0,0.0,0.0,0.0,0.0,0.0,0.0,0.0,0.0,0.0,0.0,0.0,0.0,0.0,0.0,0.0,0.0,0.0,0.0,0.0,0.0,0.0,0.0,0.0,0.0,0.0,0.0,0.0,0.0,0.0,0.0,0.0,0.0,0.0,0.0,0.0,0.0,0.0,0.0,0.0,0.0,0.0,0.0,0.0,0.0,0.0,0.0,0.0,0.0,0.0,0.0,0.0,0.0,0.0,0.0,0.0,0.0,0.0,0.0,0.0,0.0,0.0,0.0,0.0,0.0,0.0,0.0,0.0,0.0,0.0,0.0,0.0,0.0,0.0,0.0,0.0,0.0,0.0,0.0,0.0,0.0,0.0,-0.8513,-0.854,-0.8411,-0.8069,-0.8008,-0.7665,0.0,0.0,0.0,0.0,0.0,0.0,0.0,0.0,0.0,0.0,0.0,0.0,0.0,0.0,0.0,0.0,0.0,0.0,0.0,0.0,0.0,0.0,0.0,0.0,0.0,0.0,0.0,0.0,0.0,0.0,0.0,0.0,0.0,0.0,0.0,0.0,0.0,0.0,0.0,0.0,0.0,0.0,0.0,0.0,0.0,0.0,0.0,0.0,0.0,0.0,0.0,0.0,0.0,0.0,0.0,0.0,0.0,0.0,0.0,0.0,0.0,0.0,0.0,0.0,0.0,0.0,0.0,0.0,0.0,0.0,0.0,0.0,0.0,0.0,0.0,0.0,0.0,0.0,0.0,0.0,0.0,0.0,0.0,0.0,0.0,0.0,0.0,0.0,0.0,0.0,0.0,0.0,0.0,0.0,0.0,0.0,0.0,0.0,0.0,0.0,0.0,0.0,0.0,0.0,0.0,0.0,0.0,0.0,0.0,-0.9016,-0.93,-0.9279,-0.892,-0.833,-0.7901,0.0,0.0,0.0,0.0,0.0,0.0,0.0,0.0,0.0,0.0,0.0,0.0,0.0,0.0,0.0,0.0,0.0,0.0,0.0,0.0,0.0,0.0,0.0,0.0,0.0,0.0,0.0,0.0,0.0,0.0,0.0,0.0,0.0,0.0,0.0,0.0,0.0,0.0,0.0,0.0,0.0,0.0,0.0,0.0,0.0,0.0,0.0,0.0,0.0,0.0,0.0,0.0,0.0,0.0,0.0,0.0,0.0,0.0,0.0,0.0,0.0,0.0,0.0,0.0,0.0,0.0,0.0,0.0,0.0,0.0,0.0,0.0,0.0,0.0,0.0,0.0,0.0,0.0,0.0,0.0,0.0,0.0,0.0,0.0,0.0,0.0,0.0,0.0,0.0,0.0,0.0,0.0,0.0,0.0,0.0,0.0,0.0,0.0,0.0,0.0,0.0,0.0,0.0,0.0,0.0,0.0,0.0,0.0,-0.8743,-0.9391,-0.9781,-0.9917,-0.978,-0.8994,-0.8391,0.0,0.0,0.0,0.0,0.0,0.0,0.0,0.0,0.0,0.0,0.0,0.0,0.0,0.0,0.0,0.0,0.0,0.0,0.0,0.0,0.0,0.0,0.0,0.0,0.0,0.0,0.0,0.0,0.0,0.0,0.0,0.0,0.0,0.0,0.0,0.0,0.0,0.0,0.0,0.0,0.0,0.0,0.0,0.0,0.0,0.0,0.0,0.0,0.0,0.0,0.0,0.0,0.0,0.0,0.0,0.0,0.0,0.0,0.0,0.0,0.0,0.0,0.0,0.0,0.0,0.0,0.0,0.0,0.0,0.0,0.0,0.0,0.0,0.0,0.0,0.0,0.0,0.0,0.0,0.0,0.0,0.0,0.0,0.0,0.0,0.0,0.0,0.0,0.0,0.0,0.0,0.0,0.0,0.0,0.0,0.0,0.0,0.0,0.0,0.0,0.0,0.0,0.0,0.0,0.0,0.0,0.0,0.0,-0.9096,-0.9693,-1.0127,-1.0412,-1.0507,-0.9761,-0.8879,0.0,0.0,0.0,0.0,0.0,0.0,0.0,0.0,0.0,0.0,0.0,0.0,0.0,0.0,0.0,0.0,0.0,0.0,0.0,0.0,0.0,0.0,0.0,0.0,0.0,0.0,0.0,0.0,0.0,0.0,0.0,0.0,0.0,0.0,0.0,0.0,0.0,0.0,0.0,0.0,0.0,0.0,0.0,0.0,0.0,0.0,0.0,0.0,0.0,0.0,0.0,0.0,0.0,0.0,0.0,0.0,0.0,0.0,0.0,0.0,0.0,0.0,0.0,0.0,0.0,0.0,0.0,0.0,0.0,0.0,0.0,0.0,0.0,0.0,0.0,0.0,0.0,0.0,0.0,0.0,0.0,0.0,0.0,0.0,0.0,0.0,0.0,0.0,0.0,0.0,0.0,0.0,0.0,0.0,0.0,0.0,0.0,0.0,0.0,0.0,0.0,0.0,0.0,0.0,0.0,0.0,0.0,0.0,-0.9707,-1.029,-1.0629,-1.0819,-1.0846,-0.9613,-0.8818,0.0,0.0,0.0,0.0,0.0,0.0,0.0,0.0,0.0,0.0,0.0,0.0,0.0,0.0,0.0,0.0,0.0,0.0,0.0,0.0,0.0,0.0,0.0,0.0,0.0,0.0,0.0,0.0,0.0,0.0,0.0,0.0,0.0,0.0,0.0,0.0,0.0,0.0,0.0,0.0,0.0,0.0,0.0,0.0,0.0,0.0,0.0,0.0,-0.7038,0.0,0.0,0.0,0.0,0.0,0.0,0.0,0.0,0.0,0.0,0.0,0.0,0.0,0.0,0.0,0.0,0.0,0.0,0.0,0.0,0.0,0.0,0.0,0.0,0.0,0.0,0.0,0.0,0.0,0.0,0.0,0.0,0.0,0.0,0.0,0.0,0.0,0.0,0.0,0.0,0.0,0.0,0.0,0.0,0.0,0.0,0.0,0.0,0.0,0.0,0.0,0.0,0.0,0.0,0.0,0.0,0.0,0.0,0.0,-0.9788,-1.0378,-1.069,-1.0806,-1.084,-0.991,-0.911,0.0,0.0,0.0,0.0,0.0,0.0,0.0,0.0,0.0,0.0,0.0,0.0,0.0,0.0,0.0,0.0,0.0,0.0,0.0,0.0,0.0,0.0,0.0,0.0,0.0,0.0,0.0,0.0,0.0,0.0,0.0,0.0,0.0,0.0,0.0,0.0,0.0,0.0,0.0,0.0,0.0,0.0,0.0,0.0,0.0,0.0,0.0,0.0,0.0,0.0,0.0,0.0,0.0,0.0,0.0,0.0,0.0,0.0,0.0,0.0,0.0,0.0,0.0,0.0,0.0,0.0,0.0,0.0,0.0,0.0,0.0,0.0,0.0,0.0,0.0,0.0,0.0,0.0,0.0,0.0,0.0,0.0,0.0,0.0,0.0,0.0,0.0,0.0,0.0,0.0,0.0,0.0,0.0,0.0,0.0,0.0,0.0,0.0,0.0,0.0,0.0,0.0,0.0,0.0,0.0,0.0,0.0,-0.9089,-0.9727,-1.0358,-1.0629,-1.0745,-1.0867,-1.0243,-0.951,-0.8777,0.0,0.0,0.0,0.0,0.0,0.0,0.0,0.0,0.0,0.0,0.0,0.0,0.0,0.0,0.0,0.0,0.0,0.0,0.0,0.0,0.0,0.0,0.0,0.0,0.0,0.0,0.0,0.0,0.0,0.0,0.0,0.0,0.0,0.0,0.0,0.0,0.0,0.0,-0.6775,-0.7202,0.0,0.0,0.0,0.0,0.0,0.0,0.0,0.0,-0.7482,0.0,0.0,0.0,0.0,0.0,0.0,0.0,0.0,0.0,0.0,0.0,0.0,0.0,0.0,0.0,0.0,0.0,0.0,0.0,0.0,0.0,0.0,0.0,0.0,0.0,0.0,0.0,0.0,0.0,0.0,0.0,0.0,0.0,0.0,0.0,0.0,0.0,0.0,0.0,0.0,0.0,0.0,0.0,0.0,0.0,0.0,0.0,0.0,0.0,0.0,0.0,0.0,0.0,0.0,0.0,0.0,-0.9241,-0.9442,-0.9985,-1.0745,-1.082,-1.086,-1.086,-1.0274,-0.9599,-0.8933,0.0,0.0,0.0,0.0,0.0,0.0,0.0,0.0,0.0,0.0,0.0,0.0,0.0,0.0,0.0,0.0,0.0,0.0,0.0,0.0,0.0,0.0,0.0,0.0,0.0,0.0,0.0,0.0,0.0,0.0,0.0,0.0,0.0,0.0,0.0,0.0,0.0,0.0,0.0,-0.7739,-0.7848,0.0,0.0,0.0,0.0,0.0,0.0,0.0,0.0,-0.7602,0.0,0.0,0.0,0.0,0.0,0.0,0.0,0.0,0.0,0.0,0.0,0.0,0.0,0.0,0.0,0.0,0.0,0.0,0.0,0.0,0.0,0.0,0.0,0.0,0.0,0.0,0.0,0.0,0.0,0.0,0.0,0.0,0.0,0.0,0.0,0.0,0.0,0.0,0.0,0.0,0.0,0.0,0.0,0.0,0.0,0.0,0.0,0.0,0.0,0.0,0.0,0.0,0.0,0.0,0.0,-0.9137,-0.968,-1.0243,-1.0739,-1.0833,-1.0766,-1.0812,-1.0112,-0.9544,0.0,0.0,0.0,0.0,0.0,0.0,0.0,0.0,0.0,0.0,0.0,0.0,0.0,0.0,0.0,0.0,0.0,0.0,0.0,0.0,0.0,0.0,0.0,0.0,0.0,0.0,0.0,0.0,0.0,0.0,0.0,0.0,0.0,0.0,0.0,0.0,0.0,0.0,0.0,0.0,-0.7923,-0.8038,-0.8343,0.0,0.0,0.0,0.0,0.0,0.0,-0.7584,-0.7563,0.0,0.0,0.0,0.0,0.0,0.0,0.0,0.0,0.0,0.0,0.0,0.0,0.0,0.0,0.0,0.0,0.0,0.0,0.0,0.0,0.0,0.0,0.0,0.0,0.0,0.0,0.0,0.0,0.0,0.0,0.0,0.0,0.0,0.0,0.0,0.0,0.0,0.0,0.0,0.0,0.0,0.0,0.0,0.0,0.0,0.0,0.0,0.0,0.0,0.0,0.0,0.0,0.0,0.0,0.0,-0.8994,-0.9774,-1.0378,-1.0744,-1.0738,-1.0717,-1.0704,-1.0025,-0.9429,0.0,0.0,0.0,0.0,0.0,0.0,0.0,0.0,0.0,0.0,0.0,0.0,0.0,0.0,0.0,0.0,0.0,0.0,0.0,0.0,0.0,0.0,0.0,0.0,0.0,0.0,0.0,0.0,0.0,0.0,0.0,0.0,0.0,0.0,0.0,0.0,0.0,0.0,0.0,0.0,0.0,-0.833,-0.8499,-0.8275,0.0,0.0,0.0,0.0,-0.7821,-0.7902,0.0,0.0,0.0,0.0,0.0,0.0,0.0,0.0,0.0,0.0,0.0,0.0,0.0,0.0,0.0,0.0,0.0,0.0,0.0,0.0,0.0,0.0,0.0,0.0,0.0,0.0,0.0,0.0,0.0,0.0,0.0,0.0,0.0,0.0,0.0,0.0,0.0,0.0,0.0,0.0,0.0,0.0,0.0,0.0,0.0,0.0,0.0,0.0,0.0,0.0,0.0,0.0,0.0,0.0,0.0,0.0,-0.9173,-0.9618,-1.0215,-1.0806,-1.0792,-1.0717,-1.0711,-1.012,-0.953,0.0,0.0,0.0,0.0,0.0,0.0,0.0,0.0,0.0,0.0,0.0,0.0,0.0,0.0,0.0,0.0,0.0,0.0,0.0,0.0,0.0,0.0,0.0,0.0,0.0,0.0,0.0,0.0,0.0,0.0,0.0,0.0,0.0,0.0,0.0,0.0,0.0,0.0,0.0,0.0,0.0,-0.894,-0.8716,-0.8431,-0.8327,0.0,0.0,-0.8425,-0.856,-0.8913,0.0,0.0,0.0,0.0,0.0,0.0,0.0,0.0,0.0,0.0,0.0,0.0,0.0,0.0,0.0,0.0,0.0,0.0,0.0,0.0,0.0,0.0,0.0,0.0,0.0,0.0,0.0,0.0,0.0,0.0,0.0,0.0,0.0,0.0,0.0,0.0,0.0,0.0,0.0,0.0,0.0,0.0,0.0,0.0,0.0,0.0,0.0,0.0,0.0,0.0,0.0,0.0,0.0,0.0,0.0,-0.8621,-0.9042,-0.989,-1.0493,-1.0799,-1.0758,-1.0677,-1.0595,-0.9849,-0.9205,0.0,0.0,0.0,0.0,0.0,0.0,0.0,0.0,0.0,0.0,0.0,0.0,0.0,0.0,0.0,0.0,0.0,0.0,0.0,0.0,0.0,0.0,0.0,0.0,0.0,0.0,0.0,0.0,0.0,0.0,0.0,0.0,0.0,0.0,0.0,0.0,0.0,0.0,0.0,0.0,0.0,0.0,-0.8954,-0.8852,0.0,0.0,0.0,-0.8737,-0.8716,0.0,0.0,0.0,0.0,0.0,0.0,0.0,0.0,0.0,0.0,0.0,0.0,0.0,0.0,0.0,0.0,0.0,0.0,0.0,0.0,0.0,0.0,0.0,0.0,0.0,0.0,0.0,0.0,0.0,0.0,0.0,0.0,0.0,0.0,0.0,0.0,0.0,0.0,0.0,0.0,0.0,0.0,0.0,0.0,0.0,0.0,0.0,0.0,0.0,0.0,0.0,0.0,0.0,0.0,0.0,0.0,0.0,-0.9008,-1.0134,-1.0738,-1.0772,-1.0704,-1.0609,-1.048,-0.9693,0.0,0.0,0.0,0.0,0.0,0.0,0.0,0.0,0.0,0.0,0.0,0.0,0.0,0.0,0.0,0.0,0.0,0.0,0.0,0.0,0.0,0.0,0.0,0.0,0.0,0.0,0.0,-0.5935,0.0,0.0,0.0,0.0,0.0,0.0,0.0,0.0,0.0,0.0,0.0,0.0,0.0,0.0,-0.8899,-0.918,-0.9241,-0.9211,0.0,0.0,-0.9033,-0.9049,-0.9181,-0.906,0.0,0.0,0.0,0.0,0.0,0.0,0.0,0.0,0.0,0.0,0.0,0.0,0.0,0.0,0.0,0.0,0.0,0.0,0.0,0.0,0.0,0.0,0.0,0.0,0.0,0.0,0.0,0.0,0.0,0.0,0.0,0.0,0.0,0.0,0.0,0.0,0.0,0.0,0.0,0.0,0.0,0.0,0.0,0.0,0.0,0.0,0.0,0.0,0.0,0.0,0.0,0.0,0.0,0.0,-0.8845,-0.9221,-1.0181,-1.0785,-1.0847,-1.0656,-1.05,-1.048,-0.9897,-0.9232,0.0,0.0,0.0,0.0,0.0,0.0,0.0,0.0,0.0,0.0,0.0,0.0,0.0,0.0,0.0,0.0,0.0,0.0,0.0,0.0,0.0,0.0,0.0,0.0,0.0,0.0,0.0,0.0,0.0,0.0,0.0,0.0,0.0,0.0,0.0,0.0,0.0,0.0,0.0,0.0,0.0,-0.9187,-0.9207,-0.9337,-0.951,0.0,-0.9741,-0.9659,-0.9856,-1.0247,-1.0161,-0.8872,0.0,0.0,0.0,0.0,0.0,0.0,0.0,0.0,0.0,0.0,0.0,0.0,0.0,0.0,0.0,0.0,0.0,0.0,0.0,0.0,0.0,0.0,0.0,0.0,0.0,0.0,0.0,0.0,0.0,0.0,0.0,0.0,0.0,0.0,0.0,0.0,0.0,0.0,0.0,0.0,0.0,0.0,0.0,0.0,0.0,0.0,0.0,0.0,0.0,0.0,0.0,0.0,0.0,-0.8628,-0.9028,-1.0053,-1.0609,-1.0663,-1.0555,-1.0405,-1.0222,-0.9734,-0.9117,0.0,0.0,0.0,0.0,0.0,0.0,0.0,0.0,0.0,0.0,0.0,0.0,0.0,0.0,0.0,0.0,0.0,0.0,0.0,0.0,0.0,0.0,0.0,0.0,0.0,0.0,0.0,0.0,-0.641,-0.6464,-0.6525,0.0,0.0,0.0,0.0,0.0,0.0,0.0,0.0,0.0,0.0,-0.9309,-0.9523,-0.9781,0.0,0.0,-1.0093,-1.0059,-1.0175,-1.0019,-0.9659,-0.896,-0.8513,0.0,0.0,0.0,0.0,0.0,0.0,0.0,0.0,0.0,0.0,0.0,0.0,0.0,0.0,0.0,0.0,0.0,0.0,0.0,0.0,0.0,0.0,0.0,0.0,0.0,0.0,0.0,0.0,0.0,0.0,0.0,0.0,0.0,0.0,0.0,0.0,0.0,0.0,0.0,0.0,0.0,0.0,0.0,0.0,0.0,0.0,0.0,0.0,0.0,0.0,0.0,0.0,-0.8472,-0.8872,-0.9897,-1.0432,-1.0426,-1.0385,-1.0256,-0.9984,-0.9618,-0.9049,0.0,0.0,0.0,0.0,0.0,0.0,0.0,0.0,0.0,0.0,0.0,0.0,0.0,0.0,0.0,0.0,0.0,0.0,0.0,0.0,0.0,0.0,0.0,0.0,0.0,0.0,0.0,0.0,-0.6593,-0.6586,-0.6627,0.0,0.0,0.0,0.0,0.0,0.0,0.0,0.0,0.0,0.0,-0.9435,-0.9836,-1.0114,-1.034,-1.034,-1.0202,-1.0161,-1.0209,-0.9856,-0.9449,-0.9069,0.0,0.0,0.0,0.0,0.0,0.0,0.0,0.0,0.0,0.0,0.0,0.0,0.0,0.0,0.0,0.0,0.0,0.0,0.0,0.0,0.0,0.0,0.0,0.0,0.0,0.0,0.0,-0.7098,0.0,0.0,-0.7092,0.0,0.0,0.0,0.0,0.0,0.0,0.0,0.0,0.0,0.0,0.0,0.0,0.0,0.0,0.0,0.0,0.0,0.0,0.0,0.0,0.0,0.0,-0.8418,-0.8723,-0.9754,-1.0283,-1.0283,-1.0134,-0.9997,-0.997,-0.9612,-0.9096,-0.8531,0.0,0.0,0.0,0.0,0.0,0.0,0.0,0.0,0.0,0.0,0.0,0.0,0.0,0.0,0.0,0.0,0.0,0.0,0.0,0.0,0.0,0.0,0.0,0.0,0.0,0.0,-0.6491,-0.6395,-0.6375,0.0,0.0,0.0,0.0,0.0,0.0,0.0,0.0,0.0,-0.8621,-0.9218,-0.9707,-0.993,-1.0175,-1.034,-1.034,-1.0032,-0.989,-0.9977,-0.9963,-0.9836,0.0,0.0,0.0,0.0,0.0,0.0,0.0,0.0,0.0,0.0,0.0,0.0,0.0,0.0,0.0,0.0,0.0,0.0,0.0,0.0,0.0,0.0,0.0,0.0,0.0,0.0,0.0,-0.7773,-0.7537,0.0,0.0,0.0,0.0,0.0,0.0,0.0,0.0,0.0,0.0,0.0,-0.8404,-0.8309,0.0,0.0,0.0,0.0,0.0,0.0,0.0,0.0,0.0,0.0,0.0,0.0,-0.8364,-0.8817,-0.9693,-1.0127,-1.0127,-1.0011,-0.9896,-0.9761,-0.951,-0.896,-0.8065,0.0,0.0,0.0,0.0,0.0,0.0,0.0,0.0,0.0,0.0,0.0,0.0,0.0,0.0,0.0,0.0,0.0,0.0,0.0,0.0,0.0,0.0,0.0,0.0,0.0,-0.6736,0.0,0.0,0.0,0.0,0.0,0.0,0.0,0.0,0.0,0.0,0.0,-0.8137,-0.8784,-0.9205,-0.9564,-0.9856,-1.0114,-1.034,0.0,0.0,0.0,0.0,0.0,0.0,0.0,0.0,0.0,0.0,0.0,0.0,0.0,0.0,-0.8635,-0.7943,-0.7773,-0.7705,-0.7807,0.0,0.0,0.0,0.0,0.0,0.0,0.0,0.0,0.0,0.0,0.0,0.0,0.0,0.0,-0.8289,-0.8187,-0.7991,0.0,0.0,0.0,0.0,0.0,0.0,0.0,0.0,-0.8521,-0.8784,-0.8872,-0.8818,-0.875,-0.8702,-0.8397,-0.7923,0.0,0.0,0.0,0.0,0.0,0.0,0.0,0.0,-0.8364,-0.8811,-0.9532,-0.9909,-0.9903,-0.9862,-0.9802,-0.9612,-0.9361,-0.8784,-0.7841,-0.7395,-0.6953,0.0,0.0,0.0,0.0,0.0,0.0,0.0,0.0,0.0,0.0,0.0,0.0,0.0,0.0,0.0,0.0,0.0,0.0,0.0,0.0,0.0,0.0,0.0,-0.679,0.0,0.0,0.0,0.0,0.0,0.0,0.0,0.0,0.0,-0.7929,-0.8194,-0.8501,-0.904,-0.9381,-0.9625,-0.9863,0.0,0.0,0.0,0.0,0.0,0.0,0.0,-0.9239,-0.9429,-0.9103,-0.8886,-0.9166,-0.9279,-0.9286,-0.8932,0.0,0.0,-0.8492,-0.8357,-0.8384,-0.8486,-0.8621,-0.8743,-0.8852,-0.8994,-0.9069,0.0,0.0,0.0,0.0,-0.8721,0.0,0.0,0.0,-0.8662,-0.8696,0.0,-0.8615,0.0,0.0,0.0,0.0,-0.8092,-0.8628,0.0,0.0,-0.9646,-0.9808,-0.9605,-0.9456,-0.9388,-0.9381,-0.9282,-0.8907,-0.832,-0.7421,0.0,0.0,0.0,0.0,0.0,0.0,-0.8425,-0.8743,-0.9449,-0.9815,-0.9808,-0.968,-0.9605,-0.9578,-0.9164,-0.8534,-0.7882,-0.7821,-0.7407,-0.6586,-0.6402,0.0,0.0,0.0,0.0,0.0,0.0,0.0,0.0,0.0,0.0,0.0,0.0,0.0,0.0,0.0,0.0,0.0,0.0,0.0,0.0,-0.6607,0.0,0.0,0.0,0.0,0.0,0.0,0.0,0.0,0.0,0.0,-0.832,-0.8662,-0.904,-0.953,0.0,0.0,0.0,0.0,-0.993,-0.9849,-0.9707,-0.9625,-0.9625,-0.9605,-0.9598,-0.9612,0.0,0.0,-0.9309,-0.9364,-0.9327,-0.9028,-0.9334,-0.9571,-0.9401,-0.9137,-0.9055,-0.9306,-0.9266,-0.935,-0.9544,-0.9686,-0.9795,-1.1115,0.0,0.0,0.0,0.0,-0.929,-0.9391,-0.9564,-0.9476,-0.9367,-0.9232,-0.894,0.0,0.0,0.0,0.0,0.0,0.0,-0.9381,-0.9427,-0.9652,-0.9707,-0.9754,-0.9713,-0.9693,-0.9686,-0.9551,-0.9279,-0.8948,-0.8431,-0.7773,-0.6923,0.0,0.0,0.0,0.0,-0.8621,-0.9022,-0.9449,-0.9673,-0.9666,-0.9523,-0.9395,-0.9344,-0.8954,-0.8621,-0.8296,-0.8085,-0.7712,-0.7187,-0.6871,0.0,0.0,0.0,0.0,0.0,0.0,0.0,0.0,0.0,0.0,0.0,0.0,0.0,0.0,0.0,0.0,0.0,0.0,0.0,-0.6444,-0.6512,-0.6607,0.0,0.0,0.0,0.0,0.0,0.0,0.0,0.0,0.0,-0.89,-0.892,-0.9062,0.0,0.0,-0.9646,-0.9578,-0.9754,-0.9869,-0.9829,-0.9788,0.0,-0.9761,-0.9585,-0.9517,-0.9727,-0.9883,-0.9903,-0.9666,-0.9754,-0.9795,-0.9539,-0.9673,-0.9747,-0.9707,-0.9632,-0.9598,-0.968,-0.9741,-0.9815,-0.9849,-1.0039,-1.0114,-1.1941,-1.1048,-1.0552,-1.0367,-1.0376,-0.9967,-1.0007,-1.0357,-1.0115,-0.993,-0.9802,-0.9451,-0.9164,-0.8791,-0.8774,0.0,0.0,0.0,-0.9712,-0.9881,-0.9764,-0.9735,-0.9808,-0.9822,-0.9822,-0.9815,-0.9734,-0.9571,-0.9327,-0.9028,-0.8506,-0.778,0.0,-0.757,-0.7868,-0.8336,-0.8737,-0.9062,-0.9367,-0.9517,-0.9517,-0.9367,-0.9218,-0.9069,-0.8893,-0.8703,-0.8486,-0.8309,-0.8011,-0.7563,-0.7265,-0.6858,0.0,0.0,0.0,0.0,0.0,0.0,0.0,0.0,0.0,0.0,0.0,-0.5872,-0.5616,0.0,0.0,0.0,-0.6101,-0.6377,-0.6709,-0.679,0.0,0.0,0.0,0.0,0.0,0.0,0.0,-0.8092,-0.8391,-0.8716,-0.9152,-0.913,-0.9225,-0.9517,-0.9585,-0.9598,-0.9564,0.0,-0.9822,-0.9822,-0.9822,-0.9822,-0.9815,-0.9673,-0.9618,-0.9788,-0.9835,-0.993,-0.9842,-0.9897,-0.9862,-0.9849,-0.9822,-0.9822,-0.9822,-0.9822,-0.9849,-0.9842,-0.9923,-0.9997,-1.0127,-1.0215,-1.0249,-1.2346,-1.1702,-1.1035,-1.104,-1.1386,-1.062,-1.058,-1.1087,-1.0548,-1.0365,-1.0453,-1.0175,-0.9897,-0.9657,-0.9596,0.0,-0.9997,-1.0055,-1.0148,-1.0301,-1.0004,-0.9822,-0.9822,-0.9822,-0.9822,-0.9822,-0.9822,-0.9741,-0.9578,-0.9306,-0.9015,-0.871,-0.8303,-0.8153,-0.8327,-0.856,-0.8784,-0.894,-0.9205,-0.9347,-0.934,-0.9268,-0.9118,-0.8871,-0.8865,-0.8777,-0.8531,-0.8465,-0.8269,-0.7848,-0.755,-0.719,-0.6756,0.0,0.0,0.0,0.0,0.0,0.0,0.0,0.0,0.0,0.0,0.0,0.0,0.0,0.0,0.0,-0.6491,0.0,-0.7105,-0.7305,0.0,0.0,0.0,-0.7489,-0.7651,-0.7923,-0.8147,-0.8289,0.0,0.0,-0.9173,-0.9337,-0.9462,-0.9747,-0.9693,-0.9666,-0.9788,-0.9808,-0.9822,-0.9822,-0.9822,-0.9822,-0.9822,-0.9808,-0.9802,-0.9815,-0.9822,-0.9829,-0.9822,-0.9822,-0.9822,-0.9822,-0.9822,-0.9822,-0.9822,-0.9822,-0.9802,-0.993,-0.9963,-1.0066,-1.0181,-1.0215,-1.0209,-1.2007,-1.1299,-1.1135,-1.1171,-1.1265,-1.0913,-1.0804,-1.0829,-1.0521,-1.0399,-1.0317,-1.0134,-1.0067,-1.0183,-1.0614,-1.0896,-1.0973,-1.122,-1.1147,-1.0664,-1.0611,-1.0308,-0.9822,-0.9822,-0.9822,-0.9822,-0.9822,-0.9686,-0.9442,-0.9367,-0.9117,-0.8723,-0.8601,-0.8459,-0.834,-0.856,-0.8784,-0.894,-0.9008,-0.8986,-0.8986,-0.9008,-0.8858,-0.8716,-0.8764,-0.8621,-0.8336,-0.8368,-0.8214,-0.7941,-0.7706,-0.7387,-0.7004,-0.6512,0.0,0.0,0.0,0.0,0.0,0.0,0.0,0.0,0.0,-0.6396,-0.565,0.0,-0.6539,0.0,-0.6946,-0.7285,-0.7468,-0.7522,0.0,0.0,-0.795,-0.7984,-0.8241,-0.8438,-0.8567,-0.8601,-0.8771,-0.8954,-0.9187,-0.9241,-0.9279,-0.9462,-0.9652,-0.9741,-0.968,-0.9754,-0.9822,-0.9822,-0.9822,-0.9822,-0.9822,-0.9822,-0.9822,-0.9822,-0.9822,-0.9822,-0.9822,-0.9822,-0.9822,-0.9822,-0.9822,-0.9822,-0.9822,-0.9822,-0.9829,-0.9869,-0.9876,-0.9883,-0.9924,-0.9937,-0.9937,-1.16,-1.0982,-1.0982,-1.0982,-1.0975,-1.0892,-1.0906,-1.0902,-1.062,-1.0412,-1.0263,-0.9984,-1.0087,-1.0308,-1.0664,-1.1027,-1.1269,-1.1156,-1.1035,-1.0793,-1.049,-1.0126,-0.9822,-0.9822,-0.9822,-0.9822,-0.9822,-0.9707,-0.949,-0.9415,-0.9218,-0.8906,-0.8845,-0.8696,-0.8479,-0.856,-0.8655,-0.873,-0.8804,-0.8866,-0.8878,-0.8817,-0.8798,-0.871,-0.8648,-0.8472,-0.818,-0.8167,-0.8065,-0.7855,-0.7685,-0.7455,-0.7112,-0.6831,-0.6519,0.0,0.0,0.0,0.0,0.0,0.0,0.0,0.0,0.0,0.0,0.0,-0.6858,-0.6987,-0.7346,-0.7658,-0.7875,-0.7957,-0.8119,-0.8431,-0.8391,-0.8379,-0.8662,-0.8757,-0.8757,-0.8811,-0.8886,-0.8939,-0.9187,-0.9214,-0.9262,-0.9419,-0.9523,-0.9625,-0.9618,-0.968,-0.9747,-0.9808,-0.9822,-0.9822,-0.9822,-0.9822,-0.9822,-0.9822,-0.9822,-0.9822,-0.9822,-0.9822,-0.9822,-0.9822,-0.9822,-0.9822,-0.9822,-0.9822,-0.9822,-0.9822,-0.9822,-0.9822,-0.9822,-0.9822,-0.9822,-1.126,-1.0724,-1.0717,-1.0717,-1.0717,-1.0717,-1.085,-1.1108,-1.0692,-1.0399,-1.0236,-1.0012,-1.0065,-1.0308,-1.0361,-1.0664,-1.1148,-1.0589,-1.0453,-1.0695,-1.0077,-0.9774,-0.9795,-0.9795,-0.9802,-0.9822,-0.9802,-0.972,-0.9578,-0.9422,-0.9323,-0.9152,-0.8974,-0.8832,-0.8682,-0.8547,-0.8531,-0.8538,-0.8628,-0.8771,-0.8844,-0.8757,-0.8676,-0.8648,-0.8401,-0.8193,-0.7975,-0.7862,-0.7749,-0.7645,-0.7631,-0.7495,-0.7173,-0.7098,-0.7,0.0,-0.6695,0.0,0.0,0.0,0.0,0.0,0.0,0.0,0.0,-0.6997,-0.721,-0.7468,-0.7753,-0.8038,-0.8354,-0.8459,-0.8594,-0.8723,-0.8743,-0.8791,-0.8865,-0.894,-0.894,-0.894,-0.894,-0.8988,-0.9103,-0.918,-0.9234,-0.9279,-0.9313,-0.9388,-0.9544,-0.9598,-0.9666,-0.9795,-0.9822,-0.9822,-0.9822,-0.9822,-0.9822,-0.9822,-0.9822,-0.9822,-0.9822,-0.9822,-0.9822,-0.9822,-0.9822,-0.9822,-0.9822,-0.9822,-0.9808,-0.9788,-0.9802,-0.9822,-0.9822,-0.9822,-0.9822,-1.1057,-1.0724,-1.0717,-1.0717,-1.0717,-1.0717,-1.0717,-1.0777,-1.062,-1.0344,-1.0086,-1.0141,-1.024,-1.0308,-1.0611,-1.0793,-1.0899,-1.0658,-1.042,-1.0242,-0.9994,-0.9825,-0.9646,-0.9652,-0.9713,-0.9808,-0.9707,-0.9571,-0.9422,-0.9323,-0.9118,-0.8798,-0.8771,-0.8676,-0.8533,0.0,0.0,0.0,-0.8635,-0.8723,-0.8743,-0.8608,-0.8472,-0.8357,-0.7477,0.0,-0.7771,-0.7119,-0.7052,-0.7732,-0.7773,0.0,0.0,0.0,0.0,0.0,0.0,0.0,0.0,0.0,0.0,0.0,-0.7468,-0.7305,-0.7092,-0.7665,-0.8095,-0.8099,-0.8364,-0.856,-0.8621,-0.8764,-0.8866,-0.8838,-0.8838,-0.8851,-0.894,-0.894,-0.894,-0.894,-0.894,-0.8947,-0.8981,-0.8981,-0.8994,-0.9028,-0.9028,-0.9137,-0.9395,-0.9523,-0.9652,-0.9788,-0.9815,-0.9815,-0.9822,-0.9822,-0.9822,-0.9822,-0.9822,-0.9815,-0.9808,-0.9808,-0.9815,-0.9808,-0.9822,-0.9815,-0.9815,-0.9822,-0.9768,-0.9673,-0.9741,-0.9822,-0.9822,-0.9822,-0.9822,-1.0989,-1.0724,-1.0717,-1.0717,0.0,-1.0717,-1.0717,-1.0711,-1.0561,-1.0324,-1.0039,-1.0012,-1.0126,-1.0308,-1.0301,-1.0482,-1.0785,-1.033,-1.0139,-1.0073,-0.9799,-0.9597,-0.9496,-0.9496,-0.9537,-0.9598,-0.953,-0.9415,-0.9273,-0.9248,-0.9042,-0.877,-0.8825,-0.8784,-0.871,-0.871,-0.8669,-0.8594,-0.8669,-0.871,-0.8703,-0.856,-0.8418,-0.8275,-0.7661,0.0,0.0,0.0,0.0,0.0,0.0,0.0,0.0,0.0,0.0,-0.7321,-0.7292,-0.7312,-0.7461,-0.755,-0.7719,-0.8011,-0.8106,-0.8018,-0.7726,-0.8113,-0.8404,-0.8479,-0.8628,-0.8743,-0.8818,-0.8838,-0.894,-0.894,-0.894,-0.894,-0.894,-0.894,-0.894,-0.894,-0.894,-0.894,-0.894,-0.894,-0.894,-0.894,-0.894,-0.9022,-0.9232,-0.9401,-0.9571,-0.9774,-0.9754,-0.9741,-0.9808,-0.9822,-0.9788,-0.9741,-0.9713,-0.9686,-0.9612,-0.9605,-0.9605,-0.9605,-0.9605,-0.9605,-0.9605,-0.9605,-0.9578,-0.9523,-0.9551,-0.9598,-0.9612,-0.9713,-0.9822,-1.0989,-1.0724,-1.0717,-1.0717,-1.0717,-1.0717,-1.0717,-1.0711,-1.0527,0.0,0.0,-0.9829,-0.9943,-1.0186,-0.9937,-1.0112,-1.056,-0.987,-0.9676,-0.9929,-0.949,-0.9313,-0.934,-0.9398,-0.9354,-0.9381,-0.9412,-0.9273,-0.9214,-0.9187,-0.9055,-0.8892,-0.894,-0.894,-0.894,-0.894,-0.8824,-0.8757,-0.8696,-0.8669,-0.8669,-0.8499,-0.835,-0.8228,-0.7729,-0.7045,-0.6257,-0.5863,-0.5673,-0.5778,-0.5931,-0.646,-0.7307,-0.765,-0.7814,-0.7821,-0.7907,-0.8002,-0.8029,-0.8221,-0.8323,-0.8402,-0.8594,-0.8635,-0.837,-0.8479,-0.8615,-0.8737,-0.875,-0.8804,-0.8871,-0.894,-0.894,-0.894,-0.894,-0.894,-0.894,-0.894,-0.894,-0.894,-0.894,-0.894,-0.894,-0.894,-0.894,-0.894,-0.894,-0.8988,-0.9193,-0.935,-0.9469,-0.9659,-0.9625,-0.9612,-0.97,-0.9727,-0.9693,-0.9591,-0.9571,-0.9523,-0.9422,-0.9381,-0.9381,-0.9408,-0.9381,-0.9395,-0.9388,-0.9401,-0.9381,-0.9381,-0.9381,-0.9381,-0.9401,-0.9571,-0.972,-1.0989,-1.0717,-1.0717,-1.0717,-1.0717,-1.0717,-1.0717,-1.0697,-1.0432,-1.0215,-0.9977,-0.989,-0.9822,-0.9883,-0.9822,-0.9814,-0.9751,-0.9541,-0.9398,-0.9325,-0.9069,-0.9062,-0.9241,-0.9241,-0.9309,-0.9367,-0.9309,-0.9234,-0.92,-0.9028,-0.8905,-0.8885,-0.894,-0.894,-0.894,-0.894,-0.8871,-0.8844,-0.8648,-0.8513,-0.8513,-0.8241,-0.8042,-0.7965,-0.624,-0.5586,-0.6155,-0.4549,-0.3957,-0.4776,-0.5787,-0.6339,-0.6429,-0.7263,-0.7814,-0.7821,-0.7907,-0.8099,-0.8228,-0.837,-0.8506,-0.8642,-0.8811,-0.8777,-0.8676,-0.8784,-0.8831,-0.8851,-0.8899,-0.8858,-0.894,-0.894,-0.894,-0.894,-0.894,-0.894,-0.894,-0.894,-0.894,-0.894,-0.894,-0.894,-0.894,-0.894,-0.894,-0.894,-0.894,-0.8988,-0.9123,-0.9286,-0.9381,-0.9429,-0.9429,-0.9422,-0.9469,-0.9449,-0.9449,-0.9422,-0.9415,-0.9401,-0.9354,-0.934,-0.934,-0.9367,-0.9347,-0.9354,-0.9361,-0.9381,-0.9354,-0.9347,-0.934,-0.9354,-0.9347,-0.9401,-0.9449,-1.0989,-1.0731,-1.0717,-1.0717,-1.0717,-1.0717,-1.0717,-1.0697,-1.0493,-1.031,-1.0154,-0.9924,-0.9822,-0.9822,-0.9822,-0.9741,-0.9605,-0.9449,-0.9357,-0.9207,-0.9001,-0.8919,-0.9035,-0.9035,-0.9076,-0.9137,-0.9069,-0.9035,-0.9028,-0.8912,-0.894,-0.894,-0.894,-0.894,-0.894,-0.894,-0.894,-0.894,-0.8743,-0.8648,-0.8486,-0.7775,-0.7331,-0.7141,-0.5629,-0.4716,-0.4567,-0.3676,-0.3381,-0.3828,-0.4357,-0.5159,-0.6257,-0.6799,-0.7328,-0.8002,-0.8126,-0.8269,-0.8492,-0.8648,-0.8757,-0.8832,-0.8844,-0.8858,-0.8845,-0.8844,-0.894,-0.894,-0.894,-0.894,-0.894,-0.894,-0.894,-0.894,-0.894,-0.894,-0.894,-0.894,-0.894,-0.894,-0.894,-0.894,-0.894,-0.894,-0.894,-0.894,-0.894,-0.8912,-0.9028,-0.9103,-0.9205,-0.9334,-0.9313,-0.93,-0.9361,-0.9381,-0.9347,-0.933,-0.9316,-0.9225,-0.9164,-0.9144,-0.9144,-0.9137,-0.9144,-0.9144,-0.9144,-0.9144,-0.9144,-0.9137,-0.9144,-0.9144,-0.9144,-0.9144,-0.9198,-1.0989,-1.0724,-1.0717,-1.0717,-1.0717,-1.0717,-1.0717,-1.0704,-1.0555,-1.0412,-1.0249,-0.9992,-0.9856,-0.9822,-0.9822,-0.972,-0.9557,-0.9435,-0.9337,-0.9103,-0.8994,-0.894,-0.894,-0.894,-0.894,-0.894,-0.894,-0.894,-0.894,-0.894,-0.894,-0.894,-0.894,-0.894,-0.894,-0.894,-0.894,-0.894,-0.894,-0.8811,-0.8547,-0.7679,-0.697,-0.6441,-0.5386,-0.4275,-0.3274,-0.2975,-0.2823,-0.2871,-0.3073,-0.3977,-0.5532,-0.6132,-0.6844,-0.7833,-0.8193,-0.8452,-0.8737,-0.8811,-0.894,-0.894,-0.894,-0.894,-0.894,-0.894,-0.894,-0.894,-0.894,-0.894,-0.894,-0.894,-0.894,-0.894,-0.894,-0.894,-0.894,-0.894,-0.894,-0.894,-0.894,-0.894,-0.894,-0.894,-0.894,-0.894,-0.896,-0.8988,-0.8932,-0.9015,-0.9144,-0.9266,-0.9309,-0.9262,-0.9313,-0.9384,-0.9259,-0.9187,-0.9103,-0.9062,-0.8988,-0.8947,-0.894,-0.896,-0.8954,-0.8912,-0.8947,-0.8947,-0.8974,-0.9015,-0.9008,-0.896,-0.8967,-0.8967,-0.9008,-1.0989,-1.0738,-1.0717,-1.0717,-1.0717,-1.0717,-1.0717,-1.0704,-1.0561,-1.0412,-1.0263,-1.01,-0.9889,-0.9829,-0.9822,-0.9673,-0.9415,-0.9388,-0.9232,-0.8981,-0.8947,-0.894,-0.894,-0.894,-0.894,-0.894,-0.894,-0.894,-0.894,-0.894,-0.894,-0.894,-0.894,-0.894,-0.894,-0.894,-0.894,-0.894,-0.894,-0.8859,-0.8689,-0.832,-0.7705,-0.6697,-0.5473,-0.4275,-0.3324,-0.2269,-0.1768,-0.1819,-0.2723,-0.3274,-0.3676,-0.5331,-0.6536,-0.6862,-0.7865,-0.8594,-0.8824,-0.8878,-0.894,-0.894,-0.894,-0.894,-0.894,-0.894,-0.894,-0.894,-0.894,-0.894,-0.894,-0.894,-0.894,-0.894,-0.894,-0.894,-0.894,-0.894,-0.894,-0.894,-0.894,-0.894,-0.894,-0.894,-0.894,-0.8885,-0.9042,-0.9103,-0.9123,-0.9218,-0.9313,-0.9347,-0.9259,-0.9234,-0.9248,-0.9234,-0.913,-0.9001,-0.896,-0.8954,-0.894,-0.894,-0.894,-0.894,-0.894,-0.894,-0.894,-0.894,-0.8981,-0.9028,-0.9001,-0.894,-0.894,-0.894,-0.8919,-1.0989,-1.0724,-1.0717,-1.0717,-1.0717,-1.0717,-1.0717,-1.0711,-1.0656,-1.05,-1.029,-1.0215,-1.0053,-0.9822,-0.9822,-0.9659,-0.9388,-0.9381,-0.9218,-0.8954,-0.894,-0.894,-0.894,-0.894,-0.894,-0.894,-0.894,-0.894,-0.894,-0.894,-0.894,-0.894,-0.894,-0.894,-0.894,-0.894,-0.894,-0.894,-0.894,-0.8866,-0.8595,-0.792,-0.717,-0.6518,-0.54,-0.4626,-0.4175,-0.3726,-0.3173,-0.2622,-0.2975,-0.3224,-0.3224,-0.4626,-0.5855,-0.6755,-0.8028,-0.8804,-0.8927,-0.894,-0.894,-0.894,-0.894,-0.894,-0.894,-0.894,-0.894,-0.894,-0.894,-0.894,-0.894,-0.894,-0.894,-0.894,-0.894,-0.894,-0.894,-0.894,-0.894,-0.894,-0.894,-0.894,-0.894,-0.894,-0.894,-0.8954,-0.9062,-0.9214,-0.9228,-0.9337,-0.9408,-0.949,-0.9456,-0.934,-0.9268,-0.9214,-0.9089,-0.8988,-0.894,-0.894,-0.894,-0.894,-0.894,-0.894,-0.894,-0.894,-0.894,-0.894,-0.896,-0.8959,-0.9008,-0.894,-0.894,-0.894,-0.894,-1.0989,-1.0738,-1.0717,-1.0717,-1.0717,-1.0717,-1.0717,-1.0717,-1.0717,-1.0555,-1.029,-1.034,-1.0114,-0.9849,-0.9822,-0.9659,-0.9401,-0.9381,-0.9218,-0.896,-0.894,-0.894,-0.894,-0.894,-0.894,-0.894,-0.894,-0.894,-0.894,-0.894,-0.894,-0.894,-0.894,-0.894,-0.894,-0.894,-0.894,-0.8878,-0.8844,-0.8804,-0.8541,-0.7756,-0.7021,-0.6497,-0.5691,-0.5127,-0.4822,-0.4522,-0.4175,-0.3673,-0.3374,-0.3324,-0.3676,-0.4676,-0.5875,-0.7194,-0.8291,-0.8838,-0.8933,-0.894,-0.894,-0.894,-0.894,-0.894,-0.894,-0.894,-0.894,-0.894,-0.894,-0.894,-0.894,-0.894,-0.894,-0.894,-0.894,-0.894,-0.894,-0.894,-0.894,-0.894,-0.894,-0.894,-0.894,-0.8885,-0.8892,-0.9008,-0.9123,-0.9303,-0.9344,-0.9415,-0.9551,-0.9652,-0.9666,-0.9537,-0.9337,-0.9225,-0.9144,-0.8994,-0.894,-0.894,-0.894,-0.894,-0.894,-0.894,-0.894,-0.894,-0.894,-0.894,-0.8657,-0.8491,-0.838,-0.8208,-0.7703,-0.8097,-0.8152,-1.0989,-1.0738,-1.0717,-1.0717,-1.0717,-1.0717,-1.0717,-1.0717,-1.0717,-1.0555,-1.031,-1.0347,-1.0114,-0.9775,-0.9822,-0.9659,-0.9408,-0.9374,-0.9225,-0.8912,-0.8885,-0.894,-0.894,-0.894,-0.894,-0.894,-0.894,-0.894,-0.894,-0.894,-0.894,-0.894,-0.894,-0.894,-0.894,-0.894,-0.894,-0.8871,-0.8818,-0.8655,-0.8506,-0.8312,-0.7712,-0.6833,-0.6441,-0.5882,-0.4977,-0.3874,-0.3773,-0.4722,-0.3823,-0.3673,-0.4626,-0.5687,-0.6912,-0.8197,-0.8588,-0.8743,-0.892,-0.894,-0.894,-0.894,-0.894,-0.894,-0.894,-0.894,-0.894,-0.894,-0.894,-0.894,-0.894,-0.894,-0.894,-0.894,-0.894,-0.894,-0.894,-0.894,-0.894,-0.894,-0.894,-0.894,-0.894,-0.894,-0.9008,-0.9123,-0.9323,-0.9408,-0.953,-0.9686,-0.9768,-0.9781,-0.9774,-0.9707,-0.9442,-0.9374,-0.9245,-0.9069,-0.8988,-0.8947,-0.894,-0.894,-0.894,-0.8885,-0.894,-0.894,-0.894,-0.8657,-0.8214,-0.782,-0.7321,-0.6982,-0.6533,-0.6816,-0.6871,-1.0989,-1.0724,-1.0717,-1.0717,-1.0717,-1.0717,-1.0717,-1.0717,-1.0717,-1.0609,-1.0426,-1.0324,-1.0161,-0.9903,-0.9863,-0.9659,-0.9388,-0.9344,-0.9234,-0.9069,-0.8981,-0.8988,-0.9062,-0.8988,-0.894,-0.894,-0.894,-0.894,-0.894,-0.894,-0.894,-0.894,-0.894,-0.894,-0.894,-0.894,-0.894,-0.8878,-0.8879,-0.8737,-0.8506,-0.8484,-0.811,-0.7566,-0.7466,-0.7235,-0.6886,-0.5832,-0.5432,-0.5782,-0.4826,-0.4375,-0.4885,-0.6016,-0.7269,-0.8328,-0.8716,-0.8824,-0.8871,-0.894,-0.894,-0.894,-0.894,-0.894,-0.894,-0.894,-0.894,-0.894,-0.894,-0.894,-0.894,-0.894,-0.894,-0.894,-0.894,-0.894,-0.894,-0.894,-0.894,-0.894,-0.894,-0.894,-0.8905,-0.9015,-0.9096,-0.9221,-0.9367,-0.953,-0.9612,-0.9734,-0.9822,-0.9822,-0.9815,-0.9754,-0.9571,-0.9523,-0.9435,-0.9211,-0.9069,-0.9008,-0.8981,-0.8947,-0.894,-0.8712,-0.8768,-0.8768,-0.8712,-0.7875,-0.7487,-0.7038,-0.6538,-0.581,-0.5472,-0.5699,-0.5699,-1.09,-1.0738,-1.0717,-1.0717,-1.0717,-1.0717,-1.0717,-1.0717,-1.0717,-1.0636,-1.048,-1.0344,-1.0195,-0.997,-0.9781,-0.9625,-0.9388,-0.933,-0.9234,-0.9089,-0.9028,-0.9035,-0.9069,-0.9035,-0.8981,-0.8892,-0.894,-0.894,-0.894,-0.894,-0.894,-0.894,-0.894,-0.894,-0.894,-0.894,-0.894,-0.8878,-0.8838,-0.8737,-0.8565,-0.8531,-0.8336,-0.8049,-0.8035,-0.8085,-0.7995,-0.6986,-0.6587,-0.6736,-0.5882,-0.5477,-0.5897,-0.6737,-0.7599,-0.8387,-0.8669,-0.8838,-0.8865,-0.894,-0.894,-0.894,-0.894,-0.894,-0.894,-0.894,-0.894,-0.894,-0.894,-0.894,-0.894,-0.894,-0.894,-0.894,-0.894,-0.894,-0.894,-0.894,-0.894,-0.894,-0.894,-0.8954,-0.9008,-0.9146,-0.9248,-0.9337,-0.9496,-0.9612,-0.968,-0.9747,-0.9822,-0.9822,-0.9822,-0.9781,-0.9693,-0.9673,-0.9496,-0.9266,-0.9144,-0.9083,-0.8821,-0.8843,-0.8657,-0.8491,-0.8491,-0.8546,-0.8152,-0.726,-0.6644,-0.6144,-0.5365,-0.4585,-0.447,-0.4526,-0.4414,-1.0731,-1.0717,-1.0717,-1.0717,-1.0717,-1.0717,-1.0717,-1.0717,-1.0717,-1.0643,-1.0514,-1.0358,-1.0222,-0.997,-0.9808,-0.9557,-0.9422,-0.9374,-0.9225,-0.9001,-0.9083,-0.9076,-0.8988,-0.9083,-0.9055,-0.8892,-0.894,-0.894,-0.894,-0.894,-0.894,-0.894,-0.894,-0.894,-0.894,-0.894,-0.894,-0.8858,-0.8763,-0.8662,-0.8506,-0.8499,-0.8364,-0.8056,-0.8187,-0.8194,-0.8008,-0.6992,-0.6836,-0.764,-0.6886,-0.6886,-0.759,-0.7892,-0.8143,-0.8445,-0.8506,-0.8655,-0.8893,-0.894,-0.894,-0.894,-0.894,-0.894,-0.894,-0.894,-0.894,-0.894,-0.894,-0.894,-0.894,-0.894,-0.894,-0.894,-0.894,-0.894,-0.894,-0.894,-0.894,-0.8885,-0.8898,-0.9008,-0.9159,-0.9248,-0.9364,-0.9496,-0.9605,-0.9673,-0.9768,-0.9808,-0.9815,-0.9822,-0.9822,-0.9795,-0.9802,-0.9788,-0.953,-0.9364,-0.9225,-0.915,-0.8611,-0.838,-0.782,-0.7598,-0.7537,-0.7593,-0.7093,-0.62,-0.525,-0.4641,-0.3916,-0.3469,-0.3245,-0.3189,-0.2968,-1.0717,-1.0717,-1.0717,-1.0717,-1.0717,-1.0717,-1.0717,-1.0717,-1.0717,-1.0697,-1.0622,-1.0493,-1.0344,-1.0188,-0.9998,-0.9774,-0.9537,-0.9429,-0.9273,-0.9117,-0.9193,-0.9137,-0.9103,-0.9187,-0.9083,-0.8905,-0.894,-0.894,-0.894,-0.894,-0.894,-0.894,-0.894,-0.894,-0.894,-0.894,-0.894,-0.8878,-0.8838,-0.8791,-0.8655,-0.8642,-0.8492,-0.8241,-0.8299,-0.8241,-0.8143,-0.7039,-0.6942,-0.7945,-0.6986,-0.6886,-0.7772,-0.8235,-0.8384,-0.8486,-0.8689,-0.8763,-0.8858,-0.894,-0.894,-0.894,-0.894,-0.894,-0.894,-0.894,-0.894,-0.894,-0.894,-0.894,-0.894,-0.894,-0.894,-0.894,-0.894,-0.894,-0.8885,-0.894,-0.894,-0.8954,-0.9022,-0.9103,-0.9241,-0.9293,-0.9483,-0.9591,-0.9686,-0.9774,-0.9808,-0.9822,-0.9822,-0.9822,-0.9822,-0.9822,-0.9822,-0.9741,-0.9533,-0.9163,-0.8949,-0.8724,-0.8239,-0.7594,-0.7025,-0.6604,-0.6599,-0.6311,-0.581,-0.5031,-0.4027,-0.3469,-0.308,-0.2576,-0.2018,-0.1962,-0.2074,-1.0717,-1.0717,-1.0717,-1.0717,-1.0717,-1.0717,-1.0717,-1.0717,-1.0717,-1.0717,-1.069,-1.0561,-1.0412,-1.027,-1.0058,-0.9822,-0.9618,-0.9503,-0.9412,-0.9248,-0.9275,-0.9296,-0.9282,-0.9228,-0.9076,-0.8905,-0.894,-0.894,-0.894,-0.894,-0.894,-0.894,-0.894,-0.894,-0.894,-0.894,-0.894,-0.894,-0.8933,-0.8866,-0.8757,-0.8764,-0.8648,-0.8404,-0.8404,-0.8404,-0.8298,-0.7584,-0.749,-0.7947,-0.754,-0.749,-0.7967,-0.8325,-0.8506,-0.8594,-0.873,-0.8817,-0.8871,-0.894,-0.894,-0.894,-0.894,-0.894,-0.894,-0.894,-0.894,-0.894,-0.894,-0.894,-0.894,-0.894,-0.894,-0.894,-0.894,-0.894,-0.8892,-0.8988,-0.9015,-0.9055,-0.915,-0.9239,-0.9361,-0.9449,-0.9639,-0.968,-0.9761,-0.9822,-0.9822,-0.9822,-0.9761,-0.9761,-0.9822,-0.9822,-0.9822,-0.9674,-0.9513,-0.9029,-0.8561,-0.8142,-0.7669,-0.6888,-0.6189,-0.5487,-0.5238,-0.47,-0.4195,-0.358,-0.2744,-0.2466,-0.2354,-0.213,-0.185,-0.1794,-0.1906,-1.0717,-1.0717,-1.0717,-1.0717,-1.0717,-1.0717,-1.0717,-1.0717,-1.0717,-1.0717,-1.069,-1.0582,-1.0439,-1.029,-1.0092,-0.9937,-0.9673,-0.9598,-0.9462,-0.9364,-0.9327,-0.9395,-0.9381,-0.9289,-0.9089,-0.8988,-0.8947,-0.894,-0.894,-0.894,-0.894,-0.894,-0.894,-0.894,-0.894,-0.894,-0.894,-0.894,-0.894,-0.8811,-0.875,-0.8852,-0.8798,-0.852,-0.8608,-0.8615,-0.8513,-0.8341,-0.8335,-0.8479,-0.8288,-0.8125,-0.8098,-0.8328,-0.8521,-0.8682,-0.8716,-0.8763,-0.8851,-0.894,-0.894,-0.894,-0.894,-0.894,-0.894,-0.894,-0.894,-0.894,-0.894,-0.894,-0.894,-0.894,-0.894,-0.8954,-0.8974,-0.8974,-0.8967,-0.9083,-0.9157,-0.9191,-0.93,-0.9435,-0.9557,-0.9605,-0.9693,-0.9768,-0.9815,-0.9815,-0.9822,-0.9761,-0.9754,-0.9633,-0.9511,-0.9451,-0.9329,-0.9079,-0.886,-0.8395,-0.7644,-0.6714,-0.638,-0.5594,-0.494,-0.4252,-0.3868,-0.3275,-0.2811,-0.2423,-0.2137,-0.2076,-0.1964,-0.1851,-0.1797,-0.18,-0.1808,-1.0717,-1.0717,-1.0717,-1.0717,-1.0717,-1.0717,-1.0717,-1.0717,-1.0717,-1.0717,-1.0711,-1.0683,-1.0568,-1.0426,-1.0283,-1.0114,-0.9849,-0.9713,-0.9591,-0.951,-0.9523,-0.9551,-0.949,-0.9337,-0.9193,-0.9139,-0.8994,-0.894,-0.894,-0.894,-0.894,-0.894,-0.894,-0.894,-0.894,-0.894,-0.894,-0.894,-0.894,-0.8871,-0.8838,-0.8851,-0.8845,-0.8682,-0.8689,-0.8696,-0.8608,-0.854,-0.8373,-0.8131,-0.8118,-0.8118,-0.8038,-0.8222,-0.8461,-0.8669,-0.8763,-0.8886,-0.8871,-0.894,-0.894,-0.894,-0.894,-0.894,-0.894,-0.894,-0.894,-0.894,-0.894,-0.8885,-0.8885,-0.8947,-0.8988,-0.9076,-0.911,-0.911,-0.9123,-0.9282,-0.9378,-0.9334,-0.9456,-0.9564,-0.9618,-0.9693,-0.9768,-0.9808,-0.9822,-0.9822,-0.9822,-0.9572,-0.939,-0.9019,-0.8836,-0.8836,-0.8714,-0.8471,-0.8094,-0.7657,-0.651,-0.4767,-0.4282,-0.3704,-0.3113,-0.2513,-0.2844,-0.2478,-0.2234,-0.1945,-0.1819,-0.1809,-0.1806,-0.181,-0.1809,-0.181,-0.1827,-1.0717,-1.0717,-1.0717,-1.0717,-1.0717,-1.0717,-1.0717,-1.0717,-1.0717,-1.0717,-1.0717,-1.0717,-1.0636,-1.0487,-1.0405,-1.0249,-0.9977,-0.9869,-0.9727,-0.9612,-0.9605,-0.9605,-0.9564,-0.9401,-0.9337,-0.9207,-0.9069,-0.9001,-0.8947,-0.894,-0.894,-0.894,-0.894,-0.894,-0.894,-0.894,-0.894,-0.894,-0.894,-0.894,-0.894,-0.894,-0.8844,-0.8818,-0.875,-0.8641,-0.8156,-0.7944,-0.7883,-0.7892,-0.794,-0.7971,-0.7869,-0.8208,-0.8477,-0.8641,-0.8783,-0.8933,-0.894,-0.894,-0.894,-0.894,-0.894,-0.894,-0.894,-0.894,-0.894,-0.894,-0.894,-0.8967,-0.9028,-0.9083,-0.9157,-0.9239,-0.9306,-0.9313,-0.9323,-0.9388,-0.9462,-0.951,-0.9598,-0.97,-0.97,-0.9774,-0.9808,-0.9822,-0.9822,-0.9822,-0.9761,-0.939,-0.8775,-0.8221,-0.7673,-0.749,-0.7368,-0.7123,-0.6508,-0.6075,-0.5212,-0.3413,-0.3022,-0.2445,-0.2261,-0.2021,-0.1953,-0.1883,-0.1869,-0.1859,-0.1855,-0.1846,-0.1835,-0.1832,-0.1836,-0.1838,-0.1795,-1.0717,-1.0717,-1.0717,-1.0717,-1.0717,-1.0717,-1.0717,-1.0717,-1.0717,-1.0717,-1.0717,-1.0717,-1.0649,-1.0521,-1.0487,-1.0337,-1.0024,-0.9963,-0.9802,-0.9707,-0.9632,-0.9618,-0.9652,-0.9591,-0.9442,-0.9316,-0.9241,-0.9083,-0.9001,-0.896,-0.894,-0.894,-0.894,-0.894,-0.894,-0.894,-0.894,-0.894,-0.894,-0.894,-0.894,-0.894,-0.8871,-0.8865,-0.8906,-0.8465,-0.7747,-0.7315,-0.7265,-0.7648,-0.77,-0.7288,-0.7249,-0.7759,-0.7919,-0.7913,-0.8029,-0.8263,-0.8657,-0.8546,-0.8774,-0.883,-0.894,-0.894,-0.894,-0.894,-0.8898,-0.8988,-0.896,-0.9042,-0.9171,-0.9306,-0.9381,-0.9422,-0.953,-0.9551,-0.949,-0.9544,-0.9632,-0.9639,-0.9747,-0.9802,-0.9822,-0.9822,-0.9822,-0.9822,-0.9761,-0.9572,-0.9268,-0.8714,-0.7917,-0.694,-0.6446,-0.6018,-0.5835,-0.5712,-0.4916,-0.4244,-0.3512,-0.2459,-0.2454,-0.2129,-0.1999,-0.1932,-0.1928,-0.1914,-0.1895,-0.1889,-0.1888,-0.1876,-0.1861,-0.187,-0.1881,-0.1881,-0.1889,-1.0717,-1.0717,-1.0717,-1.0717,-1.0717,-1.0717,-1.0717,-1.0717,-1.0717,-1.0717,-1.0717,-1.0717,-1.0697,-1.0656,-1.0548,-1.0392,-1.0222,-1.0107,-0.9944,-0.9788,-0.9652,-0.9686,-0.972,-0.9673,-0.9578,-0.9449,-0.9309,-0.92,-0.9146,-0.9001,-0.894,-0.894,-0.894,-0.894,-0.894,-0.894,-0.894,-0.8885,-0.8878,-0.8774,-0.8712,-0.8712,-0.8657,-0.8712,-0.8712,-0.8712,-0.8325,-0.7371,-0.6856,-0.6679,-0.5904,-0.5254,-0.5421,-0.5532,-0.575,-0.5973,-0.6195,-0.6644,-0.7265,-0.7598,-0.7931,-0.8712,-0.883,-0.894,-0.894,-0.8892,-0.9001,-0.9069,-0.911,-0.9178,-0.932,-0.9469,-0.9544,-0.9585,-0.9673,-0.9694,-0.9674,-0.9747,-0.9761,-0.9774,-0.9795,-0.9822,-0.9822,-0.97,-0.97,-0.9761,-0.9511,-0.9268,-0.8714,-0.8039,-0.6879,-0.5712,-0.5287,-0.4797,-0.449,-0.4306,-0.3817,-0.3204,-0.2469,-0.2038,-0.1974,-0.1971,-0.196,-0.196,-0.1964,-0.1947,-0.1924,-0.1921,-0.1919,-0.1903,-0.1891,-0.1898,-0.1906,-0.1913,-0.1921,-1.0717,-1.0717,-1.0717,-1.0717,-1.0717,-1.0717,-1.0717,-1.0717,-1.0717,-1.0717,-1.0717,-1.0717,-1.0717,-1.0717,-1.0629,-1.0521,-1.0351,-1.0148,-0.9903,-0.9829,-0.9741,-0.9754,-0.9795,-0.9741,-0.968,-0.9598,-0.9462,-0.9371,-0.9228,-0.9076,-0.9008,-0.894,-0.894,-0.894,-0.894,-0.8885,-0.894,-0.8712,-0.8325,-0.7992,-0.7875,-0.7426,-0.726,-0.7254,-0.7204,-0.7038,-0.6255,-0.5644,-0.4975,-0.4362,-0.358,-0.3525,-0.4362,-0.4585,-0.4749,-0.4916,-0.5194,-0.5584,-0.62,-0.6816,-0.7376,-0.8042,-0.8546,-0.8925,-0.9015,-0.9042,-0.911,-0.9218,-0.933,-0.932,-0.9476,-0.9618,-0.9693,-0.9713,-0.9774,-0.9572,-0.9147,-0.939,-0.9822,-0.9822,-0.9815,-0.9822,-0.9761,-0.939,-0.939,-0.939,-0.7795,-0.749,-0.7734,-0.694,-0.559,-0.4551,-0.4125,-0.3635,-0.3204,-0.296,-0.2837,-0.2529,-0.2222,-0.2038,-0.2037,-0.2037,-0.2037,-0.1975,-0.1974,-0.1971,-0.1954,-0.1952,-0.1948,-0.1944,-0.1936,-0.193,-0.1932,-0.1944,-0.1951,-1.0717,-1.0717,-1.0717,-1.0717,-1.0717,-1.0717,-1.0717,-1.0717,-1.0717,-1.0717,-1.0717,-1.0717,-1.0717,-1.0717,-1.0717,-1.0622,-1.0412,-1.0188,-0.9903,-0.9829,-0.9808,-0.9808,-0.9815,-0.9795,-0.9754,-0.9646,-0.9591,-0.9449,-0.9293,-0.9221,-0.9083,-0.8988,-0.8885,-0.8885,-0.894,-0.8885,-0.8712,-0.838,-0.7598,-0.6871,-0.6478,-0.5806,-0.5528,-0.5584,-0.5584,-0.5306,-0.4693,-0.408,-0.3301,-0.213,-0.1626,-0.241,-0.353,-0.4198,-0.4362,-0.425,-0.4362,-0.4693,-0.5194,-0.6089,-0.6816,-0.7043,-0.8245,-0.8972,-0.9166,-0.9234,-0.9273,-0.9367,-0.9449,-0.951,-0.9632,-0.9727,-0.9795,-0.9808,-0.9815,-0.9207,-0.841,-0.8903,-0.9268,-0.939,-0.9207,-0.9147,-0.8964,-0.8714,-0.8842,-0.8659,-0.7001,-0.5904,-0.6149,-0.5904,-0.4558,-0.3571,-0.3145,-0.2979,-0.261,-0.2491,-0.2241,-0.2183,-0.2055,-0.1988,-0.1985,-0.204,-0.204,-0.2038,-0.1975,-0.1974,-0.1974,-0.1967,-0.1969,-0.2038,-0.2033,-0.2017,-0.2023,-0.2037,-0.1974,-1.0717,-1.0717,-1.0717,-1.0717,-1.0717,-1.0717,-1.0717,-1.0717,-1.0717,-1.0717,-1.0717,-1.0717,-1.0717,-1.0717,-1.0717,-1.0575,-1.0337,-1.0148,-0.9916,-0.9842,-0.9822,-0.9822,-0.9822,-0.9822,-0.9795,-0.9761,-0.9686,-0.9578,-0.9462,-0.9293,-0.9184,-0.911,-0.9008,-0.8954,-0.8954,-0.8823,-0.838,-0.7598,-0.6927,-0.6195,-0.519,-0.4637,-0.447,-0.4578,-0.4634,-0.4634,-0.4637,-0.4027,-0.3525,-0.3245,-0.2298,-0.202,-0.2298,-0.2242,-0.2185,-0.2241,-0.252,-0.3078,-0.3804,-0.4916,-0.6089,-0.7115,-0.8021,-0.8828,-0.9014,-0.91,-0.8819,-0.9189,-0.942,-0.9627,-0.9721,-0.9438,-0.9694,-0.97,-0.9451,-0.8964,-0.8039,-0.7867,-0.7994,-0.7944,-0.8061,-0.8166,-0.7922,-0.7633,-0.747,-0.7116,-0.5957,-0.4967,-0.4905,-0.4524,-0.3653,-0.2845,-0.2224,-0.218,-0.2134,-0.2139,-0.2081,-0.2157,-0.2027,-0.2015,-0.2007,-0.1988,-0.2043,-0.1985,-0.2044,-0.2037,-0.2038,-0.2038,-0.2038,-0.2038,-0.2038,-0.2038,-0.2038,-0.2038,-0.2038,-1.0717,-1.0717,-1.0717,-1.0717,-1.0717,-1.0717,-1.0717,-1.0717,-1.0717,-1.0717,-1.0717,-1.0717,-1.0717,-1.0717,-1.0717,-1.0555,-1.0324,-1.0215,-1.0039,-0.9869,-0.9822,-0.9822,-0.9822,-0.9822,-0.9822,-0.9802,-0.9747,-0.9673,-0.9605,-0.9476,-0.934,-0.9245,-0.9123,-0.9049,-0.9028,-0.8919,-0.8109,-0.7099,-0.6089,-0.5023,-0.3572,-0.2852,-0.2684,-0.2964,-0.3131,-0.3189,-0.3357,-0.3134,-0.2688,-0.252,-0.213,-0.185,-0.1682,-0.1514,-0.129,-0.1346,-0.1458,-0.1682,-0.2297,-0.3301,-0.4204,-0.4754,-0.61,-0.6752,-0.6831,-0.6862,-0.7288,-0.7572,-0.8473,-0.8836,-0.8775,-0.8288,-0.8166,-0.8532,-0.8288,-0.7307,-0.6337,-0.6003,-0.6019,-0.6147,-0.6425,-0.6596,-0.6705,-0.6359,-0.6023,-0.5364,-0.4636,-0.4204,-0.3828,-0.3387,-0.2884,-0.2574,-0.2074,-0.202,-0.2037,-0.2041,-0.205,-0.2061,-0.2059,-0.2046,-0.2033,-0.2016,-0.2005,-0.2003,-0.1994,-0.2046,-0.2038,-0.2038,-0.2038,-0.2038,-0.2038,-0.2038,-0.2038,-0.2038,-0.2038,-1.0717,-1.0717,-1.0717,-1.0717,-1.0717,-1.0717,-1.0717,-1.0717,-1.0717,-1.0717,-1.0717,-1.0717,-1.0717,-1.0717,-1.069,-1.0575,-1.0324,-1.0297,-1.0114,-0.9917,-0.9836,-0.9822,-0.9822,-0.9822,-0.9822,-0.9815,-0.9808,-0.9761,-0.968,-0.9598,-0.953,-0.9422,-0.9279,-0.9198,-0.9121,-0.8564,-0.765,-0.6335,-0.4972,-0.3461,-0.1958,-0.0896,-0.0561,-0.1065,-0.1177,-0.1458,-0.1906,-0.1962,-0.1962,-0.1962,-0.185,-0.1794,-0.1738,-0.1458,-0.129,-0.1234,-0.1234,-0.1123,-0.1295,-0.214,-0.3004,-0.3277,-0.3983,-0.4516,-0.4819,-0.5286,-0.5211,-0.5517,-0.6329,-0.7245,-0.7184,-0.6508,-0.6508,-0.6945,-0.653,-0.544,-0.4719,-0.4253,-0.4164,-0.4404,-0.4798,-0.5108,-0.5317,-0.5199,-0.486,-0.4175,-0.3431,-0.3374,-0.2995,-0.2684,-0.2364,-0.2307,-0.2119,-0.2123,-0.2067,-0.2071,-0.2083,-0.2097,-0.2089,-0.2075,-0.2061,-0.2048,-0.2037,-0.202,-0.2005,-0.1994,-0.1986,-0.2038,-0.2038,-0.2038,-0.2038,-0.2038,-0.2038,-0.2038,-0.2038,-1.0717,-1.0717,-1.0717,-1.0717,-1.0717,-1.0717,-1.0717,-1.0717,-1.0717,-1.0717,-1.0717,-1.0717,-1.0717,-1.0717,-1.0717,-1.0616,-1.0466,-1.0324,-1.0181,-0.9936,-0.9876,-0.9822,-0.9822,-0.9822,-0.9822,-0.9761,-0.9761,-0.9815,-0.9701,-0.9613,-0.9559,-0.9498,-0.9325,-0.9238,-0.8871,-0.7881,-0.6393,-0.4956,-0.3377,-0.1846,0.0,0.0,-0.028,-0.0505,-0.0785,-0.1121,-0.1402,-0.1626,-0.1738,-0.1794,-0.1794,-0.1794,-0.1738,-0.1514,-0.1177,-0.1009,-0.0955,-0.0959,-0.1027,-0.1715,-0.2361,-0.2515,-0.3546,-0.4479,-0.4277,-0.4437,-0.459,-0.4909,-0.5223,-0.5406,-0.5655,-0.5471,-0.5655,-0.5621,-0.5342,-0.4624,-0.3962,-0.3052,-0.2887,-0.2832,-0.3326,-0.3712,-0.4042,-0.3914,-0.3724,-0.2958,-0.2385,-0.2389,-0.2331,-0.221,-0.2148,-0.2152,-0.2155,-0.2159,-0.2165,-0.2104,-0.2109,-0.2193,-0.2117,-0.2104,-0.2094,-0.2079,-0.2052,-0.2037,-0.2022,-0.2005,-0.1992,-0.1985,-0.2041,-0.2038,-0.2038,-0.2038,-0.2038,-0.2038,-0.1977,-1.0717,-1.0717,-1.0717,-1.0717,-1.0717,-1.0717,-1.0717,-1.0717,-1.0717,-1.0717,-1.0717,-1.0717,-1.0717,-1.0717,-1.0717,-1.0636,-1.0487,-1.0351,-1.0195,-0.9984,-0.991,-0.9822,-0.9822,-0.9822,-0.9822,-0.97,-0.9579,-0.9518,-0.9492,-0.9472,-0.9426,-0.9406,-0.911,-0.8856,-0.8608,-0.7312,-0.5894,-0.423,-0.2316,-0.0729,0.0,0.0,-0.0112,-0.0393,-0.0505,-0.0842,-0.1177,-0.1402,-0.1626,-0.1738,-0.1794,-0.1794,-0.1682,-0.1347,-0.1012,-0.091,-0.0569,-0.04,-0.046,0.0,0.0,0.0,0.0,-0.187,-0.219,-0.294,-0.3139,-0.2402,-0.3323,-0.3815,-0.3756,-0.3325,-0.3591,-0.3738,-0.3706,-0.323,-0.2682,-0.2328,-0.1893,-0.1833,-0.1904,-0.2493,-0.3013,-0.3006,-0.3004,-0.2614,-0.2232,-0.2179,-0.2251,-0.219,-0.219,-0.2189,-0.219,-0.2125,-0.2197,-0.2202,-0.2199,-0.221,-0.221,-0.2131,-0.2128,-0.2112,-0.2083,-0.2065,-0.2057,-0.2035,-0.2007,-0.1989,-0.2044,-0.2041,-0.2038,-0.2038,-0.2038,-0.1977,-0.1977,-1.0717,-1.0717,-1.0717,-1.0717,-1.0717,-1.0717,-1.0717,-1.0717,-1.0717,-1.0717,-1.0717,-1.0717,-1.0717,-1.0717,-1.0711,-1.0663,-1.0555,-1.0399,-1.0249,-1.01,-0.9896,-0.9808,-0.9775,-0.9761,-0.964,-0.964,-0.9335,-0.922,-0.9159,-0.9086,-0.9079,-0.9153,-0.8931,-0.8702,-0.8181,-0.7074,-0.5568,-0.3467,-0.1317,0.0,0.0,0.0,0.0,-0.0226,-0.0395,-0.062,-0.101,-0.1177,-0.1346,-0.1582,-0.163,-0.1686,-0.1693,-0.1302,-0.0966,-0.0804,-0.0405,0.0,0.0,0.0,0.0,0.0,0.0,0.0,-0.043,0.0,-0.1663,-0.074,-0.148,-0.2157,-0.2159,-0.1485,-0.1809,-0.1952,-0.178,-0.1282,-0.0971,-0.1115,-0.1323,-0.1459,-0.1597,-0.1805,-0.2135,-0.2193,-0.219,-0.2124,-0.2069,-0.2017,-0.2019,-0.2017,-0.2014,-0.194,-0.2142,-0.2142,-0.2146,-0.2153,-0.2154,-0.2155,-0.2155,-0.2153,-0.2144,-0.2135,-0.2114,-0.2102,-0.209,-0.2065,-0.2037,-0.2009,-0.1985,-0.2043,-0.2038,-0.2038,-0.1977,-0.1915,-0.1853,-1.0717,-1.0717,-1.0717,-1.0717,-1.0717,-1.0717,-1.0717,-1.0717,-1.0717,-1.0717,-1.0717,-1.0717,-1.0717,-1.0717,-1.0717,-1.0711,-1.069,-1.0548,-1.0392,-1.0249,-1.0051,-0.9909,-0.9774,-0.9612,-0.9409,-0.9335,-0.9098,-0.8915,-0.8854,-0.861,-0.8732,-0.8787,-0.8326,-0.8465,-0.7807,-0.6381,-0.4456,-0.2467,-0.0643,0.0,0.0,0.0,0.0,0.0,-0.0287,-0.0456,-0.0505,-0.0789,-0.1077,-0.1376,-0.1422,-0.1477,-0.149,-0.1148,-0.0922,-0.0697,-0.0295,0.0,0.0,0.0,0.0,0.0,0.0,0.0,0.0,0.0,0.0,0.0,0.0,-0.0681,-0.0745,-0.0625,-0.0884,-0.0893,-0.0903,-0.0847,-0.0657,-0.0597,-0.0803,-0.1142,-0.1277,-0.1414,-0.1616,-0.1741,-0.194,-0.1938,-0.1739,-0.1683,-0.1616,-0.1615,-0.1616,-0.1681,-0.195,-0.2085,-0.2085,-0.2088,-0.1885,-0.1885,-0.1885,-0.1953,-0.2018,-0.2076,-0.2001,-0.2059,-0.2043,-0.2023,-0.2068,-0.1982,-0.1959,-0.199,-0.1978,-0.186,-0.1732,-0.1606,-0.1544,-1.0717,-1.0717,-1.0717,-1.0717,-1.0717,-1.0717,-1.0717,-1.0717,-1.0717,-1.0717,-1.0717,-1.0717,-1.0717,-1.0717,-1.0717,-1.0717,-1.0697,-1.0561,-1.0466,-1.0385,-1.0256,-1.0107,-0.9888,-0.9636,-0.9432,-0.9184,-0.8861,-0.861,-0.8555,-0.8122,-0.7505,-0.7317,-0.7072,-0.7011,-0.6302,-0.4976,-0.2883,-0.1492,0.0,0.0,0.0,0.0,0.0,0.0,0.0,-0.0233,-0.0405,-0.052,-0.0812,-0.1046,-0.1217,-0.1278,-0.1281,-0.0992,-0.0821,-0.059,-0.024,0.0,0.0,0.0,0.0,0.0,0.0,0.0,0.0,0.0,0.0,0.0,0.0,0.0,0.0,0.0,-0.0257,-0.0324,0.0,0.0,0.0,0.0,-0.0403,-0.074,-0.0875,-0.0943,-0.1212,-0.1413,-0.1615,-0.1749,-0.1481,-0.1279,-0.1212,-0.1212,-0.1279,-0.1346,-0.1548,-0.1616,-0.1683,-0.1616,-0.1548,-0.1616,-0.1616,-0.1683,-0.175,-0.1818,-0.1744,-0.187,-0.1932,-0.1984,-0.1903,-0.1824,-0.1867,-0.1902,-0.1756,-0.1559,-0.143,-0.1302,-0.1242,-1.0717,-1.0717,-1.0717,-1.0717,-1.0717,-1.0717,-1.0717,-1.0717,-1.0717,-1.0717,-1.0717,-1.0717,-1.0717,-1.0717,-1.0717,-1.0717,-1.0697,-1.0616,-1.0548,-1.0466,-1.0378,-1.0193,-0.991,-0.9606,-0.9324,-0.91,-0.8614,-0.8245,-0.7567,-0.7398,-0.6521,-0.5598,-0.4923,-0.4862,-0.4848,-0.3232,-0.1517,-0.0787,0.0,0.0,0.0,0.0,0.0,0.0,0.0,-0.0059,-0.0235,-0.0293,-0.0471,-0.0709,-0.0886,-0.1004,-0.0888,-0.0772,-0.0657,-0.0421,0.0,0.0,0.0,0.0,0.0,0.0,0.0,0.0,0.0,0.0,0.0,0.0,0.0,0.0,0.0,0.0,0.0,0.0,0.0,0.0,0.0,0.0,0.0,-0.0336,-0.0471,-0.0673,-0.0741,-0.0943,-0.101,-0.1212,-0.1077,-0.0875,-0.0741,-0.0741,-0.0875,-0.0943,-0.1144,-0.1144,-0.1144,-0.1212,-0.1279,-0.1346,-0.1346,-0.1279,-0.1279,-0.1346,-0.1414,-0.1477,-0.1607,-0.1806,-0.1731,-0.1522,-0.1635,-0.1807,-0.1598,-0.1265,-0.1202,-0.1073,-0.0882,-1.0717,-1.0717,-1.0717,-1.0717,-1.0717,-1.0717,-1.0717,-1.0717,-1.0717,-1.0717,-1.0717,-1.0717,-1.0717,-1.0717,-1.0717,-1.0717,-1.0717,-1.0697,-1.0636,-1.0534,-1.0507,-1.0205,-0.98,-0.9494,-0.9221,-0.8701,-0.8117,-0.7228,-0.6344,-0.6048,-0.5201,-0.3943,-0.3083,-0.2772,-0.363,-0.2648,-0.1971,-0.1725,-0.0492,0.0,0.0,0.0,0.0,0.0,0.0,0.0,0.0,0.0,0.0,-0.0481,-0.0537,-0.0658,-0.0722,-0.0543,-0.0423,-0.0363,-0.0122,0.0,0.0,0.0,0.0,0.0,0.0,0.0,0.0,0.0,0.0,0.0,0.0,0.0,0.0,0.0,0.0,0.0,0.0,0.0,0.0,0.0,0.0,0.0,-0.0337,-0.0471,-0.0539,-0.0539,-0.0539,-0.0539,-0.0539,-0.0471,-0.0404,0.0,0.0,-0.0606,-0.0673,-0.0741,-0.0741,-0.0943,-0.101,0.0,-0.101,-0.0875,-0.0875,-0.101,-0.1077,-0.1077,-0.1277,-0.1476,-0.1277,-0.1075,-0.1194,-0.1245,-0.1168,-0.0966,-0.0901,0.0,0.0,-1.0717,-1.0717,-1.0717,-1.0717,-1.0717,-1.0717,-1.0717,-1.0717,-1.0717,-1.0717,-1.0717,-1.0717,-1.0717,-1.0717,-1.0717,-1.0717,-1.0717,-1.0717,-1.0663,-1.0649,-1.0563,-1.0287,-0.9942,-0.9503,-0.9086,-0.8433,-0.7605,-0.6701,-0.6125,-0.5126,-0.3836,-0.263,-0.1553,-0.0987,-0.111,-0.074,-0.0617,-0.0617,0.0,0.0,0.0,0.0,0.0,0.0,0.0,0.0,0.0,0.0,0.0,0.0,-0.0303,-0.0426,-0.0428,-0.0306,-0.0367,0.0,0.0,0.0,0.0,0.0,0.0,0.0,0.0,0.0,0.0,0.0,0.0,0.0,0.0,0.0,0.0,0.0,0.0,0.0,0.0,0.0,0.0,0.0,0.0,0.0,-0.0135,0.0,0.0,0.0,0.0,0.0,0.0,0.0,-0.0337,0.0,0.0,0.0,-0.0269,-0.0269,0.0,0.0,0.0,0.0,0.0,-0.0269,-0.0404,-0.0606,-0.0673,-0.0741,-0.0943,-0.1077,-0.0943,-0.0807,-0.0604,-0.0532,-0.0592,0.0,0.0,0.0,0.0,-1.0717,-1.0717,-1.0717,-1.0717,-1.0717,-1.0717,-1.0717,-1.0717,-1.0717,-1.0717,-1.0717,-1.0717,-1.0717,-1.0717,-1.0717,-1.0717,-1.0717,-1.0717,-1.0717,-1.0717,-1.0585,-1.0254,-0.9873,-0.9383,-0.8634,-0.7896,-0.6813,-0.5892,-0.4465,-0.3675,-0.2561,-0.1397,0.0,0.0,0.0,0.0,0.0,0.0,0.0,0.0,0.0,0.0,0.0,0.0,0.0,0.0,0.0,0.0,0.0,0.0,0.0,0.0,0.0,0.0,0.0,0.0,0.0,0.0,0.0,0.0,0.0,0.0,0.0,0.0,0.0,0.0,0.0,0.0,0.0,0.0,0.0,0.0,0.0,0.0,0.0,0.0,0.0,0.0,0.0,0.0,0.0,0.0,0.0,0.0,0.0,0.0,0.0,0.0,0.0,0.0,0.0,0.0,0.0,0.0,0.0,0.0,0.0,0.0,0.0,0.0,-0.0067,-0.0269,-0.0337,0.0,0.0,0.0,0.0,0.0,0.0,0.0,-0.0267,0.0,0.0,0.0,0.0,-1.0717,-1.0717,-1.0717,-1.0717,-1.0717,-1.0717,-1.0717,-1.0717,-1.0717,-1.0717,-1.0717,-1.0717,-1.0717,-1.0717,-1.0717,-1.0717,-1.0717,-1.0717,-1.0452,-1.0452,-1.0253,-0.9836,-0.9238,-0.8823,-0.7796,-0.6788,-0.5697,-0.4273,-0.2432,-0.2017,-0.1228,0.0,0.0,0.0,0.0,0.0,0.0,0.0,0.0,0.0,0.0,0.0,0.0,0.0,0.0,0.0,0.0,0.0,0.0,0.0,0.0,0.0,0.0,0.0,0.0,0.0,0.0,0.0,0.0,0.0,0.0,0.0,0.0,0.0,0.0,0.0,0.0,0.0,0.0,0.0,0.0,0.0,0.0,0.0,0.0,0.0,0.0,0.0,0.0,0.0,0.0,0.0,0.0,0.0,0.0,0.0,0.0,0.0,0.0,0.0,0.0,0.0,0.0,0.0,0.0,0.0,0.0,0.0,0.0,0.0,0.0,0.0,0.0,0.0,0.0,0.0,0.0,0.0,0.0,0.0,0.0,0.0,0.0,0.0,0.0,-1.0717,-1.0717,-1.0717,-1.0717,-1.0717,-1.0717,-1.0717,-1.0717,-1.0717,-1.0717,-1.0717,-1.0717,-1.0717,-1.0717,-1.0717,-1.0651,-1.0717,-1.0518,-0.9709,-0.951,-0.9377,-0.8174,-0.7436,-0.7036,-0.6301,-0.5158,-0.3944,-0.3131,-0.2063,0.0,0.0,0.0,0.0,0.0,0.0,0.0,0.0,0.0,0.0,0.0,0.0,0.0,0.0,0.0,0.0,0.0,0.0,0.0,0.0,0.0,0.0,0.0,0.0,0.0,0.0,0.0,0.0,0.0,0.0,0.0,0.0,0.0,0.0,0.0,0.0,0.0,0.0,0.0,0.0,0.0,0.0,0.0,0.0,0.0,0.0,0.0,0.0,0.0,0.0,0.0,0.0,0.0,0.0,0.0,0.0,0.0,0.0,0.0,0.0,0.0,0.0,0.0,0.0,0.0,0.0,0.0,0.0,0.0,0.0,0.0,0.0,0.0,0.0,0.0,0.0,0.0,0.0,0.0,0.0,0.0,0.0,0.0,0.0,0.0,0.0,-1.0717,-1.0717,-1.0717,-1.0717,-1.0585,-1.0114,-0.9848,-0.9981,-1.0452,-1.0717,-1.0717,-1.0717,-1.0717,-1.0585,-1.018,-1.0047,-1.0585,-0.9045,-0.824,-0.8568,-0.8169,-0.6698,-0.5696,-0.5295,-0.4763,-0.3557,-0.262,-0.2013,0.0,0.0,0.0,0.0,0.0,0.0,0.0,0.0,0.0,0.0,0.0,0.0,0.0,0.0,0.0,0.0,0.0,0.0,0.0,0.0,0.0,0.0,0.0,0.0,0.0,0.0,0.0,0.0,0.0,0.0,0.0,0.0,0.0,0.0,0.0,0.0,0.0,0.0,0.0,0.0,0.0,0.0,0.0,0.0,0.0,0.0,0.0,0.0,0.0,0.0,0.0,0.0,0.0,0.0,0.0,0.0,0.0,0.0,0.0,0.0,0.0,0.0,0.0,0.0,0.0,0.0,0.0,0.0,0.0,0.0,0.0,0.0,0.0,0.0,0.0,0.0,0.0,0.0,0.0,0.0,0.0,0.0,0.0,0.0,0.0,0.0,0.0,-1.0651,-1.0452,-1.0386,-1.0246,-1.0319,-0.9039,-0.844,-0.8573,-0.9576,-1.0319,-1.0319,-1.0253,-1.0047,-0.9709,-0.8839,-0.8839,-0.864,-0.7436,-0.6702,-0.7564,-0.6293,-0.4891,-0.4091,-0.4091,-0.3289,-0.2418,-0.1681,0.0,0.0,0.0,0.0,0.0,0.0,0.0,0.0,0.0,0.0,0.0,0.0,0.0,0.0,0.0,0.0,0.0,0.0,0.0,0.0,0.0,0.0,0.0,0.0,0.0,0.0,0.0,0.0,0.0,0.0,0.0,0.0,0.0,0.0,0.0,0.0,0.0,0.0,0.0,0.0,0.0,0.0,0.0,0.0,0.0,0.0,0.0,0.0,0.0,0.0,0.0,0.0,0.0,0.0,0.0,0.0,0.0,0.0,0.0,0.0,0.0,0.0,0.0,0.0,0.0,0.0,0.0,0.0,0.0,0.0,0.0,0.0,0.0,0.0,0.0,0.0,0.0,0.0,0.0,0.0,0.0,0.0,0.0,0.0,0.0,0.0,0.0,0.0,-1.0047,-0.8972,-0.7902,-0.8035,-0.8839,-0.7569,-0.6898,-0.6902,-0.6969,-0.7641,-0.8312,-0.7641,-0.7636,-0.8102,-0.6898,-0.6635,-0.6435,-0.5763,-0.4894,-0.4824,-0.4225,-0.3086,-0.1947,-0.2351,-0.1748,-0.0942,-0.0404,0.0,0.0,0.0,0.0,0.0,0.0,0.0,0.0,0.0,0.0,0.0,0.0,0.0,0.0,0.0,0.0,0.0,0.0,0.0,0.0,0.0,0.0,0.0,0.0,0.0,0.0,0.0,0.0,0.0,0.0,0.0,0.0,0.0,0.0,0.0,0.0,0.0,0.0,0.0,0.0,0.0,0.0,0.0,0.0,0.0,0.0,0.0,0.0,0.0,0.0,0.0,0.0,0.0,0.0,0.0,0.0,0.0,0.0,0.0,0.0,0.0,0.0,0.0,0.0,0.0,0.0,0.0,0.0,0.0,0.0,0.0,0.0,0.0,0.0,0.0,0.0,0.0,0.0,0.0,0.0,0.0,0.0,0.0,0.0,0.0,0.0,0.0,0.0,-0.8374,-0.7569,-0.6769,-0.6836,-0.7303,-0.6101,-0.5366,-0.5098,-0.4364,-0.4632,-0.57,-0.57,-0.6034,-0.6297,-0.5031,-0.483,-0.4763,-0.3691,-0.3356,-0.3019,-0.2417,-0.1478,0.0,0.0,-0.0673,0.0,0.0,0.0,0.0,0.0,0.0,0.0,0.0,0.0,0.0,0.0,0.0,0.0,0.0,0.0,0.0,0.0,0.0,0.0,0.0,0.0,0.0,0.0,0.0,0.0,0.0,0.0,0.0,0.0,0.0,0.0,0.0,0.0,0.0,0.0,0.0,0.0,0.0,0.0,0.0,0.0,0.0,0.0,0.0,0.0,0.0,0.0,0.0,0.0,0.0,0.0,0.0,0.0,0.0,0.0,0.0,0.0,0.0,0.0,0.0,0.0,0.0,0.0,0.0,0.0,0.0,0.0,0.0,0.0,0.0,0.0,0.0,0.0,0.0,0.0,0.0,0.0,0.0,0.0,0.0,0.0,0.0,0.0,0.0,0.0,0.0,0.0,0.0,0.0,0.0,-0.6498,-0.6364,-0.5967,-0.5967,-0.59,-0.4632,-0.3897,-0.3427,-0.222,-0.2018,-0.2823,-0.4093,-0.4693,-0.4495,-0.3557,-0.4026,-0.3624,-0.2083,-0.1613,-0.1545,-0.0874,0.0,0.0,0.0,0.0,0.0,0.0,0.0,0.0,0.0,0.0,0.0,0.0,0.0,0.0,0.0,0.0,0.0,0.0,0.0,0.0,0.0,0.0,0.0,0.0,0.0,0.0,0.0,0.0,0.0,0.0,0.0,0.0,0.0,0.0,0.0,0.0,0.0,0.0,0.0,0.0,0.0,0.0,0.0,0.0,0.0,0.0,0.0,0.0,0.0,0.0,0.0,0.0,0.0,0.0,0.0,0.0,0.0,0.0,0.0,0.0,0.0,0.0,0.0,0.0,0.0,0.0,0.0,0.0,0.0,0.0,0.0,0.0,0.0,0.0,0.0,0.0,0.0,0.0,0.0,0.0,0.0,0.0,0.0,0.0,0.0,0.0,0.0,0.0,0.0,0.0,0.0,0.0,0.0,0.0,-0.6431,-0.6231,-0.3962,-0.3629,-0.4364,-0.3228,-0.2558,-0.2356,-0.1616,-0.1414,-0.1682,-0.1211,-0.1545,-0.2687,-0.1277,0.0,0.0,0.0,0.0,-0.0202,0.0,0.0,0.0,0.0,0.0,0.0,0.0,0.0,0.0,0.0,0.0,0.0,0.0,0.0,0.0,0.0,0.0,0.0,0.0,0.0,0.0,0.0,0.0,0.0,0.0,0.0,0.0,0.0,0.0,0.0,0.0,0.0,0.0,0.0,0.0,0.0,0.0,0.0,0.0,0.0,0.0,0.0,0.0,0.0,0.0,0.0,0.0,0.0,0.0,0.0,0.0,0.0,0.0,0.0,0.0,0.0,0.0,0.0,0.0,0.0,0.0,0.0,0.0,0.0,0.0,0.0,0.0,0.0,0.0,0.0,0.0,0.0,0.0,0.0,0.0,0.0,0.0,0.0,0.0,0.0,0.0,0.0,0.0,0.0,0.0,0.0,0.0,0.0,0.0,0.0,0.0,0.0,0.0,0.0,0.0]}]]